GFSSW_700_spd_000.txt.gz
Wind_Speed
5 4 4 3 3 4 6 9 11 13 13 13 15 16 14 16 16 12 12 12 11 10 10 11 10 9 10 8 10 11 10 10 8 5 4 3 2 3 5 6 5 4 3 2 4
3 3 5 7 8 10 12 13 14 15 14 14 14 13 13 15 12 12 12 11 11 11 10 10 9 9 10 11 11 10 8 7 8 5 1 3 3 6 6 9 10 9 7 6 4
6 8 10 12 13 14 14 14 15 15 14 13 11 10 11 14 11 11 12 12 12 10 9 6 9 9 8 7 8 7 7 7 3 2 1 3 4 5 3 4 6 6 7 8 9
11 13 13 15 16 16 15 14 14 13 13 13 13 9 7 6 5 9 9 10 10 9 8 4 8 7 9 7 6 6 6 4 1 4 5 7 7 7 4 7 7 6 5 6 8
15 15 15 16 16 15 15 14 14 13 13 13 14 16 13 10 13 10 9 10 9 7 5 3 3 3 3 4 5 4 2 2 3 3 3 3 4 7 9 9 7 8 8 9 11
16 16 16 16 16 15 14 14 13 13 13 12 13 14 14 9 15 11 10 10 8 6 3 2 2 2 3 2 2 2 4 6 6 6 8 8 12 9 11 11 12 12 12 13 15
16 16 16 17 15 15 13 13 12 13 12 11 12 13 9 14 12 10 9 7 6 5 4 4 4 5 3 3 4 4 4 6 8 10 10 12 8 6 14 12 13 14 16 17 18
15 15 15 16 15 15 13 12 11 12 12 13 13 11 4 11 10 8 6 5 6 5 6 6 7 6 3 3 4 4 4 4 8 10 11 13 9 10 14 16 14 16 16 18 21
15 14 14 14 14 14 12 10 10 9 10 10 11 11 6 7 7 5 5 6 6 7 7 8 8 6 8 3 3 6 5 7 9 13 17 15 18 8 19 18 18 17 19 19 18
13 13 13 12 13 13 12 11 9 7 8 7 8 8 7 6 5 5 4 5 6 7 9 9 7 10 9 8 4 7 8 11 13 12 19 21 22 18 17 24 23 20 18 20 19
10 10 10 9 9 11 12 10 8 6 6 9 8 8 6 5 4 3 3 3 5 6 5 7 6 7 10 11 11 11 8 14 13 15 25 22 26 20 14 15 18 21 18 17 18
10 8 7 7 7 9 9 8 9 9 9 8 6 6 4 3 2 3 4 4 5 6 7 5 3 7 9 12 13 14 18 16 10 18 26 23 19 6 5 8 8 8 11 13 14
10 8 7 6 6 7 7 10 7 7 6 6 5 4 3 3 4 5 5 5 5 6 5 2 4 6 9 11 15 14 12 17 22 30 16 21 9 10 5 12 3 6 11 12 14
9 9 8 7 6 7 7 5 3 1 2 0 1 2 5 5 5 7 7 6 5 5 5 1 4 5 6 10 18 11 15 23 24 20 11 15 10 6 9 8 1 9 18 10 12
4 6 7 7 6 6 5 3 2 3 3 2 1 1 4 5 6 8 7 4 4 4 2 4 5 5 5 13 15 10 22 23 21 9 11 4 4 3 4 5 6 13 16 17 19
4 3 4 4 4 4 3 4 3 2 3 3 1 2 4 5 5 7 7 5 2 4 2 6 7 5 6 13 13 17 19 15 15 2 5 5 5 4 4 7 8 11 17 19 21
3 3 3 4 4 3 5 5 2 2 4 3 2 1 1 3 3 5 6 5 5 3 5 8 5 4 6 11 11 18 13 7 3 3 6 4 12 9 9 10 13 15 16 20 22
3 4 4 3 4 5 5 5 3 4 5 4 2 2 0 1 2 5 6 4 7 8 4 6 2 6 16 5 17 8 6 3 5 5 13 21 9 4 10 9 16 19 23 27 27
2 3 4 4 5 5 6 4 4 5 5 4 2 1 2 1 3 3 4 1 5 7 6 6 3 16 6 17 13 7 4 9 6 12 7 8 11 23 5 13 16 18 25 25 37
3 2 3 5 5 5 6 5 5 6 5 4 3 3 2 3 2 4 2 3 6 7 11 8 9 7 6 20 11 12 12 4 3 5 6 10 22 14 12 14 16 25 23 34 37
4 2 2 3 4 4 5 5 6 5 4 3 4 4 4 3 3 4 2 5 4 8 12 14 6 8 15 7 18 13 7 4 7 7 5 7 11 13 29 18 29 32 36 37 32
4 2 2 0 1 3 4 5 4 4 3 3 3 3 3 4 5 5 4 5 7 10 10 12 12 11 19 16 10 7 9 7 6 7 15 16 40 32 16 30 37 38 36 34 33
1 2 1 2 0 2 3 3 3 3 3 3 3 4 6 5 4 4 5 6 11 9 6 16 6 13 14 4 9 11 13 12 18 27 32 15 24 25 35 37 38 37 36 35 38
2 2 1 1 2 2 2 3 3 3 4 4 5 6 5 7 9 7 10 10 12 17 17 17 15 17 21 24 23 29 33 33 29 29 40 39 59 49 38 40 38 38 37 40 50
5 4 4 3 3 2 3 4 5 5 5 6 5 6 8 7 12 8 13 18 19 12 20 17 24 21 29 27 26 31 38 38 34 46 40 55 47 43 39 41 42 39 39 53 55
10 6 6 6 4 3 4 3 4 4 5 7 8 7 10 12 14 19 19 20 23 26 26 23 24 27 37 30 24 28 40 39 36 39 43 49 56 36 39 36 35 35 45 54 55
13 13 12 11 9 7 7 6 6 8 9 8 11 14 16 15 20 22 22 23 28 30 30 28 26 19 21 15 20 23 15 24 26 25 32 35 38 34 36 32 38 50 51 50 55

GFSSW_700_spd_003.txt.gz
Wind_Speed
7 7 6 6 5 6 8 10 12 14 14 14 14 15 16 15 14 11 10 11 10 11 13 14 11 8 8 5 6 4 6 7 5 1 2 1 2 5 7 4 7 7 9 13 10
6 6 7 7 9 11 13 14 16 16 15 15 15 15 16 14 19 9 11 11 11 12 17 9 7 7 6 6 4 2 4 2 1 0 2 4 3 4 4 8 8 11 12 11 10
8 9 10 12 14 15 16 16 16 16 14 12 12 15 15 16 12 8 11 11 12 13 16 13 11 6 7 5 5 4 6 3 1 5 4 6 7 7 6 8 10 8 10 11 11
12 14 14 15 18 19 19 17 15 17 14 13 11 10 9 9 4 6 10 10 11 12 12 6 6 6 6 5 5 5 5 2 3 5 4 6 8 8 10 10 15 8 10 10 10
16 16 17 19 19 20 19 17 15 16 14 13 14 14 15 9 11 11 12 12 11 10 6 4 4 5 3 4 6 4 2 3 4 5 4 7 7 10 11 14 15 15 15 14 14
18 17 18 19 19 19 18 16 15 15 14 13 14 15 12 7 15 11 12 12 9 8 7 6 4 5 3 2 2 1 1 2 4 6 8 9 12 13 7 14 15 17 16 17 18
17 17 19 19 18 17 17 16 15 14 13 12 12 14 6 11 13 11 10 10 9 8 7 6 5 4 2 3 3 1 3 5 5 5 6 13 14 9 8 12 9 13 15 17 18
16 16 17 17 16 16 15 14 13 11 11 12 11 15 5 9 10 10 9 8 10 9 8 8 8 8 3 2 4 3 1 6 7 7 9 10 11 7 12 12 11 12 15 16 18
15 14 14 15 14 14 14 12 11 10 8 6 8 12 3 6 7 6 6 6 7 8 9 8 11 10 13 5 4 4 10 8 11 12 11 9 17 10 15 18 18 17 17 19 20
15 14 12 12 14 15 15 14 10 9 7 5 6 6 3 4 5 5 4 5 7 7 8 6 4 4 7 9 10 10 12 12 15 11 15 19 20 18 18 19 20 20 20 17 19
14 12 11 11 13 14 14 12 6 3 3 4 6 7 5 4 3 2 2 4 5 5 2 5 3 5 7 8 6 8 12 16 15 12 21 16 22 16 13 9 10 10 13 12 13
11 11 9 10 10 11 11 8 12 9 8 7 5 3 3 3 3 5 4 2 4 2 7 4 1 4 6 9 10 13 15 14 13 18 22 18 18 9 1 6 5 2 1 6 12
9 8 9 9 10 9 8 11 9 6 3 3 2 2 3 4 5 7 6 5 4 3 4 1 3 5 6 7 13 15 11 19 21 24 15 17 3 3 4 5 2 1 9 12 15
8 7 8 9 9 8 10 7 6 3 2 3 2 3 6 5 5 7 8 6 4 2 3 2 5 4 5 7 14 12 16 18 22 22 14 15 10 2 1 3 0 2 6 10 14
6 7 7 8 8 10 9 6 3 3 3 3 3 3 3 3 4 8 6 5 1 3 3 6 5 4 5 8 16 12 20 19 17 15 14 2 7 7 3 2 5 7 9 10 19
5 6 7 7 7 8 7 6 4 1 2 1 2 2 2 4 4 5 7 6 2 2 2 5 9 4 6 10 15 17 22 20 7 5 7 7 4 13 6 5 7 8 12 17 18
5 5 6 6 7 6 7 7 0 3 3 2 2 1 1 3 4 4 5 6 2 3 3 7 4 6 6 11 10 16 15 8 4 6 8 2 10 17 11 11 9 10 12 12 15
6 6 5 5 6 6 8 5 4 3 2 7 3 2 1 2 5 4 4 3 7 6 7 5 4 1 12 5 9 9 8 4 5 6 16 23 10 6 8 10 9 11 11 16 14
4 5 5 5 6 7 9 3 1 2 5 2 1 1 4 3 3 4 4 2 4 9 4 6 2 9 15 8 13 6 7 7 10 14 9 11 15 19 14 10 13 12 16 17 20
4 5 5 5 5 6 5 6 3 6 3 2 1 1 3 4 3 5 4 5 4 9 9 6 10 9 7 14 9 7 13 6 5 5 11 14 21 17 11 13 17 20 19 22 24
3 5 3 5 5 5 3 4 5 5 4 2 1 2 2 3 4 5 3 7 4 7 12 9 6 6 16 4 16 14 15 9 10 12 7 10 11 14 30 28 23 21 23 31 29
3 1 3 4 2 4 4 5 4 3 2 2 1 0 1 4 4 4 3 4 11 11 8 9 8 14 18 14 7 5 8 14 16 12 18 30 40 24 14 12 20 28 35 29 32
0 1 2 2 3 4 4 4 4 3 3 1 1 3 4 3 3 3 4 12 10 7 7 9 5 13 12 5 6 12 18 22 22 24 32 17 26 17 29 39 33 32 35 34 32
3 3 3 2 2 4 4 2 2 2 3 4 5 5 3 3 5 4 8 9 12 13 14 14 11 14 19 24 26 30 31 31 28 31 46 40 58 47 40 38 38 37 34 29 30
7 7 6 3 5 4 4 3 3 3 5 4 5 3 3 5 10 6 6 13 14 14 13 10 18 19 27 28 28 31 35 39 36 40 41 59 46 49 43 40 36 33 31 28 39
9 9 10 9 7 5 5 4 4 5 3 5 4 6 6 8 11 16 15 14 15 11 12 14 23 21 36 32 24 28 34 40 34 36 40 43 49 35 35 33 35 29 30 44 45
13 12 12 12 11 11 9 6 6 8 11 7 7 9 12 15 15 20 24 24 25 26 26 27 34 25 25 21 22 25 16 17 22 26 32 39 41 37 31 27 26 37 44 43 44

GFSSW_700_spd_006.txt.gz
Wind_Speed
8 9 8 6 6 7 8 9 10 12 11 13 13 13 14 14 12 11 9 10 12 15 21 18 20 13 10 5 4 6 5 9 6 7 5 3 3 5 10 3 7 9 4 7 9
6 6 6 7 8 9 9 12 13 13 14 16 15 17 17 20 16 6 9 12 15 12 16 15 9 8 7 6 5 10 8 10 3 2 6 5 2 6 6 8 9 12 16 19 16
6 7 9 11 12 13 15 16 16 16 16 16 17 18 19 18 14 7 10 13 15 17 21 18 11 8 7 6 6 7 12 7 2 7 3 6 7 6 6 6 3 5 11 18 13
9 10 13 16 18 19 18 17 17 17 15 13 12 13 14 12 5 6 11 12 12 15 16 12 6 8 6 6 5 4 6 3 2 4 3 5 8 6 6 9 15 16 8 14 10
14 16 17 19 21 21 20 18 17 18 16 16 16 17 16 9 9 10 13 14 16 16 7 7 6 6 5 4 5 5 3 3 4 6 5 7 6 10 11 8 15 14 16 15 13
16 18 20 21 21 21 20 17 17 16 17 16 16 17 12 3 11 9 10 9 8 6 7 8 5 10 4 1 3 3 1 2 2 5 9 13 13 11 10 10 15 9 11 12 16
18 20 21 21 20 19 18 16 16 16 16 13 12 13 8 7 9 7 11 9 9 11 10 9 8 6 5 5 6 2 5 8 3 5 11 13 19 8 7 14 15 12 13 12 14
17 18 19 19 17 16 15 15 15 13 11 11 10 10 4 3 9 6 8 6 9 11 12 11 15 18 16 8 9 3 4 11 7 14 9 11 14 5 10 13 17 14 15 18 19
16 16 17 17 17 15 14 12 12 12 9 7 8 11 4 2 6 6 5 5 7 9 11 15 18 8 13 12 10 4 11 11 12 10 10 11 20 16 14 19 21 20 16 17 21
14 14 14 16 17 16 16 14 10 9 8 6 5 4 3 2 3 5 3 5 7 12 10 11 5 4 7 12 13 12 12 13 14 12 18 17 17 16 18 16 17 18 18 18 17
13 14 13 13 15 17 16 17 10 2 6 10 4 10 4 0 4 6 4 5 7 6 4 4 6 3 6 8 9 12 14 17 15 15 21 21 22 15 12 10 9 12 12 16 14
11 11 11 11 11 13 13 6 12 3 4 6 4 3 1 3 3 9 6 4 4 3 7 5 1 5 6 7 9 13 16 14 15 20 21 23 24 14 10 8 9 2 2 4 8
10 10 10 11 10 8 5 10 10 5 4 0 1 2 5 6 6 7 7 6 3 3 5 4 5 8 6 6 12 14 7 16 21 23 9 16 14 11 6 6 10 1 3 8 15
8 9 10 10 9 8 10 9 8 4 4 3 3 6 6 6 5 8 8 5 5 2 4 2 9 6 7 6 12 12 16 21 20 18 15 16 10 7 7 6 4 1 3 8 10
5 6 8 9 8 10 9 6 3 3 2 2 4 4 4 3 4 10 8 6 2 3 2 4 9 8 8 8 14 14 20 23 23 19 16 4 7 11 7 6 5 3 9 13 19
4 4 5 5 7 9 8 5 4 2 1 2 1 2 3 6 5 6 9 9 4 6 4 6 13 7 10 12 13 18 23 20 4 4 4 8 3 16 11 4 5 8 9 16 24
4 4 5 5 5 6 6 7 2 2 1 0 0 2 1 3 3 5 4 9 7 7 4 9 7 9 10 11 11 13 17 8 5 4 5 14 14 19 22 14 10 11 17 22 25
5 4 4 5 5 5 7 4 1 1 1 5 2 3 1 3 3 5 5 0 10 5 10 5 7 2 11 13 11 13 8 4 4 4 13 27 8 11 6 16 17 18 23 18 11
4 5 5 4 4 5 8 1 1 1 3 1 4 2 2 4 3 5 6 4 6 10 6 8 1 10 17 15 8 8 6 7 9 15 9 8 15 22 10 7 9 19 20 16 25
3 4 4 3 3 5 5 3 2 7 0 2 1 2 3 3 4 6 4 5 4 13 8 5 10 7 7 15 11 9 10 5 3 3 6 11 22 18 16 20 28 27 20 22 24
2 5 0 3 3 4 1 2 2 3 3 5 1 2 2 3 5 4 3 3 3 6 9 9 6 8 16 1 11 9 13 11 13 13 5 6 9 22 37 23 15 26 33 34 32
6 1 2 3 2 4 2 3 2 1 1 1 2 3 2 5 4 3 3 4 12 11 8 8 8 12 21 10 9 8 9 12 13 13 24 29 32 16 14 12 34 41 34 38 35
3 1 2 2 4 3 2 2 3 2 1 2 2 2 4 3 3 3 4 12 12 7 7 12 4 10 9 1 2 15 25 27 29 29 22 15 24 34 42 42 39 40 38 34 28
2 3 2 2 4 2 4 2 2 2 2 2 3 4 3 2 4 4 9 8 18 17 18 14 9 8 15 20 27 31 30 34 34 35 36 33 49 41 41 41 35 32 30 29 27
6 5 3 0 3 7 4 3 2 5 5 3 3 2 2 4 9 5 7 15 13 16 18 15 18 17 24 26 26 31 33 34 37 39 37 47 39 41 37 37 34 32 35 27 29
8 8 8 7 5 2 4 3 4 5 2 3 3 5 5 7 10 15 15 13 16 15 16 18 28 30 35 36 27 28 35 44 36 29 27 31 37 36 35 34 33 28 33 43 53
12 13 11 9 9 8 5 3 3 6 8 8 7 7 12 16 18 20 23 25 26 25 26 26 31 32 28 30 30 31 22 20 22 28 29 31 40 39 33 28 30 39 50 58 47

GFSSW_700_spd_009.txt.gz
Wind_Speed
7 8 8 7 9 9 8 10 11 12 11 13 14 13 12 13 13 13 14 15 17 21 23 24 21 21 18 14 12 16 3 17 14 15 9 7 4 4 10 4 10 14 15 12 4
6 7 8 10 10 10 12 13 14 13 14 16 16 16 17 18 16 14 12 15 16 19 21 21 21 16 6 5 12 12 13 11 8 6 4 10 0 11 13 4 12 11 13 14 11
9 9 10 11 14 15 16 17 16 16 17 18 20 20 18 16 16 14 13 16 21 23 21 18 15 10 11 6 10 6 14 5 3 6 11 9 4 3 6 5 4 3 6 14 22
9 11 14 16 18 19 20 19 19 19 19 18 18 16 15 13 10 14 14 15 15 19 18 15 13 11 4 12 9 5 6 5 4 5 1 3 6 10 10 7 15 13 18 22 26
14 16 18 20 22 22 21 20 19 19 18 18 19 16 16 13 16 15 16 19 17 12 16 12 11 12 7 2 2 2 6 10 8 15 13 8 4 1 13 9 11 8 14 15 16
17 18 20 22 23 22 21 20 19 20 21 21 19 17 15 11 15 11 6 16 13 8 10 11 14 10 6 4 2 2 5 3 5 8 12 12 16 16 4 9 12 13 15 9 12
18 19 21 22 22 21 20 19 18 18 18 16 15 14 12 8 14 13 12 9 11 11 13 11 15 12 12 10 8 9 6 6 7 10 14 17 6 3 8 10 13 19 22 20 15
19 21 21 21 20 18 17 16 15 14 14 14 13 11 9 5 8 9 10 6 11 15 15 15 16 15 11 10 9 14 9 9 10 15 12 17 11 10 10 17 19 25 26 25 21
17 19 21 20 19 17 16 15 15 14 12 11 10 9 6 2 4 6 7 5 6 16 11 10 13 13 10 13 7 5 11 10 11 4 11 13 22 17 7 11 23 26 25 22 19
16 17 18 18 18 17 17 15 13 12 12 9 4 4 1 3 3 3 5 3 8 11 9 8 8 4 4 7 10 13 13 14 11 13 17 19 23 20 5 14 16 22 11 14 12
15 14 15 16 18 20 19 17 13 7 7 6 3 3 2 0 2 7 4 3 9 9 3 1 4 3 6 7 6 6 11 15 14 17 23 21 18 11 12 14 14 11 10 11 13
14 14 14 15 17 18 15 10 11 5 5 5 3 2 1 2 2 7 6 6 3 5 5 2 10 7 8 5 11 12 12 12 19 22 16 17 16 9 13 17 16 10 4 6 9
11 12 14 14 12 10 4 10 9 6 4 4 2 1 4 4 4 7 7 5 4 3 4 5 7 10 6 5 12 14 10 18 24 25 5 16 9 5 14 17 15 9 6 5 9
8 9 10 12 11 10 11 13 9 5 4 3 6 5 8 5 7 7 9 4 5 4 1 1 6 8 4 7 12 19 13 18 20 20 16 22 7 16 13 12 14 9 10 14 16
7 8 8 8 8 8 11 9 5 5 2 3 4 2 4 6 4 9 8 6 5 5 1 2 10 11 8 13 14 15 19 22 16 14 16 15 7 7 9 13 7 6 8 12 16
7 7 7 7 6 9 9 6 6 3 1 3 3 6 5 10 8 7 10 10 3 4 8 8 12 9 16 9 9 15 20 16 4 2 3 13 12 6 15 14 6 12 11 14 17
4 5 5 5 6 8 7 8 5 3 4 2 2 3 4 5 3 8 8 11 11 6 6 7 9 10 13 17 15 12 18 9 5 2 4 17 15 9 22 8 5 9 15 20 27
4 4 3 3 5 5 8 7 4 4 3 2 5 5 1 6 3 6 6 6 7 7 7 5 2 6 13 18 14 10 11 5 2 2 10 26 3 7 21 12 13 22 21 18 24
4 4 3 3 4 6 9 6 3 3 4 2 2 3 1 6 6 7 5 4 9 12 7 9 3 7 12 15 11 8 9 10 6 11 4 7 7 24 3 13 31 19 16 23 30
4 4 4 3 5 9 8 5 2 6 3 7 4 1 5 5 1 5 4 4 6 10 9 4 12 3 6 11 7 7 9 6 4 2 4 7 14 20 19 33 22 17 29 38 31
4 5 5 5 7 7 5 4 4 1 2 6 5 3 2 2 4 3 4 4 3 11 4 7 7 7 14 4 6 6 8 10 12 7 4 3 6 15 39 22 23 32 37 37 31
6 5 3 4 5 6 5 4 2 4 4 2 3 3 4 2 3 2 2 5 12 12 8 8 8 12 14 4 4 1 11 19 15 8 22 24 29 23 14 26 33 33 27 30 33
1 5 4 5 3 3 3 4 2 3 2 2 2 1 1 2 1 2 4 9 11 14 10 14 4 8 10 3 5 11 23 29 29 31 27 14 20 32 38 34 33 27 31 36 38
2 3 4 4 6 5 4 3 3 1 0 0 1 3 1 5 1 2 3 7 13 15 17 17 13 8 11 18 20 25 33 34 29 25 32 31 43 39 32 27 29 36 38 39 44
5 3 5 8 9 9 7 6 4 2 4 2 5 3 3 2 5 3 5 13 15 14 11 15 21 22 26 24 26 29 33 38 36 40 36 42 31 32 29 32 32 32 37 45 46
5 4 7 5 6 6 5 7 6 7 4 1 2 3 5 4 8 13 16 18 21 21 17 16 21 24 31 32 29 25 42 39 20 14 30 35 39 28 31 36 36 36 36 45 46
9 10 8 7 8 7 3 3 5 9 7 8 10 13 13 16 21 18 20 22 24 23 22 23 23 23 30 29 26 24 18 20 27 31 26 30 28 28 31 27 30 33 42 54 51

GFSSW_700_spd_012.txt.gz
Wind_Speed
12 13 12 13 11 10 10 12 14 13 13 12 12 11 12 13 15 16 17 22 27 25 23 21 17 15 16 18 16 8 13 19 15 12 10 4 5 3 10 6 7 9 6 6 4
10 11 11 11 12 13 15 17 17 16 15 15 14 14 14 16 17 19 18 18 21 23 21 19 18 16 11 11 11 12 11 7 7 5 5 5 1 4 6 5 8 8 7 6 8
10 11 12 13 15 17 20 20 18 18 18 17 18 18 18 19 18 22 24 24 24 21 19 15 12 14 9 4 5 4 0 2 3 7 11 9 6 5 5 4 10 9 12 15 18
10 13 15 17 19 22 23 21 20 21 22 20 18 17 17 16 12 18 19 22 25 23 22 19 14 10 8 7 6 2 2 7 12 10 4 1 5 8 10 11 11 14 17 19 17
14 16 20 22 24 24 23 22 22 22 21 18 18 18 18 19 20 15 13 17 18 21 24 19 11 10 10 4 2 7 8 7 9 14 18 10 9 9 5 4 7 7 16 16 15
19 21 24 25 25 24 22 21 21 21 20 20 19 20 19 17 18 16 13 12 14 12 14 14 11 8 5 2 3 2 1 5 5 8 12 14 10 6 8 8 8 7 13 15 17
21 23 25 25 24 22 21 19 20 21 20 18 16 16 16 12 15 15 15 16 13 15 16 13 11 11 10 7 5 6 8 6 6 5 7 9 7 2 11 12 12 9 13 16 15
22 22 23 23 21 20 20 20 20 18 16 16 15 14 10 9 9 12 15 14 14 18 17 14 9 8 8 4 1 5 7 8 15 6 7 13 19 20 12 11 11 14 19 20 14
19 21 22 22 20 19 18 18 18 17 15 13 12 10 10 8 6 8 11 12 15 16 13 10 7 5 7 7 5 5 5 11 9 6 7 11 24 23 14 14 13 17 19 18 12
16 18 20 21 21 20 19 18 17 15 13 10 8 6 7 5 6 5 7 7 12 10 11 4 2 5 7 8 6 10 10 8 7 11 18 20 24 17 4 12 9 10 14 12 15
16 16 17 19 20 22 22 20 16 12 9 6 4 5 5 2 2 3 6 5 5 6 5 1 4 4 5 5 3 8 10 11 10 13 21 13 16 8 11 12 10 15 16 10 14
15 15 17 18 19 18 15 14 11 9 5 5 5 4 3 3 4 7 4 1 2 3 0 5 7 5 5 5 6 11 14 11 15 17 17 13 15 10 6 7 10 13 12 9 10
14 15 16 16 16 15 9 11 10 10 8 6 4 2 4 2 2 5 4 2 6 1 2 4 1 5 7 8 10 12 16 16 19 20 4 17 5 12 6 10 13 15 10 9 9
11 13 14 14 13 10 8 12 10 8 5 4 5 5 7 4 4 8 7 2 1 2 3 2 5 9 5 12 14 16 13 15 18 13 6 15 4 7 8 12 13 10 13 15 13
9 9 10 11 9 9 11 11 7 6 3 3 5 4 5 11 6 7 8 5 3 1 2 1 5 12 7 9 9 18 21 19 13 8 3 20 4 6 8 15 14 10 13 15 17
8 8 8 9 10 11 11 8 7 4 2 2 3 3 3 8 9 4 8 8 5 2 4 8 7 7 11 9 16 14 19 10 2 2 2 8 19 6 16 9 10 6 8 14 16
7 8 8 8 9 10 10 10 6 4 5 3 3 2 2 6 6 5 9 8 10 4 7 6 2 4 10 17 9 17 19 9 4 4 3 11 14 8 9 14 11 12 12 12 14
6 7 7 7 9 9 10 10 3 7 6 3 3 5 4 4 7 4 5 8 8 9 6 5 4 7 10 15 12 14 15 5 1 1 9 16 2 4 3 4 25 12 8 21 26
5 6 7 8 9 10 12 5 5 8 4 4 5 3 3 4 3 2 6 7 10 13 7 7 3 9 13 10 7 6 12 6 3 5 2 7 4 15 14 17 29 23 21 28 26
7 6 7 8 10 11 11 7 4 5 3 7 5 4 5 2 1 2 4 5 9 10 11 6 9 5 7 5 4 5 8 3 6 2 3 7 12 16 20 22 38 19 33 35 36
8 8 9 10 11 11 9 6 4 4 6 7 6 3 2 1 1 3 1 3 3 11 9 9 5 6 7 3 2 4 2 5 5 5 4 2 9 22 35 23 29 31 30 32 32
9 10 10 11 10 7 5 6 7 7 6 4 4 4 4 1 4 2 2 4 9 12 10 7 7 11 8 5 5 2 7 18 7 7 19 21 27 10 6 28 29 30 27 24 28
5 8 9 9 7 7 6 5 5 4 4 5 5 3 3 3 2 3 4 6 8 11 12 11 5 8 4 6 3 9 18 24 24 13 16 8 13 25 24 22 24 18 22 32 34
7 7 8 7 7 7 8 8 6 5 3 2 2 2 3 3 2 3 6 5 9 15 15 13 10 10 10 11 15 23 27 26 26 22 25 35 40 32 31 19 17 26 31 34 36
7 8 10 10 8 7 5 5 1 3 4 2 2 2 3 4 7 9 9 10 14 16 13 16 16 17 21 19 20 29 31 29 31 28 27 33 29 33 33 28 29 34 35 39 44
7 7 8 10 9 10 8 8 6 4 5 5 7 6 8 10 11 13 17 18 21 18 17 18 20 19 27 25 21 30 28 17 17 18 28 30 38 31 31 34 31 36 40 46 52
8 7 8 9 9 9 9 11 11 10 8 9 10 13 12 14 17 18 18 18 18 20 20 23 19 11 11 18 21 25 9 17 23 27 27 25 33 36 35 33 39 45 49 53 51

GFSSW_700_spd_015.txt.gz
Wind_Speed
14 15 15 14 14 13 12 12 13 14 12 13 12 13 15 16 18 20 22 20 18 16 17 19 17 13 13 18 13 14 18 13 11 6 7 5 3 1 5 7 3 4 5 7 8
13 13 13 14 13 14 14 16 17 15 15 15 14 15 16 17 19 20 21 19 17 17 16 16 14 11 15 16 14 17 14 10 9 5 4 3 1 5 6 4 4 4 5 9 11
12 13 13 14 15 17 18 20 19 19 17 16 15 16 18 19 18 21 20 20 19 19 15 15 13 10 12 9 10 8 4 2 3 2 6 7 8 12 13 7 7 7 9 12 13
12 13 15 16 17 19 21 21 20 19 17 17 15 16 20 20 14 20 21 19 19 15 14 15 9 9 7 7 5 6 13 15 11 10 5 6 5 4 4 4 5 10 14 17 16
14 15 17 19 21 24 23 22 22 21 19 17 16 18 19 15 19 16 17 17 16 16 12 15 8 6 7 10 11 11 8 8 6 5 8 9 5 6 4 5 5 6 9 9 12
16 18 21 23 25 25 24 23 22 20 18 19 18 18 16 15 15 13 12 11 11 13 12 11 12 10 9 9 7 3 3 3 4 4 6 8 6 1 6 11 8 5 5 8 11
21 22 25 27 26 24 23 22 21 18 19 19 19 19 16 14 14 14 13 15 14 13 14 16 12 8 8 7 5 2 3 5 7 5 7 11 6 5 13 13 9 7 8 10 10
23 25 25 24 23 22 21 20 19 19 19 18 16 14 13 11 11 13 15 15 17 16 18 14 11 6 3 3 4 3 3 7 6 2 3 12 10 13 13 12 10 11 9 10 12
24 24 24 23 22 21 21 21 19 17 16 15 14 14 11 13 12 12 12 13 15 13 12 10 8 6 6 6 1 3 3 9 3 4 4 12 26 22 20 18 15 10 11 12 13
22 22 22 22 22 21 20 19 18 16 13 12 9 8 8 9 8 8 9 13 14 10 9 7 2 4 7 8 3 7 12 12 10 11 16 18 19 12 10 12 7 4 6 7 12
18 19 19 20 20 21 21 19 16 13 10 6 6 7 5 5 5 3 6 10 10 10 11 5 3 4 6 9 7 8 13 16 9 12 21 13 15 7 11 9 5 6 10 9 6
17 17 18 18 19 18 16 17 14 12 8 9 8 6 5 4 4 3 2 4 7 5 4 2 2 3 7 9 7 9 13 16 12 15 14 10 5 9 6 1 4 8 9 6 5
15 16 17 17 16 16 15 13 12 11 10 9 7 6 5 3 4 4 2 1 3 2 1 1 2 4 7 7 9 10 10 13 17 18 4 13 3 11 8 3 6 7 3 3 5
14 14 15 15 15 14 10 11 11 12 5 5 5 4 6 3 5 6 4 2 1 1 1 2 4 8 3 8 12 12 15 18 15 13 3 10 2 11 3 6 9 9 8 8 11
11 12 12 13 12 11 11 11 9 9 4 3 7 5 8 10 3 6 7 4 4 2 1 1 2 6 7 10 14 17 16 16 13 7 4 8 3 8 4 7 9 10 7 11 15
10 11 12 12 11 11 13 9 8 4 3 4 4 3 7 9 6 5 7 6 4 3 1 2 1 3 6 11 9 13 13 5 2 3 2 2 12 9 10 14 5 4 8 11 14
10 11 12 12 12 13 11 9 4 3 8 4 5 2 6 7 4 6 8 6 7 0 4 2 1 3 7 13 4 12 11 4 2 2 4 6 7 7 14 14 15 5 6 11 13
9 10 10 10 12 13 12 10 3 9 7 6 3 5 6 4 5 5 8 9 9 9 5 4 2 5 8 11 9 10 12 4 3 1 7 13 3 8 12 8 20 13 12 17 23
9 8 9 10 12 13 14 6 5 11 7 7 6 4 4 3 1 3 8 8 11 12 9 7 3 7 6 8 4 3 6 5 1 3 3 8 3 7 19 17 23 32 31 26 25
9 9 8 11 12 13 13 6 7 8 6 7 8 5 6 3 2 1 3 5 7 11 10 7 6 4 11 2 2 2 2 1 5 2 3 7 15 16 16 24 32 34 31 33 32
9 10 10 12 12 12 9 7 7 7 8 7 7 5 6 4 3 2 1 3 3 10 9 8 5 5 4 4 8 5 5 3 1 1 3 3 9 15 24 25 27 29 33 32 29
10 11 12 12 11 9 8 8 8 8 8 7 8 6 4 4 4 2 2 2 8 9 10 8 4 9 6 0 4 4 4 9 5 4 12 13 18 3 2 24 27 28 31 28 29
8 10 12 12 8 10 10 10 8 8 7 6 7 6 5 4 3 3 4 5 7 7 11 11 5 6 2 4 7 9 16 16 19 17 14 9 10 10 28 29 33 27 23 27 31
9 10 11 9 9 8 9 10 9 8 7 5 5 3 3 3 3 3 6 7 8 11 16 14 10 10 10 11 18 26 25 24 24 20 21 31 38 30 29 36 29 23 29 33 38
8 10 11 12 11 11 10 10 8 7 6 6 5 5 3 3 5 8 9 9 13 17 14 12 18 21 21 19 22 28 30 26 28 26 23 28 30 35 33 32 31 33 37 39 43
10 10 11 10 9 10 8 9 7 7 6 6 6 6 7 8 9 10 12 15 15 13 12 18 19 20 29 18 15 28 31 15 15 18 23 31 32 30 34 33 32 37 41 49 52
9 10 11 12 12 11 12 11 9 9 9 9 9 10 11 12 13 15 15 15 16 17 18 21 18 7 11 19 20 21 3 17 17 24 30 23 28 33 29 35 45 48 50 50 49

GFSSW_700_spd_018.txt.gz
Wind_Speed
16 18 18 17 15 14 12 11 12 13 13 14 15 16 16 18 17 18 18 15 14 14 18 18 16 15 16 14 15 16 16 11 9 7 7 3 1 5 7 5 3 3 3 3 4
14 15 15 16 14 12 12 14 16 15 16 16 16 18 18 19 18 17 16 15 13 12 16 16 14 13 17 15 13 14 10 7 5 3 1 1 3 8 8 5 4 4 5 6 6
12 13 15 14 13 13 15 18 18 18 17 17 18 18 19 20 18 17 17 16 14 13 15 12 10 12 13 12 13 12 6 7 4 1 3 4 8 10 9 4 11 15 18 17 13
11 13 14 15 15 17 19 20 20 19 17 17 17 18 18 19 13 16 15 15 13 11 11 11 8 4 6 10 8 16 16 12 11 8 8 5 4 4 6 6 10 10 10 12 13
12 14 15 16 19 21 22 22 21 19 16 15 17 19 18 12 14 16 14 13 11 8 6 7 4 2 3 9 16 14 10 7 5 4 3 4 3 3 4 6 2 4 5 6 9
13 16 18 20 22 23 23 22 20 18 16 15 15 17 12 11 14 13 10 9 8 8 6 6 7 9 11 12 9 7 6 3 0 3 3 3 1 2 3 12 7 1 2 4 4
17 20 22 23 24 23 23 21 19 17 17 15 17 17 16 12 12 11 10 10 9 10 8 11 13 9 10 9 7 6 5 1 2 2 4 5 3 2 8 12 8 4 2 2 4
21 22 23 23 23 22 21 20 17 16 16 16 16 14 12 10 9 11 12 11 10 10 11 12 9 6 6 4 2 3 1 3 4 4 5 10 8 8 15 16 13 11 6 4 3
22 23 24 23 22 21 20 18 16 16 14 14 13 12 10 11 11 12 12 13 12 14 13 10 6 3 6 4 2 2 3 7 3 3 6 12 21 15 13 14 10 6 5 9 8
22 22 23 22 21 20 20 20 18 14 14 14 10 8 8 8 7 7 8 11 12 9 6 5 3 1 3 6 3 5 8 10 11 11 12 16 15 13 11 9 1 3 3 6 7
20 21 21 22 21 21 22 18 18 15 13 7 9 8 8 6 5 4 6 10 11 8 7 5 2 3 6 8 7 7 10 13 13 10 18 13 11 7 4 5 3 2 3 3 3
18 18 19 19 19 18 17 16 14 13 11 10 10 8 7 5 4 3 4 7 8 8 7 3 1 3 5 6 6 8 11 12 8 12 15 8 5 7 7 5 1 4 6 2 1
16 16 16 15 15 14 15 13 11 10 11 11 9 8 5 4 5 4 2 3 3 2 1 3 4 4 3 4 6 9 7 13 15 14 6 10 2 3 3 3 5 6 5 4 3
14 14 14 14 15 14 13 10 11 12 6 6 5 7 5 3 5 7 5 2 1 2 6 5 3 5 3 7 11 11 13 14 12 10 1 9 3 9 2 2 5 5 3 4 7
13 14 14 15 14 12 12 9 10 8 4 4 8 7 8 4 3 6 6 4 3 3 2 3 1 2 5 8 12 10 14 16 11 5 3 2 2 6 5 1 1 2 3 5 10
11 12 14 14 13 11 12 11 10 5 4 4 5 6 5 7 7 8 6 3 3 2 2 1 3 3 4 9 12 12 12 6 2 3 1 1 9 5 4 11 7 4 4 9 12
11 12 14 13 12 13 14 10 5 3 9 6 6 7 5 6 5 7 8 3 3 1 3 2 2 3 6 10 5 10 8 2 1 3 3 3 5 6 11 8 3 5 9 14 17
11 11 12 12 12 15 12 10 3 10 7 8 7 6 4 3 6 7 7 9 10 7 3 4 2 3 7 9 8 8 9 4 2 1 6 9 5 9 13 12 8 14 23 29 28
10 10 10 11 13 14 12 5 4 11 10 8 9 5 3 1 1 4 8 9 9 13 7 6 2 3 6 8 5 3 4 3 1 2 3 6 3 8 19 19 20 28 33 31 28
10 10 10 12 13 14 14 6 9 10 10 8 7 4 5 3 1 3 4 5 6 12 11 8 4 2 9 1 2 3 1 1 3 2 3 7 12 8 17 19 26 29 29 30 28
11 11 11 12 12 13 11 7 11 10 8 8 7 5 5 3 2 1 1 3 4 9 8 8 4 3 7 4 7 5 4 0 1 2 3 2 6 10 17 27 23 27 30 34 31
11 10 12 12 12 11 9 9 9 9 8 7 6 5 4 3 3 2 1 1 5 7 10 9 6 8 11 6 5 3 3 2 2 2 6 7 19 16 8 15 31 31 34 31 28
9 9 12 12 10 11 10 10 9 9 8 7 6 5 4 4 2 3 3 3 6 8 11 14 6 8 7 4 3 5 7 18 15 11 11 8 13 10 14 30 29 28 28 28 30
10 10 12 11 8 9 12 12 10 9 7 7 6 6 5 3 2 2 4 5 8 11 14 15 6 7 8 15 20 26 24 25 24 17 19 31 36 29 25 26 29 29 29 32 38
9 8 12 12 11 11 12 11 10 10 8 7 5 4 2 2 3 5 6 8 11 16 14 10 13 17 19 17 20 24 25 23 24 28 23 29 26 28 28 28 30 28 37 42 41
10 7 11 11 11 12 11 11 10 8 6 6 4 4 4 4 6 8 10 11 11 13 13 17 15 20 26 12 16 29 28 19 10 17 23 22 35 31 27 30 28 37 49 49 49
9 10 10 11 13 13 12 10 9 8 7 7 5 5 6 7 8 12 12 10 15 17 16 17 16 14 14 17 22 21 2 13 23 25 28 33 30 28 32 35 33 46 53 48 49

GFSSW_700_spd_021.txt.gz
Wind_Speed
19 17 17 17 15 13 12 11 11 12 13 14 15 15 16 15 14 13 13 12 13 18 17 15 14 14 16 17 21 16 18 16 13 9 10 8 6 6 7 5 5 4 5 5 4
16 15 15 15 14 12 12 12 14 15 16 17 17 18 19 16 14 15 15 12 13 17 16 15 16 17 15 14 17 13 13 10 9 8 6 5 2 6 7 6 7 7 7 6 5
14 14 13 14 13 13 15 16 17 18 18 17 18 19 20 17 15 14 14 13 14 15 13 12 12 14 15 15 14 12 9 8 6 5 4 2 3 7 7 11 14 14 13 13 11
12 13 14 14 15 16 17 18 19 19 18 18 18 18 17 15 10 12 13 12 14 14 10 9 9 7 10 12 10 17 15 12 13 11 8 7 7 8 10 12 11 11 11 10 11
12 14 15 16 18 19 20 20 21 19 18 17 18 18 16 14 8 14 13 11 11 11 9 8 4 3 5 17 18 15 11 9 8 7 5 3 4 8 9 5 3 5 4 5 7
12 14 17 18 20 21 23 22 21 17 15 16 18 17 16 9 12 15 13 11 8 7 6 6 4 5 15 17 13 10 7 4 2 2 2 2 4 3 2 5 5 7 4 2 1
14 16 19 21 23 24 23 22 19 16 15 18 17 17 14 9 12 11 11 11 8 7 6 9 8 9 12 11 10 8 5 3 0 2 4 3 6 3 4 9 7 5 8 6 4
19 21 22 24 25 24 23 20 16 16 16 15 14 13 11 10 8 7 7 7 6 6 8 10 8 7 6 6 5 5 3 0 1 1 3 6 7 6 15 13 11 11 10 9 7
21 23 24 24 23 22 21 18 15 14 14 14 12 10 8 8 7 7 8 7 7 9 9 7 6 1 4 4 3 2 1 2 1 4 6 9 10 13 15 10 3 6 7 7 8
22 23 23 22 22 22 20 16 15 13 13 13 11 9 9 8 7 7 8 9 7 9 7 5 4 3 4 2 3 0 1 4 6 6 7 9 7 8 6 1 6 5 5 4 8
21 21 21 21 21 20 19 19 17 15 12 10 11 11 9 8 6 6 7 9 9 7 5 3 2 2 1 3 2 3 5 8 8 4 9 6 5 2 4 5 4 4 3 4 7
18 19 19 19 19 19 19 17 15 16 15 14 12 10 8 7 5 4 3 6 8 6 4 5 2 1 2 3 4 6 6 6 3 8 8 3 0 5 8 7 5 3 1 4 5
17 16 16 16 17 18 16 17 15 13 15 15 12 9 7 7 6 5 3 3 5 3 2 5 4 2 2 2 3 7 5 10 11 9 4 3 5 3 5 6 5 3 2 3 3
16 15 16 16 17 18 18 14 15 14 7 7 6 8 4 6 8 8 5 3 5 5 7 4 3 1 2 5 7 7 9 12 11 7 3 1 5 6 3 3 2 3 3 4 3
16 15 16 17 17 15 15 14 15 8 4 6 9 5 7 3 4 7 6 5 4 5 3 4 3 2 4 6 9 6 14 13 8 5 6 2 3 4 4 6 7 8 9 4 6
15 16 17 17 16 14 14 12 12 4 4 5 6 5 5 7 7 8 5 4 4 5 4 2 3 2 4 7 11 10 11 5 1 4 2 3 3 2 6 8 8 6 5 6 10
14 15 15 16 14 13 14 12 7 3 12 8 9 6 6 7 7 7 6 2 2 2 1 1 2 3 6 8 6 10 7 1 1 1 1 2 4 5 11 11 7 4 5 12 18
14 15 15 14 13 16 15 13 3 12 9 11 11 7 3 5 7 7 7 9 8 5 3 2 2 2 5 7 7 7 8 3 2 1 4 7 5 7 15 13 5 10 16 23 23
13 13 13 13 15 16 14 5 4 13 14 13 12 8 5 4 3 3 7 8 9 10 4 4 0 0 6 6 4 3 3 3 2 3 3 4 4 9 19 20 15 19 23 23 23
12 12 12 13 15 15 13 6 12 13 14 12 7 6 6 5 2 2 3 5 5 9 7 7 1 1 7 2 3 3 2 2 3 1 2 7 7 7 13 22 17 24 24 28 30
12 12 13 14 15 15 13 7 15 14 12 11 8 6 6 4 2 2 4 2 4 7 8 8 4 2 5 4 6 5 3 1 1 0 1 3 7 9 12 21 18 25 32 30 27
12 10 13 14 15 14 11 11 12 12 10 8 8 6 5 5 3 3 2 1 3 5 6 10 5 5 9 4 2 1 3 2 1 2 5 7 16 7 9 13 20 32 31 28 27
11 10 13 14 13 15 13 12 12 12 10 8 8 7 7 5 3 3 2 1 4 6 9 12 6 7 1 1 2 3 6 12 12 8 13 5 12 13 24 28 28 30 27 27 24
10 11 15 14 10 11 12 12 12 11 9 8 7 7 6 5 4 3 2 3 6 8 11 12 6 7 8 12 17 22 20 18 15 11 14 28 33 26 20 24 30 27 28 27 31
12 9 14 15 12 12 13 12 11 11 8 9 8 5 6 5 3 4 3 4 7 11 10 12 11 15 14 15 19 23 20 20 24 26 20 27 29 25 26 28 27 30 31 37 39
10 6 12 10 13 13 12 12 11 10 9 9 6 7 5 4 4 4 4 6 5 9 12 16 11 17 21 15 14 26 29 25 13 11 20 21 28 26 29 28 31 35 36 40 46
11 8 10 11 13 13 13 13 12 10 8 8 6 6 6 5 5 5 7 5 9 12 13 15 13 14 14 13 18 23 3 7 21 26 25 24 29 28 28 32 35 39 43 50 52

GFSSW_700_spd_024.txt.gz
Wind_Speed
18 18 18 18 16 13 12 13 13 13 11 12 13 14 16 14 12 13 11 16 22 18 16 15 18 20 20 18 17 14 13 14 13 11 11 11 7 5 6 5 4 6 8 9 10
16 16 17 16 14 13 13 13 13 14 14 15 16 19 17 14 13 14 13 17 19 18 14 13 13 15 16 15 16 9 11 9 10 11 10 8 6 3 6 6 6 6 6 7 8
14 15 14 14 15 14 15 15 15 17 17 18 19 19 15 14 14 14 13 18 17 16 13 11 12 13 14 18 15 11 10 11 10 10 9 7 7 7 6 7 7 6 9 7 7
14 13 14 16 17 17 17 17 18 18 18 19 19 18 14 15 7 14 14 15 15 14 13 11 12 14 16 15 11 12 11 12 13 11 9 7 8 7 9 7 11 11 9 9 7
12 13 16 17 19 18 18 20 20 19 19 19 18 17 14 13 10 18 15 16 15 13 10 9 9 10 8 15 14 12 13 13 10 9 8 7 7 9 10 10 8 7 7 5 4
13 14 16 18 19 21 22 23 20 19 18 18 17 17 15 8 10 17 15 14 11 9 8 8 8 6 10 19 11 12 9 6 5 5 4 5 8 8 8 5 3 10 8 6 4
14 17 19 21 23 24 24 22 20 17 16 16 16 15 15 10 12 14 12 11 9 7 5 6 7 13 15 13 11 9 8 4 4 4 6 5 6 7 9 6 6 7 13 11 9
17 19 21 23 25 25 24 21 17 16 14 15 14 13 10 6 10 9 11 9 9 9 10 10 10 11 11 10 10 8 5 4 3 4 2 2 6 5 13 12 13 14 14 14 13
21 22 24 26 26 25 23 19 15 14 15 14 14 11 8 7 7 8 9 9 9 10 10 9 8 7 8 8 6 4 3 2 1 5 3 1 3 10 17 15 10 14 16 16 16
23 25 26 25 26 25 21 17 15 15 15 13 11 7 8 8 7 7 8 9 10 10 8 5 4 4 4 3 3 4 4 2 1 5 3 2 3 8 7 5 7 8 12 13 15
24 25 25 25 25 23 20 19 18 16 15 9 10 10 10 9 8 7 8 10 8 8 6 6 4 5 3 4 5 4 1 2 3 3 2 1 2 1 8 10 8 8 10 11 11
21 22 22 23 23 21 19 19 18 19 17 15 14 12 9 8 9 8 9 10 10 8 8 4 3 4 2 2 1 1 2 1 3 4 2 0 4 6 8 8 8 8 6 5 8
19 20 21 22 21 20 20 18 18 16 15 14 12 12 10 8 5 7 8 9 10 8 7 7 6 4 3 1 2 4 1 3 5 7 4 6 4 5 8 8 8 7 7 7 8
19 19 19 20 21 20 22 19 17 17 7 8 6 6 7 9 8 8 7 7 9 9 11 6 6 4 1 2 3 3 6 10 9 4 5 9 6 4 6 7 7 8 8 9 8
18 18 19 20 19 20 20 20 19 9 3 7 8 7 7 5 8 6 6 7 7 8 4 4 5 1 1 4 6 4 11 11 8 5 5 7 7 3 8 5 4 11 10 8 7
19 19 19 19 20 19 18 19 15 3 3 6 8 8 7 8 8 8 6 6 7 6 5 4 3 2 3 6 9 8 9 8 1 3 6 6 4 9 7 5 2 9 9 9 9
19 19 20 21 19 20 17 16 7 3 12 9 11 10 7 9 9 8 6 4 4 4 2 2 1 3 5 5 6 8 5 3 3 5 1 6 5 2 8 10 11 11 10 11 13
19 19 20 21 19 17 17 16 4 9 9 14 14 11 7 10 8 7 8 8 6 4 4 2 1 1 4 5 4 5 5 3 3 2 1 4 5 5 12 15 15 14 15 16 19
19 20 20 19 18 19 19 8 5 12 15 17 13 6 6 5 5 5 7 9 8 7 3 3 1 2 5 6 4 4 2 2 1 3 4 3 2 5 14 18 17 16 18 21 24
18 18 18 18 20 20 18 8 10 13 17 16 6 7 6 7 5 4 4 4 6 7 6 4 1 3 5 5 4 1 3 2 2 3 4 2 6 9 9 15 19 22 23 23 27
19 18 18 18 20 18 13 8 16 18 15 14 7 9 9 9 6 5 5 5 4 4 5 5 2 3 4 3 5 4 2 2 1 1 3 4 6 9 6 10 16 22 24 32 31
17 14 18 19 20 18 15 13 16 17 14 10 10 8 11 9 7 6 6 5 2 3 4 6 1 2 4 6 3 4 4 3 3 3 5 7 15 13 6 13 19 27 31 29 31
15 14 18 19 14 18 15 15 17 16 13 11 11 10 9 10 5 7 6 4 1 2 4 8 3 3 1 2 4 4 6 10 11 11 13 7 7 12 19 24 19 24 29 30 30
14 13 17 18 13 15 16 16 16 14 12 11 9 10 10 9 7 8 6 4 3 3 5 5 4 3 6 9 12 13 13 12 11 10 11 23 24 21 19 19 21 26 27 27 31
14 12 17 19 15 15 15 14 15 15 11 12 11 10 10 9 8 6 5 5 4 5 5 6 6 11 11 13 18 18 18 16 20 23 20 23 22 21 20 22 24 26 28 33 34
14 12 15 12 16 15 15 16 15 13 13 13 10 11 10 8 7 5 5 5 7 6 7 8 8 14 17 17 18 24 30 22 19 17 21 22 25 19 24 28 28 29 31 34 40
13 10 14 13 16 17 16 16 15 12 11 11 9 9 8 7 5 4 5 6 8 9 10 11 8 10 9 15 26 14 4 1 12 18 13 17 16 23 21 23 25 32 34 41 50

GFSSW_700_spd_027.txt.gz
Wind_Speed
21 20 20 19 18 16 16 15 14 13 13 11 11 12 10 9 9 7 2 17 15 13 13 15 17 18 18 13 12 10 12 12 9 9 7 8 5 5 6 3 6 6 8 10 11
19 18 18 18 17 17 16 15 14 14 13 13 15 14 12 12 12 3 11 19 15 12 11 12 15 15 11 9 8 3 7 9 7 6 9 8 5 5 6 5 5 7 9 11 12
15 15 16 16 17 17 16 15 14 13 15 15 16 15 13 15 12 2 13 16 15 10 11 12 13 9 10 9 6 1 6 6 7 8 7 6 6 6 7 5 6 6 7 11 9
13 13 14 16 18 17 16 15 15 15 16 17 17 16 16 15 5 7 12 16 13 10 13 11 8 9 9 7 6 4 7 7 8 9 7 6 6 5 6 8 8 7 8 10 6
12 13 16 18 19 18 17 16 17 17 17 17 17 17 18 5 6 14 14 16 12 10 5 6 8 7 6 6 7 8 9 9 8 7 7 8 5 5 8 5 6 7 8 9 9
12 14 17 19 19 18 18 20 19 18 16 17 17 16 15 6 10 14 15 15 7 5 4 4 5 3 7 12 7 10 8 7 6 6 4 6 6 7 8 6 7 9 8 9 9
13 15 17 19 20 20 21 20 19 16 16 16 15 14 6 10 12 15 13 13 11 9 3 10 7 7 11 9 9 10 7 5 6 6 4 4 9 8 8 6 6 7 11 11 10
14 17 18 20 22 24 22 20 16 14 15 13 12 11 5 5 9 13 13 9 9 8 8 9 12 12 9 8 9 9 8 10 5 5 7 6 12 11 7 9 7 10 11 14 13
17 19 21 23 25 25 22 18 16 14 13 13 11 9 3 7 8 11 12 8 11 10 9 8 10 7 7 7 7 8 11 4 5 6 4 5 2 3 11 14 14 13 14 13 13
22 23 24 27 26 25 21 18 16 15 14 10 10 5 6 6 9 12 12 13 9 11 7 5 4 4 6 9 11 7 6 5 3 2 4 6 6 6 5 3 5 10 13 14 13
24 26 26 27 26 24 21 19 17 15 13 7 9 6 7 8 9 11 13 13 11 7 6 5 8 3 3 2 3 1 3 4 3 5 2 5 4 2 4 4 6 7 7 8 13
25 25 26 27 25 23 22 13 15 14 10 9 9 10 10 13 6 8 13 5 7 6 6 3 4 3 2 2 1 2 4 3 4 4 2 4 6 4 6 9 9 11 11 9 12
23 24 25 26 24 21 21 21 17 16 9 10 11 7 10 10 8 10 11 6 5 6 5 3 5 5 2 1 2 4 3 4 6 7 9 9 11 8 7 8 10 10 9 8 8
22 23 23 23 20 20 20 19 17 15 7 5 3 3 6 9 3 7 10 9 4 6 7 4 6 3 1 2 3 6 4 8 9 9 12 13 9 14 11 9 7 6 5 5 5
21 22 23 24 21 20 21 22 19 9 4 6 3 6 9 4 7 3 7 5 5 6 6 4 3 1 2 4 3 5 10 9 9 11 13 13 13 16 15 10 6 3 3 10 11
21 22 23 22 23 22 20 20 15 0 3 5 5 7 8 6 5 8 6 7 8 5 5 5 4 1 2 5 6 7 8 10 7 7 9 10 9 17 15 11 8 3 5 14 14
21 22 22 22 23 22 19 19 5 4 7 6 8 8 7 6 8 8 6 5 4 6 4 3 1 2 3 6 5 8 8 8 5 5 4 3 7 1 7 9 9 5 5 14 15
21 21 22 21 22 21 19 12 7 4 7 9 11 11 6 7 6 5 7 6 4 3 3 4 6 2 4 3 4 5 4 3 5 4 7 4 7 5 8 6 10 7 11 16 18
21 21 22 22 20 21 18 12 3 6 9 13 13 8 6 5 6 5 8 5 4 4 2 1 2 1 2 4 3 5 3 3 5 4 5 12 3 8 8 7 5 6 7 12 21
22 21 22 22 20 21 11 10 5 12 13 14 8 8 7 7 5 6 4 5 4 5 6 1 2 2 5 6 5 3 4 4 1 3 4 5 9 11 10 9 8 7 9 12 18
21 16 21 20 20 19 11 8 11 15 17 11 7 7 8 7 6 5 4 5 4 2 5 3 1 1 4 2 4 5 4 5 6 4 4 5 6 4 4 9 12 13 14 14 15
21 9 21 21 17 13 10 8 13 17 16 12 8 8 8 8 6 4 6 5 4 3 1 4 1 2 3 5 4 3 5 5 7 8 7 9 15 8 2 6 12 15 14 17 17
11 12 21 22 13 15 15 12 14 16 11 9 10 9 9 9 4 6 6 6 3 3 2 1 1 4 3 1 3 3 6 7 8 9 15 13 12 7 10 13 12 13 15 17 16
10 11 18 23 14 14 14 13 17 18 15 13 10 10 10 7 5 8 6 6 5 4 2 1 1 2 6 9 11 13 14 14 15 17 18 19 22 21 18 18 16 18 18 18 18
13 11 16 19 15 13 13 13 13 16 15 12 11 8 9 7 7 6 6 5 6 6 5 2 3 5 8 12 14 17 18 19 21 23 24 27 26 22 24 18 18 18 17 20 22
13 13 18 13 16 14 15 13 14 12 11 13 9 12 9 6 5 8 6 5 4 7 4 6 4 11 14 8 15 22 20 17 20 17 16 19 21 18 14 20 21 23 23 25 31
16 15 18 14 18 14 14 14 14 13 14 10 12 11 12 9 9 8 10 9 7 4 5 8 7 8 6 15 23 11 2 10 9 10 16 16 16 18 19 17 20 25 30 37 44

GFSSW_700_spd_030.txt.gz
Wind_Speed
25 23 22 20 19 17 17 15 14 13 13 11 10 10 7 6 7 7 1 7 12 10 9 11 15 18 17 3 2 5 5 12 9 12 8 7 5 7 7 1 6 5 4 10 9
23 22 21 20 19 18 17 15 13 13 12 11 12 10 10 12 9 6 6 14 9 7 9 12 13 14 6 4 2 3 10 13 9 8 9 8 5 5 9 4 5 6 6 8 11
21 18 17 17 18 18 16 14 13 13 12 13 13 12 16 15 10 4 11 11 8 6 11 10 7 9 6 6 4 8 13 10 8 7 7 8 5 6 5 5 3 5 9 4 8
18 15 16 16 16 17 15 14 13 13 13 14 15 16 19 10 6 4 16 11 10 10 14 10 11 5 8 8 4 2 7 9 9 12 8 6 5 5 3 11 8 7 8 9 5
15 14 15 16 16 16 16 15 14 15 15 16 17 19 17 10 2 10 15 11 8 13 9 3 5 5 8 6 4 5 7 8 8 10 6 8 5 2 4 8 8 6 7 9 8
13 13 16 16 17 17 16 15 16 16 16 17 18 18 11 4 6 9 17 13 4 1 2 4 2 3 5 8 6 8 8 9 7 5 4 9 4 10 8 4 5 8 6 5 5
11 13 15 17 18 17 17 17 17 15 15 17 17 19 5 1 6 8 11 10 3 9 3 6 5 5 6 6 6 9 7 5 4 3 1 4 9 8 10 7 6 8 8 9 8
11 13 15 17 18 18 20 18 16 15 14 13 14 14 2 8 11 14 5 5 6 6 6 6 13 5 3 5 6 6 6 7 8 6 6 7 11 13 11 8 8 8 8 12 12
13 15 17 19 20 23 21 18 16 14 13 13 13 7 1 3 7 8 12 5 6 6 7 9 11 3 4 6 6 7 9 9 7 6 5 7 5 11 9 10 12 11 13 11 12
16 19 20 22 25 24 20 17 15 15 14 12 12 2 4 6 9 10 11 11 6 10 9 8 4 4 4 10 4 12 8 2 2 5 3 6 8 4 4 4 7 9 11 9 9
18 22 26 26 26 23 21 18 16 16 17 2 8 2 2 7 11 11 13 11 9 4 4 3 7 5 5 2 6 7 4 1 6 2 4 8 9 4 2 1 4 6 11 13 18
23 26 28 28 26 24 24 14 13 12 6 11 11 10 8 11 5 8 12 8 5 7 4 6 7 4 1 5 4 2 2 3 2 5 5 5 9 5 6 6 7 9 14 20 24
24 25 26 26 24 25 15 11 14 14 7 8 9 4 13 8 8 6 10 4 9 7 7 1 4 4 2 2 2 4 3 3 3 7 11 11 11 12 9 9 12 15 12 5 8
23 25 27 24 22 22 13 21 15 17 8 6 4 1 7 6 3 5 10 9 5 5 6 3 1 3 2 0 3 4 1 6 9 10 13 15 13 19 15 12 11 11 10 6 6
22 24 25 23 21 16 18 22 19 10 4 9 7 10 6 3 4 1 9 8 3 5 4 5 3 3 2 2 3 4 11 10 9 11 13 15 10 19 21 16 12 9 7 11 11
22 23 24 21 20 22 21 23 12 1 4 7 6 8 7 4 4 5 6 9 9 5 3 4 4 1 1 5 6 7 9 11 11 11 13 17 18 20 15 17 15 10 8 6 7
21 21 23 23 23 19 20 19 3 4 8 6 12 11 7 6 6 6 5 5 0 6 5 4 3 4 3 6 2 7 8 8 4 6 3 8 1 4 13 14 12 11 7 5 8
19 20 21 21 21 20 19 11 7 3 5 9 12 11 8 6 5 7 7 6 2 3 3 8 7 2 5 3 3 5 4 3 4 5 9 4 6 10 15 20 15 11 8 8 5
19 20 21 19 20 19 20 10 3 2 7 10 12 10 6 5 6 7 6 3 2 8 3 2 5 1 2 3 5 6 5 4 5 7 4 8 2 9 9 5 3 4 3 6 6
18 18 20 19 20 19 17 10 3 8 7 11 9 7 7 7 7 6 4 3 2 7 7 2 4 2 4 6 5 7 4 3 1 2 3 10 11 8 7 6 6 6 6 8 9
18 18 18 20 19 21 10 6 6 11 9 11 7 6 4 8 5 6 4 4 5 3 5 6 4 2 5 3 4 4 3 4 6 7 2 3 1 9 5 4 6 4 9 13 15
17 9 11 20 19 17 9 9 8 8 15 13 7 6 7 7 6 5 8 6 5 7 3 3 4 1 3 3 4 3 2 3 3 6 8 11 18 18 3 4 9 15 13 12 14
18 8 11 21 12 16 10 10 7 8 8 6 6 7 9 8 5 7 8 7 6 6 7 6 2 2 7 0 5 4 4 7 8 11 9 8 9 10 13 19 10 12 15 13 12
9 7 18 24 9 15 10 9 11 15 14 8 6 7 9 8 5 8 5 7 6 5 4 3 2 1 2 6 9 10 12 14 15 16 17 21 22 19 21 16 12 11 14 17 20
10 6 18 25 12 11 13 9 10 16 10 9 6 6 8 7 6 6 6 5 6 6 4 3 2 3 6 9 11 12 16 17 20 20 23 23 21 18 16 12 13 11 13 16 22
9 7 16 6 14 11 14 11 12 9 8 11 7 9 9 7 5 8 6 3 2 5 3 5 4 8 13 5 10 23 20 9 9 13 15 12 15 15 14 14 18 22 29 29 39
15 12 15 14 15 14 14 10 13 14 13 9 10 13 13 13 14 16 14 12 7 2 3 6 4 7 5 11 23 4 4 11 15 12 10 14 12 13 14 17 21 30 34 40 41

GFSSW_700_spd_033.txt.gz
Wind_Speed
30 28 25 22 21 19 18 17 15 13 13 13 12 11 6 5 6 4 2 4 10 8 8 10 17 21 22 11 4 3 17 19 14 18 13 10 11 4 2 5 10 10 10 6 10
29 27 23 22 21 20 18 16 14 12 13 12 12 8 9 11 6 1 4 13 8 4 8 12 14 16 13 4 4 7 4 17 14 13 10 9 2 6 8 4 8 12 6 2 7
27 24 21 19 18 18 16 16 13 13 13 12 11 12 17 11 3 7 13 8 6 7 10 14 18 13 5 2 5 7 12 16 21 12 14 9 4 10 8 6 4 3 2 6 8
24 20 18 17 16 15 15 15 14 13 13 13 14 21 16 8 4 4 9 9 9 11 15 20 12 6 2 3 3 7 5 9 18 19 11 8 9 6 9 7 2 3 7 2 4
20 17 16 15 14 14 15 15 13 13 14 15 19 23 14 7 7 3 12 13 16 13 13 9 3 1 4 6 4 3 6 5 13 18 14 11 13 6 10 8 6 2 7 4 5
17 15 14 14 14 15 16 14 14 14 16 17 22 22 13 5 5 10 13 11 4 2 3 1 1 7 8 8 7 7 5 6 13 16 11 13 7 12 7 6 9 5 4 4 7
14 13 14 15 16 16 15 14 16 16 16 18 22 19 6 5 9 11 15 13 11 8 8 8 10 9 9 12 7 10 9 5 7 5 6 12 8 12 11 6 4 5 3 6 3
11 11 14 16 16 16 16 17 17 16 15 19 20 16 1 4 6 14 13 12 15 10 11 13 14 11 3 8 10 10 10 11 7 6 5 4 7 11 15 11 9 6 5 7 9
10 11 14 16 18 19 20 19 17 16 16 18 16 8 3 7 7 18 14 9 10 10 4 12 14 7 6 7 10 10 11 14 14 7 4 2 7 19 10 9 6 9 10 8 11
12 15 17 20 22 22 21 19 17 18 18 19 15 3 5 4 7 11 14 9 9 10 10 13 10 5 6 6 6 5 8 17 15 11 7 5 8 13 10 7 1 7 14 24 22
17 19 21 25 25 24 21 19 19 19 19 9 4 8 0 6 7 11 13 14 15 13 9 3 2 2 8 8 5 3 9 10 15 8 3 7 4 8 5 7 12 11 11 30 23
19 23 26 27 26 25 25 19 15 15 8 9 12 9 10 11 7 9 12 13 13 8 1 4 5 4 2 1 0 5 4 9 7 5 8 4 4 11 11 11 11 17 20 19 22
23 27 28 27 25 26 12 18 18 10 7 10 6 6 17 13 6 13 16 12 6 2 2 6 4 1 6 3 4 3 2 2 3 3 6 7 6 13 15 16 17 18 23 26 27
26 27 28 25 26 19 14 20 21 14 7 7 9 6 10 10 10 7 12 12 5 3 9 5 3 2 6 1 1 3 4 6 9 8 7 9 6 20 21 20 16 15 16 19 21
27 28 26 25 25 19 19 19 21 8 3 11 7 7 5 6 3 4 12 11 2 1 7 5 7 6 4 4 4 3 6 9 8 9 9 11 11 22 23 22 19 18 16 16 18
24 26 25 23 23 18 17 21 15 3 4 9 7 10 7 5 5 1 12 9 5 6 3 6 6 5 5 2 4 4 6 9 11 10 4 11 11 12 29 25 22 22 20 14 17
23 24 24 22 22 19 21 19 4 0 10 10 14 10 7 8 7 9 10 9 6 8 5 9 2 7 3 4 2 5 5 5 3 2 4 13 7 4 10 24 22 22 17 12 10
22 23 23 20 18 19 21 13 1 6 7 10 15 13 10 10 13 9 7 10 11 9 12 13 6 1 5 5 1 6 7 4 0 1 6 13 6 8 11 13 10 7 9 9 9
21 21 22 21 18 19 21 9 3 4 12 13 13 13 12 6 7 6 10 5 6 8 5 8 5 4 2 4 4 4 7 3 2 3 3 2 10 7 6 5 9 13 11 9 8
19 19 19 18 19 20 23 8 2 8 8 13 14 13 11 9 9 6 4 4 3 8 8 8 7 2 8 6 9 10 8 3 2 1 2 6 6 4 6 8 7 6 6 9 9
19 18 19 19 21 22 22 6 6 9 15 14 11 9 5 12 8 10 4 5 8 7 6 12 6 6 4 4 1 4 3 1 3 2 4 1 3 5 3 3 2 8 4 4 9
19 16 17 21 21 23 22 5 6 7 13 14 8 10 6 11 6 7 9 6 8 10 7 8 8 7 5 5 5 4 1 2 2 3 3 3 8 10 6 9 6 6 11 15 19
19 13 12 21 21 21 12 7 5 6 14 13 15 12 8 12 6 8 11 8 11 9 8 11 8 7 3 1 3 4 2 8 8 11 14 4 8 15 22 20 18 18 19 13 14
18 14 13 19 17 18 10 10 12 13 12 10 10 13 13 10 7 11 10 10 7 7 8 8 10 5 5 1 4 5 8 9 10 13 14 18 20 21 18 16 11 8 13 16 18
13 12 13 25 17 15 14 7 13 16 15 15 9 9 13 9 6 8 7 9 7 8 7 6 9 8 9 8 10 10 12 17 18 16 14 18 12 4 7 12 11 13 13 16 20
13 14 12 11 19 17 16 14 11 8 11 10 5 9 11 11 11 10 7 4 5 6 9 9 7 7 7 6 8 16 5 4 0 6 9 11 7 14 16 16 18 22 22 24 33
12 12 19 11 23 17 14 14 15 14 8 11 10 15 15 14 14 15 13 10 9 7 8 7 5 4 4 5 12 4 5 8 12 12 12 8 10 17 21 25 26 26 27 33 41

GFSSW_700_spd_036.txt.gz
Wind_Speed
29 29 28 27 25 22 20 18 17 14 14 15 16 13 10 9 9 8 6 4 10 11 10 13 15 19 27 20 5 3 6 5 11 19 20 9 9 10 7 4 3 1 5 5 10
29 29 27 25 23 22 20 17 16 13 13 14 13 10 9 9 6 3 4 11 9 9 9 14 19 23 20 9 4 12 5 5 15 19 18 12 8 5 5 5 8 13 11 5 10
30 27 24 22 22 20 18 17 16 14 13 13 11 11 13 10 5 4 14 10 10 12 14 17 15 16 15 6 3 12 8 19 19 17 8 8 5 10 8 5 8 7 4 7 9
28 24 21 20 19 16 15 16 16 14 13 12 13 17 17 8 3 16 13 11 11 14 16 17 15 10 6 2 13 13 13 14 15 12 8 11 9 4 3 3 3 4 7 3 4
25 21 19 18 16 13 14 15 15 13 13 14 19 22 15 9 7 10 11 8 6 8 3 6 6 5 5 10 15 7 8 15 22 13 10 13 6 4 8 6 3 1 6 6 7
21 18 16 16 14 13 14 15 14 14 16 19 24 21 13 9 8 10 9 5 5 4 7 6 4 3 2 13 6 8 10 10 17 15 13 14 7 9 8 3 3 3 6 5 6
17 14 14 14 13 15 15 15 16 16 18 21 25 18 7 11 6 12 11 8 3 5 9 6 3 9 12 13 5 2 9 9 14 13 13 13 10 11 10 6 4 1 5 4 2
13 10 12 12 14 15 17 17 18 17 19 22 25 16 5 8 10 13 16 14 10 7 8 7 5 9 11 12 6 3 3 6 8 7 11 9 7 14 13 8 5 3 4 2 5
9 10 12 14 15 18 19 19 18 18 20 23 22 12 5 8 10 17 15 16 13 8 12 10 7 9 8 9 10 10 9 12 7 8 4 4 10 19 17 11 7 11 11 9 13
9 11 14 16 19 21 22 21 19 19 20 21 18 7 5 6 7 12 15 15 13 8 9 15 9 11 5 8 10 9 13 17 17 13 8 6 9 21 18 16 15 16 17 19 17
12 15 18 21 24 24 23 21 20 19 22 18 13 8 4 3 3 13 14 12 13 11 16 11 5 3 4 7 5 1 1 16 18 13 6 8 14 18 16 16 17 15 17 18 21
16 20 23 27 26 25 22 21 21 22 15 10 12 8 13 9 11 13 15 17 20 17 8 4 7 10 7 9 6 9 17 17 14 7 4 7 15 14 15 15 16 15 14 15 26
21 25 27 28 26 25 22 24 22 16 10 10 9 6 10 10 7 16 19 22 15 8 4 7 9 8 8 6 7 8 14 15 9 4 4 1 14 16 17 18 18 15 15 16 18
25 29 30 28 29 23 24 21 18 12 8 11 10 10 14 10 10 17 18 15 6 0 7 7 8 8 8 6 3 7 6 2 4 6 3 4 5 18 19 20 18 21 20 18 20
30 32 30 30 30 24 22 24 19 9 2 13 9 14 11 10 9 16 15 10 7 7 8 9 10 11 6 4 1 2 4 4 3 4 6 4 3 19 22 21 21 22 19 19 15
31 31 30 30 28 25 23 25 16 3 4 9 11 12 13 10 8 13 16 10 7 5 8 6 3 4 2 3 5 2 3 3 4 5 3 7 2 15 25 25 21 17 20 19 16
31 30 28 27 27 26 20 19 7 4 14 13 13 13 11 9 10 13 16 13 10 9 7 8 4 5 3 8 4 4 2 2 3 2 5 9 2 5 12 19 22 20 20 14 12
29 28 24 25 26 19 18 15 4 8 13 15 18 13 15 12 10 12 10 10 9 7 13 5 3 3 5 5 3 5 6 3 3 2 4 4 4 3 5 12 17 14 9 4 14
28 27 25 22 22 19 19 9 3 8 13 20 18 17 12 12 10 12 10 8 9 9 10 7 4 4 4 5 5 4 5 4 3 2 1 3 6 6 6 9 13 17 17 16 2
25 24 23 22 20 22 20 5 5 14 18 14 17 15 12 10 13 8 7 6 7 8 11 9 8 6 10 8 9 10 6 2 3 2 1 2 6 2 9 5 3 8 9 8 15
24 23 23 23 21 23 23 5 6 14 15 15 17 10 9 10 13 9 8 6 8 12 9 11 6 9 6 3 4 4 5 3 2 2 4 0 1 1 6 7 9 8 4 6 10
24 22 23 23 23 25 25 6 6 10 14 14 12 7 11 15 14 15 11 7 9 11 12 11 9 9 7 6 4 4 4 3 3 2 1 2 5 5 1 5 9 10 15 18 21
24 21 22 24 25 26 24 7 9 9 13 16 13 11 15 16 11 9 9 9 10 10 11 14 10 10 5 5 6 4 5 1 3 7 11 5 4 10 9 17 19 13 16 17 17
26 19 21 24 24 24 18 11 11 7 14 17 15 14 14 13 13 9 10 9 11 10 11 13 15 8 10 6 7 7 10 10 9 6 9 16 17 16 20 22 18 17 14 15 18
27 19 22 26 27 22 18 11 13 12 13 13 18 16 15 14 13 13 11 11 12 11 11 10 11 9 9 9 11 13 12 12 16 17 12 12 12 11 15 18 17 16 18 20 22
22 19 17 11 22 22 21 14 8 16 16 14 11 13 15 16 16 11 9 11 10 12 14 13 9 12 12 13 13 10 13 7 6 7 9 11 12 15 15 15 15 16 18 22 26
19 18 18 20 24 22 25 15 11 8 13 13 13 14 14 12 11 9 8 5 7 7 9 12 11 9 7 10 9 11 13 11 9 13 17 18 21 20 17 17 19 24 27 27 31

GFSSW_700_spd_039.txt.gz
Wind_Speed
30 28 29 29 29 27 25 21 19 17 17 15 15 15 14 14 14 12 8 7 6 9 11 11 11 19 20 19 19 16 4 12 20 22 22 14 20 12 9 5 2 1 4 8 9
29 29 29 30 27 25 23 20 19 17 16 14 13 13 12 12 9 5 5 10 11 9 10 11 10 24 24 22 15 8 8 10 15 10 15 22 18 12 7 1 7 8 9 1 10
29 29 29 28 25 22 20 18 17 17 15 12 12 12 11 9 5 5 12 9 8 9 14 18 20 19 16 15 9 5 1 8 22 7 18 18 9 6 5 6 7 5 3 7 12
29 29 28 24 23 20 16 14 16 17 15 11 12 13 14 12 7 12 10 6 9 15 17 18 18 14 8 7 3 8 17 18 17 19 19 14 12 11 4 5 5 5 7 4 6
29 28 25 22 19 16 13 13 15 16 12 13 14 16 16 11 12 10 11 10 8 10 5 10 7 5 6 6 16 15 15 15 15 20 14 14 8 6 7 2 4 5 7 9 11
27 25 21 18 15 13 12 14 15 14 14 16 17 20 16 12 12 12 12 12 11 7 12 10 7 3 6 14 16 13 15 20 16 15 14 11 9 8 10 4 4 7 9 9 9
24 21 16 14 13 12 13 14 15 15 16 17 19 20 13 11 10 13 10 11 8 9 10 8 4 3 12 19 9 9 15 16 14 15 13 10 7 6 5 4 1 6 8 5 3
19 15 13 11 12 13 14 15 16 16 17 19 23 16 8 14 12 12 10 9 6 6 6 7 9 12 18 16 12 7 10 12 17 9 11 12 10 10 10 8 1 4 3 4 7
15 12 11 10 12 13 16 18 17 17 18 21 22 14 7 13 14 13 11 10 8 6 4 7 9 15 16 13 8 5 4 6 9 11 8 10 5 12 12 9 6 7 7 9 12
11 10 10 11 14 17 18 18 18 17 19 23 21 11 6 7 12 16 13 11 8 8 7 8 7 7 7 6 8 8 8 11 10 9 9 7 5 16 16 12 13 11 12 15 17
10 10 12 15 19 20 20 19 18 16 21 23 18 6 8 8 5 13 15 12 10 7 11 11 6 4 5 6 6 8 12 13 12 10 13 9 10 20 19 17 16 16 17 20 21
11 13 16 20 23 23 21 18 17 17 20 15 17 11 10 8 8 15 15 13 14 10 12 9 8 6 5 5 2 2 2 9 15 12 7 13 16 19 19 18 19 20 20 18 21
14 17 20 25 25 23 19 18 17 18 13 14 14 14 9 7 9 13 16 16 16 13 8 7 7 7 5 4 4 9 13 18 16 9 5 7 16 17 18 18 18 18 17 16 14
18 21 27 28 27 24 20 21 20 16 10 12 13 12 8 8 7 15 16 15 12 10 7 7 9 9 9 6 4 12 15 12 9 7 6 9 6 16 19 20 19 18 16 13 10
22 28 31 30 28 21 21 23 18 13 3 14 12 12 12 11 11 17 13 12 8 12 9 8 10 9 8 7 6 6 8 5 5 4 2 1 5 11 19 21 22 21 17 14 10
28 32 31 30 28 22 21 22 17 3 4 12 12 19 16 11 11 18 13 11 11 7 9 11 10 8 7 8 6 7 7 6 6 3 2 2 3 14 26 28 25 20 14 14 9
32 33 31 32 26 22 21 21 9 4 14 15 16 15 15 12 9 21 17 15 11 14 15 10 5 4 7 9 5 2 7 3 1 0 4 4 1 4 23 17 20 19 16 13 12
35 33 30 31 26 22 22 19 6 5 14 15 16 16 14 13 12 19 16 14 12 9 15 8 4 4 6 12 5 2 2 3 5 3 2 2 1 1 8 12 17 15 16 15 15
34 32 29 31 26 24 22 19 2 9 11 22 20 19 16 13 11 14 13 12 10 9 6 7 4 4 5 8 7 4 3 3 5 3 1 1 2 2 3 8 14 15 16 20 16
34 31 28 29 26 26 22 13 3 9 18 23 23 15 17 15 13 13 11 9 11 11 13 9 7 8 8 7 4 7 6 2 2 2 1 3 5 6 13 12 10 11 13 15 16
32 31 29 26 24 27 24 11 6 18 22 23 17 15 11 16 15 13 11 7 10 12 13 12 7 9 9 4 5 5 3 2 2 2 4 1 5 9 8 11 13 15 18 21 20
31 31 30 27 26 28 28 7 8 11 22 17 18 8 12 13 16 14 10 6 9 12 12 12 7 11 7 6 5 4 5 4 1 3 3 2 6 9 10 11 12 15 19 18 24
31 30 30 28 29 31 28 8 9 12 13 17 13 9 11 18 14 14 13 10 7 10 10 12 8 10 5 5 8 7 8 6 5 4 7 2 5 13 14 14 16 17 18 19 21
30 28 29 29 29 33 27 12 12 13 15 14 13 13 14 16 12 9 11 8 9 11 11 15 11 11 12 4 9 10 11 10 11 9 13 21 17 16 20 22 22 21 20 19 19
31 26 30 33 30 31 24 17 13 11 10 13 14 15 17 16 12 11 10 10 10 11 11 13 10 16 11 10 10 11 13 16 19 18 17 21 21 18 21 22 21 20 20 21 20
32 22 28 13 29 28 26 21 17 14 10 13 13 17 14 15 15 10 12 12 11 12 12 12 8 14 13 13 15 17 18 19 21 18 17 17 19 18 18 19 21 22 22 22 24
30 23 24 18 29 28 29 22 14 13 17 15 10 11 15 13 11 9 8 7 8 9 11 13 13 10 9 16 16 16 22 24 18 16 15 20 21 22 22 24 21 21 23 26 29

GFSSW_700_spd_042.txt.gz
Wind_Speed
30 30 29 27 30 31 30 27 24 21 18 16 14 15 14 14 15 14 10 10 9 9 9 12 12 14 15 16 15 16 8 11 17 8 13 15 8 5 17 13 7 7 3 3 15
30 29 28 28 31 31 29 25 22 19 18 15 15 15 14 13 11 6 7 8 9 9 9 11 11 17 18 17 16 13 11 7 12 23 10 8 14 19 15 6 8 8 4 8 14
30 29 28 29 31 30 27 22 19 17 16 15 14 13 11 8 4 5 5 9 7 7 8 11 10 18 16 16 14 7 7 11 14 8 6 21 23 20 8 4 9 7 4 10 12
28 28 28 30 31 27 23 19 16 15 14 14 12 12 10 9 5 8 8 5 6 7 10 11 10 15 15 10 7 9 4 8 19 12 14 19 20 12 6 6 9 10 9 7 9
27 28 28 30 28 23 18 15 14 13 13 13 12 12 12 13 9 12 10 9 9 10 10 9 13 8 3 2 6 8 10 12 24 16 10 17 15 10 7 3 8 12 15 16 16
26 28 27 28 23 18 14 13 12 12 13 12 13 13 16 14 12 15 14 15 12 8 8 10 8 4 6 15 10 11 9 11 16 16 18 16 8 8 9 5 10 16 14 16 16
26 27 26 25 18 15 13 12 11 13 13 13 13 16 18 13 11 16 12 13 10 9 12 8 5 2 11 12 9 13 13 19 20 14 16 13 9 6 5 5 10 11 10 10 9
24 25 22 20 15 13 13 11 12 14 13 13 14 20 14 12 11 15 12 10 8 8 11 8 11 9 16 15 12 8 12 14 15 15 11 10 8 6 6 4 6 6 7 8 6
22 23 19 16 11 11 11 12 14 13 14 14 19 17 9 13 13 13 12 9 6 8 8 6 8 12 17 16 12 6 9 8 13 11 7 12 3 6 7 8 7 5 6 8 8
20 20 15 12 10 12 13 15 14 14 15 18 22 14 7 11 13 14 13 10 6 4 8 9 12 14 15 12 9 9 6 7 8 10 6 8 13 11 13 13 10 9 11 13 12
19 15 13 11 13 15 16 15 15 15 18 20 19 8 8 9 13 16 15 11 7 6 10 11 8 8 8 10 5 3 6 9 10 10 11 10 10 10 14 16 14 14 16 18 19
16 13 13 14 17 17 16 16 14 12 15 19 18 9 10 10 11 18 17 11 8 7 10 11 11 9 7 4 3 1 5 5 9 11 10 11 14 13 19 18 15 16 21 22 21
15 15 15 17 18 18 18 16 14 12 14 15 15 11 9 6 7 18 18 12 10 11 10 9 7 5 3 3 1 3 5 13 13 10 7 7 14 14 18 17 17 18 19 16 14
17 18 19 21 22 21 17 15 12 13 7 13 16 15 10 5 6 10 15 10 11 10 9 8 7 5 4 3 4 6 9 7 9 7 3 8 4 14 17 19 19 18 15 11 5
20 22 24 27 25 19 17 16 15 13 2 12 16 12 11 8 6 12 12 11 11 14 10 8 7 6 5 5 6 7 9 7 4 4 4 6 5 11 19 19 20 19 13 9 7
24 27 30 29 24 18 18 19 14 6 4 12 16 16 14 10 12 16 11 11 12 14 7 9 10 6 6 6 6 6 8 7 5 3 1 3 4 7 16 23 23 19 14 11 11
28 31 31 30 23 20 20 16 10 4 9 12 17 19 14 11 11 17 13 17 12 13 11 9 7 7 8 8 5 4 6 0 0 1 4 5 6 8 8 17 21 18 16 15 14
32 34 33 32 25 21 20 18 6 4 15 14 17 17 14 12 10 18 16 15 12 8 15 9 4 5 6 11 5 5 8 4 4 3 3 3 4 4 6 11 8 18 19 17 13
36 37 34 31 27 22 20 18 8 4 14 18 16 18 14 12 11 17 16 14 12 11 10 8 6 6 6 10 8 5 4 4 3 2 1 3 5 8 5 9 13 12 16 14 17
37 36 32 32 29 23 20 20 13 6 13 18 20 17 17 13 12 14 14 13 12 12 15 8 6 7 6 6 8 8 7 3 3 3 3 4 7 10 8 8 11 11 11 14 17
37 34 33 31 30 25 24 26 8 6 19 24 16 16 16 16 12 14 11 8 12 13 13 11 9 9 8 6 7 8 7 4 4 2 4 1 5 8 8 6 8 11 14 16 19
37 36 34 32 29 28 28 24 8 8 22 23 16 12 11 18 15 17 13 12 10 11 12 13 9 9 12 9 9 8 8 7 4 4 5 2 7 7 9 10 14 17 18 21 23
38 36 35 33 32 29 31 23 9 9 18 24 19 12 11 14 16 17 15 12 7 10 11 14 7 8 5 8 11 11 10 10 7 5 8 4 5 7 8 12 17 18 20 21 23
36 32 35 34 33 31 31 23 9 9 13 18 17 14 9 14 16 11 14 11 10 11 12 14 11 12 15 5 9 13 15 14 12 7 8 17 21 19 18 17 19 20 22 24 25
36 29 39 37 36 31 29 23 13 11 11 14 13 12 13 14 14 10 10 10 11 11 12 13 12 15 14 11 10 11 13 15 18 18 18 23 23 20 17 17 21 23 24 25 25
36 30 33 18 34 30 31 30 17 14 13 12 12 13 14 13 12 11 10 11 10 12 13 14 9 12 15 15 14 16 18 20 23 25 26 25 24 17 15 18 19 20 22 24 25
33 27 29 36 32 31 31 29 23 17 14 9 8 11 16 13 12 11 9 9 8 10 11 12 11 9 8 15 17 19 25 26 28 28 25 23 18 17 17 18 19 21 24 25 26

GFSSW_700_spd_045.txt.gz
Wind_Speed
27 28 26 26 27 28 30 29 29 26 23 19 16 13 13 13 13 11 8 12 11 13 12 11 11 12 13 15 16 11 6 4 10 16 16 16 16 6 9 10 10 5 3 4 11
28 27 26 25 26 28 30 30 28 24 20 18 16 12 13 12 9 7 11 9 11 9 7 9 12 11 13 17 16 10 9 7 8 15 16 12 7 6 15 7 11 8 4 7 14
28 27 26 25 26 28 29 30 25 21 19 17 14 12 12 8 5 8 7 6 7 6 6 8 10 13 14 15 12 10 12 8 4 12 4 5 18 18 7 3 2 2 5 15 18
28 25 25 24 27 28 29 27 21 18 16 14 11 11 9 6 7 5 7 5 5 5 7 8 8 15 14 14 12 4 5 12 9 12 16 15 15 11 5 7 7 13 11 15 17
26 23 24 24 27 27 27 22 17 16 13 11 10 9 8 11 10 12 9 6 6 6 7 5 8 13 12 7 9 13 9 11 16 18 11 11 9 10 10 6 12 17 17 15 15
24 22 23 24 27 25 25 18 14 13 11 10 9 9 10 14 13 13 11 10 10 8 7 7 9 8 6 6 7 13 11 12 24 21 13 12 12 10 7 11 18 21 20 19 16
22 21 23 24 24 23 21 15 13 11 10 10 10 10 16 14 16 14 12 12 9 8 10 10 9 5 17 12 11 4 9 13 22 21 17 15 10 11 11 12 13 14 13 15 16
21 21 22 23 22 20 17 14 10 10 10 10 10 14 16 13 16 15 11 11 7 7 10 6 7 12 14 12 13 15 14 17 14 15 17 14 12 9 11 12 10 6 7 10 12
20 20 21 21 18 16 14 11 10 11 11 11 13 17 14 12 15 16 11 11 7 4 8 7 16 13 16 14 11 9 13 12 16 14 14 15 8 11 11 13 12 7 6 7 8
20 19 20 18 15 14 12 11 11 11 12 12 18 16 10 11 15 18 12 10 6 2 5 8 8 11 20 14 10 8 12 11 16 12 6 11 7 5 7 15 14 11 9 9 9
20 19 18 15 13 14 13 12 12 12 13 15 20 11 9 10 14 18 15 11 5 3 6 8 8 11 13 11 4 5 6 9 12 13 12 10 8 6 6 16 16 15 14 12 12
20 17 16 13 14 15 14 13 12 9 11 16 20 10 9 9 14 19 20 13 7 5 8 9 7 7 9 7 5 3 3 4 11 15 12 10 9 7 9 14 19 18 17 17 17
19 17 15 14 16 15 14 13 12 8 9 16 15 13 8 8 11 21 19 15 8 8 12 12 11 10 8 8 4 4 2 8 9 11 10 9 9 11 12 16 21 20 20 20 17
19 18 16 16 17 19 16 14 11 8 6 14 12 13 10 7 8 14 20 15 12 12 12 11 11 9 6 5 3 5 5 6 9 10 5 6 4 12 16 18 21 21 20 15 10
20 21 18 21 22 20 16 14 12 12 2 10 17 13 12 9 7 11 15 13 13 14 11 9 9 8 5 3 2 4 5 5 7 6 4 6 5 12 16 21 22 21 16 11 8
24 24 23 26 24 20 17 15 14 7 4 11 19 15 14 12 8 14 14 14 14 13 9 10 11 7 4 2 2 3 5 4 4 3 2 9 10 7 15 19 22 20 15 11 11
27 27 29 31 25 21 19 19 10 5 5 10 20 17 16 12 11 16 13 14 14 15 12 11 8 6 4 5 5 5 6 0 1 2 3 10 7 13 9 11 9 14 14 13 12
29 30 34 35 27 23 23 21 6 10 10 9 18 19 15 13 12 18 14 17 14 12 14 9 4 7 7 10 7 8 8 5 4 3 1 6 6 5 4 5 8 12 12 13 12
32 34 38 36 29 24 25 22 11 5 11 12 17 21 16 15 11 18 16 15 14 11 9 9 6 8 6 8 9 7 6 8 3 2 1 4 7 9 8 5 10 10 13 14 12
35 38 38 36 31 24 25 19 14 6 15 15 19 19 19 15 11 17 17 15 12 12 10 8 6 9 7 8 10 9 5 4 4 4 3 3 7 9 2 3 9 12 10 13 13
39 41 38 35 32 26 27 26 21 9 14 19 19 16 16 17 10 16 15 9 14 13 12 11 8 9 9 8 8 10 10 6 5 3 3 1 4 4 4 7 7 9 12 16 15
41 41 39 35 33 30 28 24 21 10 16 20 19 14 17 18 12 15 13 12 11 14 15 14 10 9 13 9 9 10 10 10 5 5 5 3 6 3 3 6 12 15 17 18 19
44 39 38 36 36 31 29 25 20 11 18 22 20 13 12 16 13 13 14 12 9 11 12 15 10 7 4 9 13 15 15 14 13 8 8 4 5 5 10 10 9 16 19 20 22
43 32 39 37 33 34 31 27 20 12 18 23 20 16 11 12 16 9 14 13 13 11 14 14 15 13 15 6 8 17 19 17 16 10 12 19 19 18 15 15 12 14 17 21 23
45 33 44 42 37 35 28 25 19 14 15 22 22 19 15 10 17 13 14 14 14 14 15 15 15 17 16 13 11 12 14 17 20 20 18 22 22 18 17 17 14 16 18 22 23
42 36 38 17 36 34 31 25 23 15 16 16 14 15 13 13 13 15 10 10 12 13 16 17 11 13 16 17 17 19 18 18 21 23 26 28 29 20 15 14 14 14 16 19 22
40 32 32 40 33 34 32 28 26 18 12 12 11 13 15 13 11 9 9 10 11 13 14 15 14 10 8 14 15 17 24 25 27 28 29 31 25 19 17 16 15 15 16 17 21

GFSSW_700_spd_048.txt.gz
Wind_Speed
23 26 26 25 25 25 25 25 26 27 27 23 19 15 14 12 11 9 8 15 15 14 11 11 10 11 10 12 16 12 7 7 6 10 9 14 13 12 6 8 3 7 11 12 12
23 26 27 26 25 25 25 26 27 27 25 21 16 15 13 11 9 9 11 11 11 10 9 8 9 9 9 11 15 10 10 8 3 11 12 10 12 16 4 3 9 9 10 6 12
23 26 27 25 24 24 25 27 28 25 23 18 15 13 11 8 6 8 8 8 7 6 6 6 9 10 9 11 12 8 6 6 7 9 6 5 21 17 3 3 6 8 5 8 15
22 26 26 24 23 23 24 27 25 22 20 14 11 10 9 7 5 7 5 5 6 5 7 8 8 11 9 12 12 7 6 5 11 11 11 6 16 2 1 5 5 8 6 15 17
21 25 24 22 22 22 24 27 22 19 16 11 9 8 7 9 9 8 6 4 5 8 9 9 8 11 12 10 10 8 12 9 16 17 10 5 6 4 5 2 9 17 17 18 19
22 25 23 21 21 21 24 25 18 16 12 9 9 8 10 11 11 11 7 5 4 4 6 6 8 11 10 6 9 13 8 12 14 13 11 11 10 6 7 12 18 20 20 20 20
21 23 21 21 20 21 23 21 15 12 10 9 10 9 11 13 14 12 9 8 6 5 6 6 7 7 8 7 9 8 14 17 20 16 11 11 9 9 12 14 16 19 20 20 19
22 22 20 20 20 20 21 17 12 10 10 10 10 11 12 15 15 12 11 10 6 4 6 6 8 11 12 14 13 11 8 9 12 19 14 13 11 11 15 16 15 16 17 19 20
21 21 20 20 19 19 18 13 9 9 10 10 11 11 15 13 15 15 11 8 5 3 8 8 10 18 15 11 12 13 10 10 15 19 17 13 9 11 18 19 17 15 15 15 16
22 21 20 20 18 17 15 10 8 10 11 11 12 12 14 13 19 17 12 6 2 3 5 7 9 13 13 14 11 9 14 13 12 14 15 12 8 14 16 19 17 15 14 13 13
23 21 20 19 16 15 12 9 8 10 12 12 13 10 13 11 17 18 15 10 6 9 4 11 14 14 14 12 4 6 10 13 12 15 10 11 14 10 13 19 21 19 16 14 13
24 22 20 18 15 15 12 9 11 9 10 14 18 10 10 10 14 20 17 12 12 5 6 8 7 12 16 9 6 8 9 9 14 17 14 14 12 10 8 14 22 21 18 16 16
25 22 19 18 15 13 11 11 12 7 7 15 21 13 10 10 11 16 21 16 8 14 6 12 11 7 8 11 6 7 7 8 10 19 17 13 11 12 9 11 15 22 21 19 19
26 22 19 18 16 15 13 13 11 7 4 11 18 17 8 8 9 18 21 15 10 10 13 7 10 10 9 9 8 5 7 6 10 14 11 15 8 10 13 14 17 21 23 22 19
26 22 20 18 17 18 17 15 12 10 5 10 16 19 12 9 7 13 21 17 10 13 12 9 13 11 7 7 7 5 5 6 8 8 7 9 10 6 11 17 21 22 22 19 17
27 23 21 20 20 23 20 17 14 7 7 11 20 17 15 12 8 12 15 17 15 14 13 12 14 12 9 8 5 6 6 5 5 6 11 9 9 10 8 12 17 20 19 17 15
28 24 22 23 27 24 21 20 10 12 7 11 19 19 15 13 10 15 15 17 13 14 11 11 11 10 9 6 6 6 6 5 6 6 6 3 8 16 10 9 11 9 14 15 15
29 26 26 28 32 26 24 23 13 12 10 12 18 19 16 15 13 19 15 16 19 16 15 14 7 9 10 9 5 7 7 5 4 3 1 4 6 3 8 8 9 10 12 15 15
31 29 31 35 34 30 28 20 19 9 13 13 18 19 15 18 12 18 15 16 17 18 14 11 5 10 7 7 6 6 6 9 2 4 3 5 6 9 11 8 8 11 15 16 17
33 32 34 41 36 32 29 23 16 10 14 16 18 19 18 17 14 18 17 17 16 16 16 11 4 9 8 8 10 9 7 3 6 3 4 5 6 4 3 6 6 10 12 17 19
36 36 41 45 39 34 28 23 21 9 16 15 17 16 17 16 14 16 14 14 17 15 14 10 9 7 11 10 9 12 11 9 6 4 2 2 3 6 5 3 4 7 12 18 19
40 39 46 47 40 35 27 23 19 16 11 17 18 14 17 17 15 14 17 16 16 17 13 14 11 7 11 13 13 14 11 13 8 6 4 1 5 7 5 4 8 12 16 20 20
43 30 44 46 39 37 26 26 23 15 14 20 21 17 19 20 12 14 15 17 11 14 14 15 10 7 4 8 13 14 16 16 16 10 8 4 4 8 10 10 8 14 17 21 24
41 37 44 47 35 30 31 27 21 18 16 23 21 17 15 18 19 9 15 15 14 12 14 14 17 14 16 8 7 10 20 20 15 9 10 16 14 16 17 15 12 13 16 21 27
42 32 48 51 45 33 30 22 23 18 18 24 23 19 17 16 17 19 14 15 16 15 15 15 13 20 19 16 14 14 12 17 21 19 13 16 15 13 15 19 18 15 16 19 21
45 35 38 28 45 32 35 26 24 20 19 25 20 21 18 16 12 13 16 16 16 15 17 17 12 16 18 19 19 18 18 19 20 21 24 23 28 21 21 17 17 15 16 17 19
44 32 41 30 45 37 38 27 26 21 18 20 20 22 20 17 15 14 14 12 13 14 15 18 17 12 7 14 15 15 24 26 26 26 27 23 21 22 21 17 16 16 16 16 19

GFSSW_700_spd_051.txt.gz
Wind_Speed
23 23 24 24 24 22 25 27 26 26 27 28 23 16 14 13 13 12 10 14 13 13 12 11 10 7 8 11 13 12 14 20 13 15 16 19 10 10 6 8 4 5 5 4 5
24 23 23 24 25 21 24 25 26 26 27 27 19 16 12 11 12 11 11 11 11 10 10 8 7 8 10 10 12 14 13 6 4 11 18 5 10 10 7 4 1 2 9 10 7
24 23 24 23 24 21 23 25 25 26 25 23 16 14 10 9 7 6 8 9 7 8 6 6 7 9 10 10 12 14 14 9 9 2 4 4 8 13 5 5 4 8 10 4 8
25 23 23 24 24 21 21 23 25 26 23 19 14 10 7 6 5 10 7 4 3 5 4 7 7 9 8 11 13 9 12 9 12 16 5 9 13 15 11 5 4 10 9 13 15
25 23 23 23 24 20 20 22 25 24 19 14 10 7 6 7 8 6 3 2 3 5 6 8 8 9 8 10 10 9 4 4 12 11 8 7 8 8 8 1 9 12 18 18 16
25 24 23 23 22 21 19 22 24 21 16 11 8 6 8 9 11 7 4 2 2 2 4 10 8 10 9 8 10 9 6 10 7 6 2 10 3 1 4 9 15 16 18 17 17
25 24 22 23 20 20 19 21 22 17 14 10 8 8 10 12 12 10 5 3 3 3 4 7 10 9 5 6 11 9 7 8 8 7 3 8 6 6 8 12 16 16 17 16 16
25 24 22 22 19 20 19 20 19 13 11 9 8 8 8 13 11 12 7 4 3 2 4 7 9 10 6 7 9 12 8 13 10 11 9 13 14 8 9 12 15 16 16 16 17
25 24 22 21 19 20 19 18 15 11 9 9 9 7 7 11 12 8 8 4 2 1 2 3 3 7 13 12 10 11 11 13 6 13 10 10 14 13 12 12 13 14 16 16 17
25 24 22 21 18 19 18 15 12 9 10 9 8 5 9 8 12 12 9 5 1 1 4 2 7 13 14 14 12 9 12 12 14 15 12 9 8 12 16 14 13 14 15 16 19
25 24 23 20 18 17 16 11 8 8 12 10 6 13 9 12 17 15 10 6 5 4 6 9 9 18 14 10 6 3 12 11 10 11 12 12 8 11 14 17 17 17 16 16 18
26 25 22 19 18 16 14 10 12 10 9 13 12 16 12 12 13 16 15 8 11 13 9 13 15 10 6 10 5 6 7 12 9 11 11 11 11 13 14 18 20 17 16 15 20
27 26 22 19 17 14 12 12 11 9 6 10 14 15 10 11 9 15 16 12 12 12 11 10 7 9 9 6 7 8 7 11 11 13 12 11 15 15 15 15 18 18 17 18 19
28 26 23 19 16 13 11 13 11 7 4 11 18 17 12 10 10 15 16 13 10 12 9 4 11 7 10 8 7 7 6 3 6 15 21 18 17 17 20 17 16 21 22 18 18
30 28 24 20 15 14 20 14 13 9 5 9 16 12 12 12 3 11 18 14 10 9 12 10 10 9 10 6 10 10 4 5 9 15 13 16 12 27 19 17 15 18 18 18 20
32 29 25 21 17 18 18 18 15 6 10 9 17 19 16 14 9 8 15 17 13 9 12 9 10 7 3 9 7 4 2 4 8 14 11 16 15 9 17 12 14 15 18 18 18
35 31 26 23 20 23 23 20 9 13 6 11 18 19 20 14 12 11 16 19 17 13 14 9 8 10 7 6 4 6 7 12 7 8 10 3 6 21 4 4 11 14 16 17 18
38 33 29 25 26 30 27 22 14 8 14 4 15 19 22 16 14 13 16 21 22 19 17 17 10 12 10 10 6 9 11 8 5 8 7 4 9 7 8 7 8 13 15 17 18
39 35 33 28 31 34 30 26 28 10 16 9 13 22 22 17 12 14 17 19 19 21 18 18 7 12 11 9 6 7 9 6 6 7 9 15 7 6 10 8 7 12 17 18 18
39 36 32 32 39 38 31 30 24 16 12 12 18 21 22 20 16 16 18 18 15 17 15 6 6 6 9 9 10 10 5 5 8 3 7 11 9 5 8 9 9 15 17 18 19
41 38 34 37 43 41 37 32 21 13 12 15 19 18 20 19 18 17 17 11 17 17 20 14 13 7 8 11 14 8 12 10 7 7 4 4 3 7 4 8 10 14 16 19 20
45 32 38 43 48 40 35 29 24 21 12 13 17 18 19 18 18 16 19 15 16 14 15 15 10 15 13 10 13 10 11 12 11 9 10 7 8 5 4 8 8 11 16 18 19
47 32 32 46 47 39 30 29 28 19 17 12 17 18 18 18 15 16 15 19 14 19 16 14 12 15 11 12 14 13 14 13 14 8 12 6 6 5 10 11 8 10 16 17 22
41 34 36 50 44 35 35 31 28 23 16 15 18 18 15 16 18 13 13 16 19 18 17 14 16 16 16 12 6 12 14 15 17 14 16 19 15 9 11 12 11 11 16 18 23
44 42 46 51 54 40 35 28 30 26 20 15 19 20 17 17 18 13 13 14 16 16 15 15 14 16 19 13 10 11 11 13 19 23 22 20 18 13 11 14 14 14 16 21 22
48 40 29 22 47 36 35 35 32 26 20 19 20 22 19 14 17 13 14 11 12 17 17 17 12 13 14 14 16 17 18 18 20 21 23 24 25 20 18 17 14 18 17 20 21
48 34 35 36 49 41 39 36 29 27 20 18 23 23 20 17 15 11 12 12 10 12 14 11 12 10 10 9 8 14 22 22 22 22 22 23 22 17 16 19 17 17 17 18 20

GFSSW_700_spd_054.txt.gz
Wind_Speed
24 24 24 24 24 24 24 25 26 26 24 25 27 26 20 14 11 10 9 12 11 11 11 10 9 6 6 10 11 12 17 21 21 12 11 13 13 12 25 4 3 2 7 10 6
24 24 24 24 24 24 23 23 25 26 24 25 26 22 17 14 11 9 11 11 11 10 8 7 6 8 10 11 10 14 17 17 17 21 19 22 27 12 6 13 3 11 4 7 4
24 24 24 24 24 24 24 22 23 25 25 24 22 18 13 9 3 6 8 8 9 8 4 3 6 9 11 12 12 14 18 15 6 3 5 12 7 13 6 3 9 2 1 3 4
26 25 24 23 24 24 24 21 22 24 25 22 18 15 10 3 8 7 10 6 3 1 2 5 8 8 10 12 12 14 12 12 2 10 8 5 10 7 10 3 3 10 6 1 8
28 27 24 23 23 24 23 21 21 23 25 19 14 13 8 7 7 13 3 1 2 2 2 3 6 6 10 9 10 13 6 9 9 10 13 12 6 2 8 8 12 7 2 14 10
29 27 25 23 23 23 22 20 19 22 22 16 12 11 8 7 3 10 1 2 2 3 3 6 7 7 11 12 10 9 13 1 2 5 3 9 3 9 12 12 8 14 13 12 13
30 27 24 22 22 22 21 20 19 22 20 15 11 9 9 7 10 5 4 1 1 6 2 5 8 6 4 8 4 4 3 6 5 4 3 12 10 13 11 12 18 14 14 12 13
29 28 24 21 21 21 20 19 18 20 16 12 9 8 7 8 7 8 6 5 7 5 4 6 10 11 8 2 3 6 4 5 8 7 8 3 7 13 14 15 15 15 13 13 15
30 28 25 21 20 20 19 17 17 17 13 8 7 8 3 6 6 8 4 3 9 3 1 3 3 5 2 5 5 6 8 12 10 11 8 3 7 11 13 15 15 14 15 15 15
31 28 24 20 20 19 18 16 15 13 10 7 7 3 5 2 4 8 6 8 2 6 2 3 4 5 7 13 14 15 16 14 12 11 12 10 7 14 13 13 15 17 17 15 16
32 29 24 21 20 18 17 13 9 11 10 8 3 10 6 6 13 14 8 8 5 4 3 4 6 11 16 8 10 7 7 16 12 12 9 11 15 14 16 15 21 15 14 16 18
32 28 24 21 20 18 16 11 10 13 15 12 17 18 15 10 7 12 10 12 11 12 9 8 19 10 14 15 20 12 2 10 10 9 13 14 13 13 15 17 14 15 18 18 16
32 29 25 22 20 17 16 12 14 12 13 7 16 13 12 8 12 12 14 13 11 9 10 6 13 14 17 11 10 6 6 8 7 11 13 10 16 17 18 19 19 23 21 21 21
32 29 25 23 20 16 13 11 9 8 7 11 15 15 17 11 13 14 18 15 12 9 10 8 12 9 9 11 11 8 1 8 9 17 12 12 4 11 13 15 19 19 19 20 23
32 29 27 26 20 15 17 12 9 6 4 6 14 7 14 17 4 15 13 17 14 10 10 5 12 7 15 10 4 4 6 7 11 11 9 14 12 28 24 24 25 24 24 25 21
33 31 29 26 20 18 13 14 14 6 8 9 12 17 19 17 11 5 14 17 13 12 9 10 11 5 7 6 4 3 4 10 11 16 9 18 22 7 21 21 20 21 24 22 25
36 34 30 29 22 20 15 19 10 13 7 11 15 16 20 16 16 14 11 19 17 13 12 10 13 11 5 5 6 7 10 8 10 9 6 9 20 12 14 10 24 25 17 24 23
38 37 33 30 28 25 26 23 15 11 18 3 12 15 23 18 16 15 15 20 22 18 15 18 18 17 13 12 7 9 13 4 2 5 5 9 7 11 11 7 12 15 17 19 19
41 40 39 32 29 29 32 30 22 15 13 12 10 18 22 20 14 17 17 20 20 22 23 5 5 7 4 9 6 7 5 2 9 9 5 8 16 8 9 7 7 14 17 18 21
43 43 39 33 33 34 37 36 22 22 5 17 16 17 21 21 18 16 17 17 19 20 22 12 13 18 12 14 11 9 8 5 4 2 5 13 20 11 13 8 9 14 16 18 20
43 45 39 37 37 42 45 36 24 21 16 12 17 17 21 21 20 17 16 13 19 9 18 10 29 8 8 7 11 9 11 13 13 10 2 3 6 7 8 7 6 14 16 20 19
50 46 41 43 44 49 48 31 28 21 19 16 16 20 17 20 18 21 17 18 17 15 10 13 10 11 13 10 8 9 9 11 12 10 7 11 14 5 4 8 6 10 17 19 19
54 42 28 41 50 47 38 33 28 26 22 16 17 18 16 18 19 19 14 14 14 11 12 12 11 14 16 11 10 16 15 16 14 11 11 5 5 7 6 8 9 8 15 18 21
52 41 35 43 49 44 38 33 32 30 24 20 16 18 15 18 15 15 16 17 14 13 19 18 12 15 14 16 7 10 12 15 15 13 15 21 20 14 14 12 9 10 13 17 19
50 48 52 46 53 38 35 32 32 31 28 19 22 21 19 17 17 17 17 14 16 19 20 17 16 16 19 19 13 12 12 10 14 17 20 21 18 15 11 14 12 12 14 16 22
57 43 42 30 44 42 43 42 34 33 26 23 20 21 21 18 18 18 13 15 12 15 17 18 13 14 14 13 13 16 18 18 20 20 20 21 23 18 19 14 13 14 15 17 24
58 45 33 41 24 53 52 40 34 31 28 27 20 20 21 19 16 17 15 15 7 12 18 12 13 9 9 10 11 13 22 20 22 20 20 22 20 17 16 13 17 19 14 19 21

GFSSW_700_spd_057.txt.gz
Wind_Speed
22 20 21 21 23 24 23 23 25 25 26 24 24 26 22 15 10 12 11 13 8 8 7 8 7 5 5 5 6 8 19 27 23 23 11 9 16 15 12 7 7 11 7 8 6
23 22 21 22 22 23 23 22 24 23 24 23 25 23 20 14 8 9 10 10 10 7 5 6 6 4 12 6 2 6 12 18 13 18 14 18 16 12 12 15 17 18 5 10 5
23 24 23 23 23 23 22 22 23 23 23 23 23 19 16 10 2 5 7 8 8 4 4 4 10 6 9 12 6 7 17 14 18 7 12 15 18 4 5 4 1 7 11 9 12
25 26 24 24 24 23 22 22 22 22 22 23 20 16 14 6 4 2 7 7 6 3 2 7 6 2 5 7 3 13 15 15 6 6 5 9 1 6 5 6 3 7 8 9 16
27 27 26 25 24 23 22 22 21 21 21 22 18 15 13 6 6 9 4 4 4 3 0 9 5 1 7 10 16 17 12 3 6 9 5 4 3 4 8 7 5 12 9 12 14
28 28 26 25 24 23 21 21 20 20 20 21 16 14 11 5 9 2 3 4 0 5 2 7 5 2 10 14 9 9 7 1 3 2 5 3 11 7 0 11 11 11 13 13 14
29 28 26 25 24 22 20 20 19 18 19 18 15 11 9 5 7 4 5 3 9 9 5 8 6 8 11 8 2 4 1 3 3 3 1 1 4 10 7 9 14 15 14 11 6
31 29 26 24 23 20 20 20 18 18 17 15 12 8 5 4 5 5 8 6 6 7 6 5 9 11 6 2 1 3 4 4 3 11 11 2 2 7 7 18 13 12 9 9 6
31 30 26 24 22 20 19 19 18 17 15 12 10 7 5 3 2 7 7 7 3 8 3 3 3 4 6 3 3 4 10 9 6 17 4 8 5 9 10 14 15 12 16 15 13
32 29 26 23 20 19 18 18 18 16 14 10 9 4 1 7 4 5 4 3 7 3 4 4 7 6 2 4 6 5 5 9 12 17 9 12 9 14 13 11 12 9 16 17 15
30 29 25 22 20 18 18 17 17 14 13 10 11 12 14 8 11 9 10 6 7 9 1 3 5 2 6 12 10 14 16 12 16 15 12 14 14 17 14 14 15 12 12 12 13
28 27 25 22 19 17 17 15 19 21 18 12 16 16 18 10 11 13 12 12 11 9 4 6 5 7 9 15 20 16 17 30 21 16 12 18 17 17 19 19 14 12 16 14 11
26 26 25 22 19 18 17 14 17 17 21 11 14 14 16 11 10 16 15 12 14 12 12 15 16 14 21 17 19 9 12 3 6 9 11 12 17 19 20 16 13 13 16 20 18
26 26 25 22 19 17 15 13 12 12 11 12 13 12 18 15 13 18 17 15 16 12 7 12 17 16 19 15 4 3 14 11 4 4 7 6 4 2 18 18 15 17 17 22 23
27 26 26 24 19 19 17 14 10 6 4 1 10 3 13 15 3 16 9 20 17 12 10 8 7 6 10 11 5 8 8 3 3 14 14 8 3 10 22 20 21 24 26 26 24
30 27 27 23 20 18 14 12 12 6 8 9 11 13 14 16 11 6 13 15 15 13 14 8 8 6 17 5 6 3 9 9 6 6 11 25 13 9 21 25 23 23 23 24 27
34 30 28 27 21 24 19 16 12 8 6 13 17 13 19 15 14 8 12 14 21 11 13 13 13 9 8 10 6 10 8 2 5 7 5 10 11 24 16 19 21 26 29 31 29
36 35 31 28 28 25 24 24 13 8 16 5 17 14 22 21 15 16 18 15 21 17 14 16 7 15 13 17 12 12 8 3 4 2 6 2 9 1 15 19 17 19 27 25 30
39 39 37 31 30 28 32 34 20 15 19 10 11 20 19 19 19 19 21 19 20 22 25 8 5 10 12 4 11 14 4 10 8 11 4 4 3 6 14 15 16 23 25 28 23
44 43 38 32 33 34 38 40 31 22 11 15 16 17 19 21 21 22 22 15 22 24 23 22 8 9 15 15 10 9 7 6 6 1 3 4 5 10 18 16 10 18 16 14 18
46 44 40 37 37 40 51 43 34 31 17 8 7 16 18 21 21 22 19 20 17 13 27 17 12 8 15 24 16 14 14 12 12 9 5 1 3 3 8 8 5 9 8 9 12
48 46 41 43 45 50 53 49 31 34 24 18 17 15 19 18 24 25 21 19 13 15 15 9 8 9 26 10 15 11 8 8 12 9 5 2 10 7 5 9 9 7 9 11 12
52 47 32 45 51 56 53 50 42 34 30 17 21 21 19 15 14 19 22 21 21 21 14 14 8 10 12 11 10 14 14 21 17 13 15 6 4 3 11 14 14 8 15 17 17
53 42 41 41 54 53 54 50 49 39 31 21 19 24 19 16 14 11 26 21 18 20 18 17 11 9 13 11 11 12 11 9 15 19 14 16 18 20 18 21 17 13 13 15 18
58 47 52 52 58 48 40 47 46 47 36 26 19 20 21 18 15 13 21 16 15 13 15 14 20 16 14 13 18 13 13 11 11 16 18 16 17 17 17 14 17 12 10 15 16
57 49 54 37 49 52 44 44 49 44 37 31 25 25 20 22 19 22 18 15 19 16 17 17 18 17 15 18 18 15 13 19 21 17 16 15 17 11 10 7 9 12 10 12 19
63 51 45 54 26 49 57 44 46 40 35 26 26 21 23 23 19 20 18 21 19 16 16 16 16 16 13 15 19 20 24 23 20 20 20 18 16 13 15 14 13 16 15 15 17

GFSSW_700_spd_060.txt.gz
Wind_Speed
21 20 20 19 22 20 23 23 22 22 23 23 23 24 20 17 12 11 8 6 4 6 7 7 4 3 2 2 9 7 13 13 13 10 9 11 14 13 17 19 19 19 14 11 6
22 21 20 21 22 23 23 23 21 22 22 22 21 22 18 15 10 8 6 7 3 5 7 5 7 10 4 9 3 9 9 8 12 11 15 10 15 20 15 16 16 18 18 13 10
25 23 22 22 23 23 24 23 21 22 21 20 20 20 16 14 8 4 4 7 5 4 6 6 8 6 8 5 7 6 13 13 19 14 9 11 16 6 5 6 5 10 19 16 14
27 25 24 23 24 23 23 23 21 21 21 20 19 18 14 12 2 2 6 4 5 4 3 9 7 4 2 5 8 15 19 10 9 9 9 11 9 2 3 5 5 9 6 13 11
29 26 24 24 24 23 22 23 21 21 20 18 18 16 14 9 6 7 1 5 4 2 3 9 7 1 6 12 15 17 5 5 5 5 6 7 7 7 4 5 11 8 15 11 14
29 27 25 24 23 23 21 21 20 20 20 17 17 14 12 6 6 6 4 8 8 6 3 7 3 4 7 6 14 9 8 5 2 2 4 1 2 4 2 6 12 14 13 13 19
30 28 26 24 23 22 21 20 19 20 19 16 15 12 8 5 7 5 7 9 10 10 6 5 5 7 8 3 5 5 1 5 6 6 4 5 3 2 6 12 18 17 15 10 8
30 29 28 25 23 22 20 19 19 19 19 15 13 9 6 4 6 1 10 8 7 9 5 7 6 5 3 1 3 4 4 6 3 5 5 2 2 4 8 9 16 14 15 7 9
29 29 28 26 23 20 18 18 18 20 18 15 11 8 1 2 1 6 11 6 7 9 7 1 2 4 4 2 2 2 6 3 2 5 7 4 6 5 10 10 13 12 11 8 7
26 26 27 27 23 19 18 18 19 20 18 15 12 7 6 10 11 8 11 6 4 2 2 4 8 8 7 2 4 6 12 9 11 12 11 8 8 10 8 12 11 13 13 6 3
24 24 25 25 23 20 16 18 19 19 17 13 14 10 15 14 15 15 13 9 6 6 3 1 3 9 13 11 9 15 16 23 12 16 15 15 10 17 13 14 12 13 13 8 6
24 23 23 22 21 19 16 16 18 21 19 15 16 14 18 15 11 15 15 12 11 9 7 7 8 7 7 9 15 14 19 21 21 18 17 20 14 20 16 17 15 8 11 11 13
25 23 22 21 21 17 16 16 21 17 21 11 17 13 20 17 10 14 20 15 11 9 12 17 9 6 13 14 10 21 21 17 9 4 13 14 17 24 21 21 18 14 12 13 15
28 23 21 21 19 17 16 17 17 13 12 12 12 11 23 21 14 20 22 17 17 16 14 10 5 8 11 16 17 16 9 14 9 6 9 2 9 20 25 25 22 18 20 18 18
31 26 23 22 18 16 17 16 13 9 3 3 11 8 16 21 7 20 20 17 14 17 12 10 4 7 8 6 8 8 10 2 4 4 4 6 2 14 20 26 24 25 24 24 23
33 30 26 22 19 18 18 16 12 7 8 10 13 11 17 19 13 24 21 12 16 21 14 12 6 6 6 3 5 13 8 7 9 2 2 11 6 20 20 27 28 27 25 26 24
37 33 28 24 21 23 21 18 11 8 7 14 16 13 15 22 18 19 22 18 13 20 16 15 14 10 3 9 9 7 8 3 3 3 5 5 8 18 14 15 26 28 26 24 25
41 36 32 25 28 26 25 23 14 9 16 5 20 15 14 22 23 16 16 15 10 19 15 15 12 13 9 9 11 13 7 4 3 3 5 4 7 9 10 12 14 16 18 27 26
44 41 39 28 31 29 32 34 19 14 20 14 23 22 19 19 16 16 20 16 15 17 22 9 13 12 9 5 6 7 8 6 3 7 4 4 7 12 13 15 14 19 28 24 26
49 45 44 34 36 34 39 43 30 24 10 13 19 21 22 22 23 23 21 16 21 17 23 24 11 14 14 20 14 11 7 2 4 2 3 4 7 8 13 17 17 18 24 23 26
50 47 47 40 39 41 50 42 39 35 22 9 12 17 20 22 22 25 16 16 15 11 20 28 25 12 14 18 19 17 12 12 10 10 4 1 4 3 1 10 3 6 4 3 10
54 49 47 46 45 52 56 46 34 39 33 22 15 12 7 22 22 24 30 23 13 16 16 24 23 19 16 13 23 16 17 21 15 7 6 4 6 6 8 12 11 9 8 4 5
56 44 36 48 54 57 55 49 47 42 43 36 24 9 14 16 11 22 24 25 17 13 18 18 13 7 8 15 18 17 16 18 17 15 15 6 9 8 5 10 15 17 15 11 12
52 43 36 49 59 56 58 54 52 43 43 40 33 22 18 20 15 9 23 22 19 17 18 21 19 15 20 17 13 11 11 14 12 12 14 18 17 15 17 20 18 19 19 14 16
50 45 57 55 66 64 50 53 51 50 46 40 35 27 19 18 19 14 19 27 21 21 22 21 16 18 13 12 14 13 10 12 15 13 9 13 20 16 15 16 14 19 21 17 15
55 46 48 45 58 63 55 56 53 49 44 43 37 24 21 21 25 13 19 22 21 21 20 17 19 20 23 24 22 21 16 16 17 17 20 18 18 12 13 13 13 14 20 18 17
53 48 46 57 34 59 69 60 55 44 42 40 34 27 25 20 23 17 18 15 16 15 14 15 18 19 19 19 19 24 28 24 22 23 25 23 22 18 14 10 9 13 21 21 19

GFSSW_700_spd_063.txt.gz
Wind_Speed
21 20 20 19 19 20 20 21 23 23 24 23 21 20 18 15 14 12 8 7 5 5 4 5 8 7 2 3 6 10 9 8 9 6 7 12 7 9 12 12 14 16 15 15 13
22 22 21 21 20 21 22 22 23 22 23 22 21 19 16 13 13 9 6 6 5 5 4 5 9 7 5 6 5 8 10 7 7 7 12 8 10 12 12 16 19 22 23 15 11
26 25 24 23 22 22 22 22 23 22 21 21 19 18 16 13 11 4 3 6 4 4 4 6 9 9 8 3 3 9 13 8 16 9 6 9 10 9 6 9 10 11 14 16 11
29 28 27 25 23 23 23 22 22 21 20 19 18 17 14 11 4 4 5 2 2 4 3 7 6 2 2 5 8 13 7 14 4 5 4 6 8 4 3 4 7 7 10 12 9
31 29 27 25 23 23 23 22 21 20 19 19 17 17 14 10 7 6 5 1 3 2 4 8 4 0 4 8 9 5 7 6 5 3 2 4 7 7 5 5 10 9 14 12 10
32 30 29 27 25 24 23 22 21 19 18 18 16 16 13 9 5 5 3 5 6 7 6 7 1 2 2 6 8 9 7 6 5 2 7 4 6 7 6 6 5 7 8 9 9
31 30 29 27 26 25 24 22 21 18 17 16 15 15 11 8 4 4 6 8 8 8 9 8 5 1 2 5 5 8 5 5 5 4 6 1 3 5 3 15 10 10 24 22 13
30 28 28 28 26 26 25 22 21 19 16 15 13 14 8 5 2 6 10 10 9 7 2 7 5 5 2 1 7 4 3 1 3 4 5 4 3 1 3 5 12 15 13 12 17
26 25 25 26 27 26 24 23 21 20 16 15 12 13 7 8 9 14 12 11 9 7 1 3 4 7 5 5 5 7 6 1 2 5 6 6 6 3 6 7 7 8 12 12 15
25 23 22 24 26 26 25 23 22 21 17 14 14 13 11 12 10 18 14 11 6 3 2 2 1 7 9 5 5 1 6 10 11 9 12 12 6 7 5 7 7 4 9 7 10
23 23 21 21 23 23 23 23 21 22 20 15 13 9 10 15 14 22 17 12 8 4 3 3 7 7 5 10 10 8 11 17 7 7 13 14 16 13 9 10 10 7 5 7 8
24 24 21 21 21 20 20 20 22 23 22 17 16 17 18 21 19 22 18 15 13 8 5 6 7 8 8 10 14 16 17 18 13 6 12 12 14 18 15 10 10 5 4 8 10
27 25 22 22 20 18 19 22 19 18 22 17 21 20 23 24 20 22 23 17 13 8 7 11 13 9 11 9 11 16 17 14 13 14 9 9 11 17 20 17 15 15 12 10 9
31 27 24 23 20 17 19 20 14 13 13 15 13 19 25 28 22 18 25 20 18 11 10 10 8 12 12 12 13 17 7 10 12 11 5 9 4 19 25 23 21 19 17 14 13
36 31 27 24 19 18 19 16 11 9 4 4 11 14 20 26 11 20 27 26 20 13 11 7 6 7 5 3 6 12 11 9 6 5 7 8 6 7 27 29 26 25 23 22 16
40 35 31 26 19 18 16 14 11 6 8 6 15 15 23 28 14 19 30 24 16 14 13 14 10 7 7 7 7 4 10 7 7 3 1 2 3 5 16 22 26 27 28 28 21
44 40 36 28 20 24 20 17 11 9 7 12 18 16 21 24 20 23 32 28 22 16 20 18 17 13 13 10 6 6 3 3 2 3 4 3 4 12 14 14 18 24 29 31 28
47 44 39 32 27 30 27 24 15 7 17 9 20 17 18 25 25 25 29 29 23 14 14 19 11 13 10 9 7 7 6 3 3 3 3 3 5 7 12 14 12 9 14 24 25
50 48 46 36 32 34 35 35 17 18 15 15 19 22 20 24 23 27 24 27 22 18 18 12 9 9 11 9 8 8 9 9 2 3 1 5 11 15 13 12 10 12 13 16 15
55 52 50 38 37 38 42 44 30 31 11 14 15 23 26 23 26 26 22 22 23 20 16 21 11 9 13 12 13 10 10 6 6 3 3 5 6 10 11 11 11 12 13 14 17
57 55 53 44 43 43 55 50 33 34 20 11 14 21 24 22 31 29 18 21 18 22 22 21 20 19 20 19 20 19 19 14 9 5 4 1 6 8 8 5 6 6 7 7 9
55 57 56 50 51 50 60 49 34 42 33 25 15 15 22 25 23 30 29 19 19 18 20 21 17 24 28 22 20 24 24 18 12 7 7 6 13 10 12 17 11 11 7 7 7
56 50 41 51 59 58 56 55 44 44 46 38 27 14 15 9 29 26 23 26 25 17 19 20 14 18 15 19 20 14 19 18 20 21 17 8 11 15 15 13 12 14 12 13 11
50 44 37 48 63 57 53 50 54 45 47 45 40 25 14 16 13 17 25 27 24 24 21 19 18 19 16 18 18 22 23 18 18 21 20 24 26 21 19 18 17 21 21 16 16
54 50 52 58 68 58 52 53 52 52 47 46 46 42 27 15 16 14 13 17 24 23 24 24 20 23 22 14 16 18 18 17 16 19 18 19 18 17 17 18 18 14 16 19 19
57 46 50 53 66 62 45 55 53 50 43 44 47 43 36 28 15 9 16 16 20 22 23 30 16 20 17 15 15 19 22 19 18 20 20 21 22 18 18 18 18 16 14 15 20
52 43 54 53 50 58 69 55 56 47 52 47 33 41 36 28 16 16 16 14 18 24 25 28 25 19 20 19 20 22 31 31 32 29 29 29 29 28 30 28 23 18 14 18 22

GFSSW_700_spd_069.txt.gz
Wind_Speed
22 21 20 19 18 18 18 19 19 20 21 21 21 20 18 16 15 11 10 7 7 6 7 5 5 4 4 4 2 2 4 3 2 2 8 8 7 8 11 13 12 11 11 10 9
23 22 21 20 20 20 20 20 21 21 22 21 20 19 17 15 13 12 6 5 8 7 6 4 3 3 2 2 2 2 4 2 3 8 7 7 9 11 13 13 14 13 13 14 18
29 26 25 23 23 23 23 23 23 23 22 21 20 18 17 15 12 8 3 5 5 5 3 3 2 5 2 1 2 3 3 5 6 8 5 4 7 10 10 10 11 12 13 15 11
33 32 29 28 27 26 25 25 24 23 22 21 20 17 16 13 8 6 5 4 4 4 2 4 5 5 4 4 5 6 6 9 5 4 5 6 8 6 7 11 10 10 8 6 10
32 32 34 31 30 29 27 26 26 24 23 22 20 17 15 13 10 8 6 5 3 4 4 8 5 5 6 3 6 7 8 5 2 2 5 5 5 5 11 17 15 15 12 8 10
35 33 33 34 33 31 29 27 27 25 25 23 21 18 16 12 9 8 8 4 3 5 9 8 5 6 3 3 3 3 4 3 2 1 4 4 5 5 9 18 6 8 10 9 9
33 34 33 33 35 32 30 29 28 27 25 24 22 18 16 13 9 9 10 6 5 6 11 8 6 5 2 2 1 6 4 2 2 1 2 4 6 5 7 14 14 7 11 10 8
30 30 30 32 33 33 31 30 29 28 25 25 23 19 15 14 10 11 12 11 9 8 10 9 8 7 5 2 4 4 3 1 3 3 3 6 9 6 7 9 12 14 18 14 13
31 28 27 27 31 30 30 30 30 29 26 25 24 19 16 15 13 18 17 16 13 10 11 11 9 9 11 6 7 4 3 3 0 5 3 7 9 9 6 4 6 8 14 21 19
31 29 27 25 25 27 27 28 29 29 26 26 26 19 16 12 16 19 20 20 16 11 7 7 7 8 14 10 9 10 8 4 6 5 7 8 8 8 7 4 0 3 9 17 22
34 31 29 26 23 23 24 24 27 26 27 26 22 10 16 14 17 21 22 23 19 14 9 7 6 8 13 11 8 9 6 8 8 11 7 8 11 7 8 6 3 5 5 12 16
37 34 30 29 23 22 21 24 22 24 28 29 25 28 21 16 20 23 26 27 24 18 13 10 9 6 8 9 8 9 11 12 15 2 9 7 6 7 10 6 4 2 9 12 14
42 37 33 31 26 21 19 22 20 21 26 29 26 29 23 28 23 26 30 28 24 20 16 13 7 8 8 11 10 8 5 7 10 4 7 7 8 11 11 12 10 10 10 13 10
47 41 36 33 30 21 19 18 18 18 18 27 22 24 28 30 30 26 33 27 25 22 17 11 12 10 12 13 12 12 4 6 9 3 1 2 3 7 12 14 16 14 15 14 16
50 45 41 36 32 27 23 17 14 12 5 8 14 20 20 34 24 32 35 31 26 22 20 11 5 3 10 10 9 9 6 7 6 3 3 4 4 6 9 13 13 16 18 17 16
53 50 46 41 32 26 23 31 17 9 9 7 8 14 19 30 30 29 37 33 28 23 20 17 11 9 3 6 3 6 6 5 3 2 2 4 8 5 8 10 7 9 16 21 20
57 53 51 45 34 30 24 17 15 12 8 10 11 15 16 29 31 27 41 37 32 24 24 21 19 14 9 8 8 7 6 1 1 2 2 5 4 10 10 8 8 8 9 16 22
59 57 54 48 38 33 29 24 19 13 29 6 11 12 18 30 29 27 39 39 36 28 18 19 12 17 10 7 7 10 9 5 3 3 2 4 6 6 10 12 10 11 13 12 18
51 59 57 50 43 38 36 36 24 26 16 30 8 13 20 26 23 27 30 40 36 37 20 16 15 9 13 11 10 11 11 7 5 3 1 5 8 11 6 9 14 9 7 4 6
39 54 60 51 46 42 42 46 37 24 27 14 21 14 18 24 24 28 24 30 36 34 29 12 6 14 16 13 12 11 6 4 4 3 3 3 5 8 5 7 8 7 3 3 5
27 38 61 52 49 46 54 52 47 26 27 22 19 15 15 23 27 26 23 19 31 33 31 27 16 11 16 18 17 17 13 9 5 4 2 2 5 6 8 9 10 11 11 6 1
30 39 38 48 48 57 65 57 33 47 32 27 20 22 16 18 23 29 33 22 14 32 34 30 14 18 21 13 16 18 16 12 8 5 9 9 16 16 3 5 14 12 11 9 4
37 38 28 40 55 62 66 56 50 36 45 39 30 19 18 17 16 23 28 28 15 24 32 30 17 18 13 17 24 19 20 18 19 19 17 10 10 8 14 12 12 15 14 13 13
45 42 36 36 64 68 54 55 47 42 42 47 38 21 18 15 18 13 22 25 29 22 25 25 28 22 19 22 16 17 23 24 22 14 18 24 25 22 16 15 12 13 12 15 15
55 41 46 52 60 71 62 55 52 41 50 42 47 40 26 14 12 16 16 23 28 30 26 24 20 19 22 24 25 23 22 18 19 19 24 26 28 22 19 21 17 17 15 19 17
55 45 54 36 62 65 48 51 52 53 50 53 51 44 39 28 9 13 12 13 20 27 33 34 28 25 24 24 23 21 22 21 18 20 23 25 31 26 21 21 20 19 19 19 19
61 54 44 63 35 51 74 58 45 46 54 43 52 47 40 37 29 22 14 8 10 13 20 29 30 29 24 26 23 21 26 24 24 25 29 34 36 29 27 27 27 28 29 29 30

GFSSW_700_spd_072.txt.gz
Wind_Speed
23 21 21 22 21 20 19 18 17 17 17 18 18 19 18 17 16 13 11 6 5 5 5 4 3 3 4 4 3 2 4 4 4 3 3 5 7 6 8 12 12 10 10 12 9
27 25 24 23 21 22 22 21 20 20 19 19 19 19 18 17 14 11 8 5 4 4 4 4 3 3 2 2 1 1 3 2 4 6 7 10 8 10 13 12 12 13 13 13 14
29 29 29 26 26 25 24 25 25 23 21 20 20 19 18 17 14 10 5 5 3 3 3 4 5 6 5 3 3 4 4 6 8 11 12 9 10 12 10 8 8 11 13 15 16
31 30 31 31 30 29 28 27 27 27 23 21 20 19 17 15 7 7 7 5 3 3 2 4 6 5 5 5 6 8 10 11 10 6 5 7 10 6 5 8 16 16 12 11 10
32 32 32 32 32 31 30 30 29 28 27 23 21 20 17 14 14 13 11 7 4 3 3 8 7 5 5 6 8 10 12 9 3 4 7 7 6 6 5 18 22 14 16 13 13
33 32 32 33 32 32 31 30 30 30 28 26 24 20 20 15 15 11 12 9 6 4 7 9 8 7 8 5 6 10 5 4 2 5 7 4 6 4 10 16 19 5 13 12 12
31 32 32 31 32 33 31 30 30 32 28 28 28 22 21 15 14 11 13 11 9 8 11 10 7 7 8 5 5 5 3 2 4 4 5 6 4 4 8 13 16 4 8 9 12
33 31 30 30 29 30 30 29 31 31 29 28 29 25 23 16 15 13 16 14 12 10 12 10 9 10 9 7 5 4 3 7 4 4 4 5 6 9 9 11 14 7 8 4 6
35 32 31 30 29 28 27 27 30 29 29 28 29 26 23 19 17 17 19 18 16 13 12 11 11 12 12 8 9 9 8 6 4 4 5 5 7 7 8 8 9 8 8 13 13
38 35 32 30 29 27 24 26 27 28 28 27 29 25 20 13 15 19 22 22 19 15 14 13 12 10 11 13 14 9 9 6 7 5 9 10 10 9 6 5 5 6 10 12 20
41 38 35 32 30 28 23 25 25 26 26 27 26 16 19 14 18 21 24 25 22 18 12 13 10 11 11 14 11 9 9 8 8 9 10 10 10 9 6 2 3 1 5 14 17
43 41 38 34 31 28 25 24 24 25 28 25 27 29 25 16 19 24 26 30 27 20 16 12 13 9 9 11 11 10 11 13 9 6 9 9 9 8 7 2 1 2 3 10 14
47 43 41 37 32 29 26 26 20 22 28 30 28 27 25 31 24 29 30 31 27 22 19 16 8 13 8 10 11 12 14 10 10 8 9 11 10 9 7 8 8 7 8 10 11
52 46 42 39 34 31 27 25 18 16 20 28 28 29 26 29 35 28 30 33 24 25 19 17 17 14 12 13 12 12 9 10 8 6 8 6 4 6 9 8 10 13 15 15 14
51 50 45 41 39 32 29 24 14 6 7 9 15 22 26 33 25 35 31 35 27 22 23 18 15 14 14 12 12 9 9 7 7 7 6 7 8 5 6 9 11 11 18 19 18
42 51 49 44 41 32 31 22 16 8 10 8 10 12 21 27 27 22 37 36 26 22 23 17 16 10 7 10 9 7 7 5 6 7 9 5 6 4 6 5 5 7 12 20 21
34 42 51 47 40 36 32 23 13 22 9 14 14 14 13 20 28 25 40 38 32 27 27 22 21 14 11 8 9 8 8 9 7 7 5 4 5 12 9 6 6 8 10 14 23
33 30 47 52 40 38 33 26 21 18 37 5 8 12 16 18 22 26 33 35 34 27 22 25 20 21 16 15 10 14 13 7 6 5 5 4 7 4 8 10 8 10 12 14 18
32 31 37 50 42 42 38 36 40 32 16 30 15 12 15 19 17 23 31 38 35 31 22 25 22 15 16 15 13 12 12 11 4 4 6 9 10 11 8 6 9 8 9 8 11
32 30 32 42 42 43 46 54 37 26 26 16 26 12 15 22 19 25 26 31 34 32 25 11 17 17 17 19 17 12 13 8 8 5 7 7 10 10 6 3 1 3 4 5 7
31 32 33 33 37 42 52 61 43 26 25 23 15 22 15 16 27 23 19 15 35 33 30 21 13 10 18 18 18 17 14 11 7 6 4 4 6 7 7 8 7 5 5 3 2
38 37 30 27 48 47 65 55 31 40 30 33 30 19 17 16 21 24 28 25 15 34 37 30 16 16 16 14 21 18 17 18 12 10 8 7 15 14 15 9 7 9 8 6 4
43 38 26 24 53 50 62 46 38 29 39 35 32 30 22 18 13 23 23 28 16 21 31 35 21 15 14 15 20 16 17 18 17 17 16 13 14 6 11 13 12 11 9 11 12
46 36 37 35 40 66 43 39 47 41 29 33 26 31 21 21 18 9 24 23 29 16 30 34 24 27 23 20 15 18 23 23 22 21 21 22 24 18 19 17 15 14 16 13 14
54 46 46 46 46 51 52 38 40 42 46 36 34 30 24 19 18 16 15 23 24 29 22 31 28 26 26 21 18 19 19 19 23 25 26 23 22 20 18 19 19 19 18 16 17
64 48 46 43 41 52 50 52 42 48 37 49 40 35 25 24 13 20 14 20 17 29 30 30 22 20 20 20 20 22 21 21 22 20 22 24 26 21 21 21 23 23 22 20 19
68 60 38 49 36 49 55 55 44 40 44 39 38 32 42 38 21 19 15 8 11 9 19 26 27 20 19 18 15 21 27 22 21 23 23 25 25 22 24 25 25 26 25 26 27

GFSSW_700_spd_075.txt.gz
Wind_Speed
25 24 22 21 21 21 21 20 21 20 20 19 20 20 20 18 17 17 12 10 6 6 5 3 3 1 3 6 6 7 10 15 5 8 8 7 8 13 10 11 14 10 11 11 12
28 27 27 26 24 22 21 22 23 22 22 22 22 21 21 18 17 17 13 8 7 5 4 2 2 4 3 5 5 5 15 5 5 8 10 11 11 10 12 12 11 13 13 14 15
29 29 29 29 27 26 25 25 25 25 25 24 23 23 21 19 16 11 8 7 7 6 3 3 7 8 7 7 8 7 12 7 6 11 11 10 9 12 10 14 4 8 14 17 15
30 30 30 31 30 28 27 27 27 29 27 26 24 23 22 18 4 14 10 10 8 6 5 4 6 8 6 9 7 12 10 9 11 11 7 9 9 9 9 10 17 17 16 18 15
31 31 31 31 32 31 29 29 28 28 28 28 26 25 22 21 16 17 14 13 10 8 5 6 7 8 10 8 10 12 12 11 11 9 8 10 9 7 7 15 17 15 13 15 16
32 31 32 31 31 32 31 30 30 29 27 27 26 27 24 23 20 16 14 14 11 9 5 9 6 10 10 10 10 11 11 10 9 8 10 9 9 5 8 14 17 18 11 9 13
34 33 32 32 30 31 30 29 31 31 27 27 26 29 26 19 21 18 14 15 13 10 9 9 10 8 6 8 12 10 12 13 12 8 8 9 13 12 9 8 13 16 10 13 14
35 35 34 33 31 30 30 29 30 30 28 27 27 28 30 21 20 17 15 16 16 14 14 13 11 10 11 9 9 11 13 14 12 6 9 7 10 12 6 7 5 12 11 7 11
37 36 36 33 32 30 28 29 30 29 28 26 27 27 28 24 21 18 18 18 17 15 14 13 11 9 10 11 16 16 11 12 9 7 8 9 7 4 4 5 3 5 7 20 4
40 38 36 36 33 30 28 27 28 29 27 26 26 24 21 16 14 17 18 22 19 17 15 14 12 12 13 15 20 8 14 8 11 7 7 11 12 7 2 2 2 1 3 14 27
44 41 39 36 34 31 28 26 27 24 29 25 20 16 19 16 18 17 19 26 20 18 17 13 15 18 13 15 17 12 12 11 10 10 10 13 12 8 6 5 7 6 6 3 5
45 45 42 39 35 31 29 26 29 27 36 28 26 27 28 21 18 19 21 28 26 24 18 17 20 15 13 10 14 14 14 13 14 10 9 11 12 8 9 8 10 8 10 12 10
42 44 45 41 36 31 31 27 29 26 34 37 29 30 22 29 26 21 25 28 27 25 22 23 13 13 12 12 13 14 15 14 17 9 13 13 14 13 11 12 12 12 12 14 17
33 38 42 43 35 36 31 30 26 22 21 27 25 30 30 29 36 28 25 29 28 28 24 23 19 13 15 14 13 17 12 11 11 12 6 12 8 16 15 12 15 16 17 17 17
32 30 33 41 42 35 27 28 22 15 7 5 16 20 25 32 19 29 31 30 33 27 26 26 21 20 18 16 14 15 8 9 11 14 16 10 11 11 13 12 15 17 19 20 21
33 31 30 35 42 34 35 26 18 12 16 10 10 10 19 24 21 8 35 31 28 27 25 26 18 18 17 15 16 12 9 10 11 14 14 13 13 10 10 9 5 8 16 22 23
38 32 32 30 37 32 28 24 19 28 16 24 15 11 12 14 27 18 36 38 36 35 33 26 23 19 15 13 14 14 12 12 8 9 10 8 7 12 7 5 6 7 9 15 23
42 37 34 31 25 36 31 33 25 36 36 8 12 13 15 14 20 23 31 38 37 34 27 29 30 26 18 21 16 19 18 11 6 3 6 6 7 12 7 6 8 9 10 13 16
45 42 37 32 24 36 35 37 50 46 21 39 14 5 12 15 11 25 33 39 40 37 31 29 30 25 24 19 18 16 24 18 14 7 10 11 10 13 12 9 8 7 9 10 14
34 38 41 31 26 39 40 39 46 38 37 19 34 25 14 15 20 21 30 34 37 38 31 16 23 19 22 19 19 15 15 14 15 10 10 14 15 14 6 5 5 4 3 6 9
33 35 40 30 26 39 45 49 50 32 25 33 23 20 27 11 21 20 20 18 35 34 33 26 21 23 19 26 23 20 17 16 16 17 6 9 7 3 1 6 8 8 6 5 4
40 40 35 31 33 41 59 65 46 33 29 31 28 21 24 21 14 26 23 27 15 34 37 33 19 21 25 22 23 24 23 24 20 18 15 19 20 16 13 14 13 10 10 9 6
47 43 35 33 42 40 43 66 41 34 37 33 29 26 15 22 13 21 27 23 21 32 35 33 30 22 19 20 17 23 23 21 23 21 20 14 15 14 15 12 12 13 12 11 11
53 46 42 42 40 40 44 49 46 45 33 38 34 26 25 17 21 11 18 23 26 17 31 33 28 32 26 26 21 24 25 26 26 24 22 27 25 22 18 16 18 15 15 14 12
61 54 50 51 56 47 35 38 51 48 42 31 36 33 28 20 22 23 12 18 22 28 27 28 37 28 30 24 19 21 22 25 29 28 30 27 27 23 17 15 17 16 16 16 15
67 54 46 41 37 43 39 40 39 48 48 46 37 38 29 27 20 24 23 13 11 20 28 25 27 32 29 26 24 23 22 22 23 23 26 25 26 20 19 19 19 19 18 19 17
70 68 36 41 33 38 48 40 46 37 43 45 40 32 35 25 18 20 25 19 16 8 13 19 28 26 27 26 26 28 27 24 23 24 23 26 23 20 20 20 21 22 21 24 26

GFSSW_700_spd_078.txt.gz
Wind_Speed
25 24 23 23 23 23 21 20 21 21 21 20 19 20 21 21 19 20 17 13 10 8 7 7 4 2 2 9 10 11 15 17 16 14 12 13 10 14 16 19 8 3 19 16 10
26 26 26 25 25 24 25 23 21 22 23 23 21 21 21 22 19 20 17 10 8 8 7 6 4 7 8 9 8 11 14 12 15 12 15 15 15 16 13 20 20 34 9 14 17
28 27 27 27 26 25 26 26 26 26 25 24 24 23 22 23 19 17 11 5 8 9 8 6 9 10 12 12 12 13 18 17 15 15 16 16 15 13 15 16 20 25 16 25 17
30 30 29 28 27 28 27 27 27 29 28 27 25 25 22 21 7 16 14 14 12 11 9 7 6 9 11 12 14 15 16 17 16 15 14 13 17 15 14 10 16 16 18 22 15
32 32 30 30 28 29 29 28 28 29 28 28 28 26 24 23 19 23 15 16 13 12 10 8 9 8 12 15 15 15 17 16 16 15 12 12 16 13 11 10 23 19 22 22 15
32 33 33 31 30 29 29 29 28 29 29 28 29 29 28 27 15 21 16 16 14 14 11 9 9 9 17 16 14 17 18 17 15 13 15 14 13 9 17 14 22 18 22 13 13
33 33 33 32 32 30 29 28 28 28 28 29 30 32 31 21 18 21 17 15 15 14 11 7 11 14 10 14 13 17 18 16 21 16 17 9 15 12 20 7 13 17 16 17 13
36 35 34 33 32 32 30 28 28 28 27 27 30 34 36 21 23 21 18 15 16 15 14 12 15 15 14 15 17 19 16 14 21 9 13 10 17 21 4 2 8 15 18 21 13
39 38 36 36 33 31 31 29 28 29 26 27 26 31 34 23 21 20 19 16 17 17 16 16 15 13 11 16 18 15 19 21 17 10 9 13 13 11 7 8 5 14 12 20 23
40 41 40 38 35 32 30 29 27 30 30 28 26 27 19 18 12 9 17 17 19 17 15 15 14 14 15 14 21 6 13 14 16 9 6 10 14 10 6 5 9 14 14 12 27
38 39 41 40 38 33 29 27 26 27 32 26 19 25 18 13 19 13 13 19 20 20 22 17 17 21 19 19 22 17 20 17 13 5 10 14 14 11 9 8 10 10 12 7 8
35 36 38 39 38 34 31 27 22 31 37 36 34 34 26 22 24 17 16 24 27 28 21 17 29 19 19 19 16 14 17 16 17 10 8 14 16 10 12 11 15 10 9 5 3
30 31 34 36 35 34 34 25 27 29 36 43 37 36 25 28 31 25 22 26 27 27 27 25 22 20 18 16 14 14 16 17 17 16 13 11 17 11 8 13 12 8 10 6 3
29 27 28 28 29 31 26 22 18 21 20 36 25 31 26 31 35 26 28 27 27 29 28 27 22 22 16 16 15 16 13 17 14 14 11 12 13 19 14 16 16 14 17 17 10
31 28 27 27 21 20 17 26 23 12 6 9 13 20 13 34 18 27 32 32 32 30 24 31 27 25 23 20 17 18 12 11 11 15 16 16 15 15 13 19 21 18 17 19 15
33 31 29 26 23 12 24 23 18 13 12 8 14 17 20 22 28 11 26 36 28 30 32 27 24 26 25 20 19 16 14 13 14 16 15 18 14 11 4 13 13 15 20 22 22
34 34 33 29 23 13 27 20 16 20 22 21 19 13 16 17 27 23 21 41 38 35 38 32 29 26 21 21 19 18 14 12 4 10 9 7 6 11 6 8 9 5 16 16 24
38 38 37 33 22 20 23 29 20 29 41 9 12 25 20 18 19 28 24 37 39 35 31 32 24 32 23 22 20 20 20 14 5 3 5 4 7 5 8 9 6 6 10 9 17
40 41 41 37 23 24 23 36 36 38 35 37 11 17 18 20 16 22 32 34 38 41 36 32 34 25 28 23 24 20 26 24 27 10 13 12 6 16 9 3 5 5 6 10 14
37 35 41 34 26 27 31 40 47 48 37 26 36 22 20 19 21 17 24 28 34 34 37 37 25 28 32 27 23 26 18 21 20 7 9 9 15 8 3 11 8 4 5 3 10
31 37 43 31 24 31 44 54 45 56 39 39 33 32 36 36 20 24 18 21 31 33 37 41 35 21 28 35 29 24 24 16 21 18 6 4 5 5 10 4 5 4 6 6 6
38 45 40 32 33 44 56 56 41 42 39 40 33 30 32 25 27 25 24 17 19 22 40 43 19 28 23 28 25 25 24 25 19 14 13 13 18 13 8 9 10 11 11 9 10
43 47 43 37 48 53 47 52 43 33 40 42 34 33 28 25 26 21 23 27 20 17 30 34 40 23 25 32 26 28 32 26 25 25 23 14 13 10 10 11 9 13 11 13 14
47 46 50 47 47 37 36 38 38 38 36 44 34 30 31 34 23 18 17 26 26 19 13 37 36 32 20 22 26 30 27 27 29 28 20 24 22 18 19 16 16 13 22 16 16
53 57 49 51 57 40 33 26 37 34 42 40 36 35 33 30 26 20 11 16 35 22 21 19 26 39 34 28 25 27 28 26 31 28 28 22 24 21 20 17 11 8 11 8 9
60 63 42 43 28 54 41 42 37 29 34 46 44 33 27 38 24 22 21 14 24 25 14 26 22 34 32 31 34 27 27 28 27 27 28 25 27 22 20 19 16 14 16 16 15
63 63 32 47 39 37 56 39 38 29 31 41 47 37 27 29 18 24 27 32 9 26 14 11 16 27 28 31 29 34 33 22 21 22 21 23 20 18 19 19 17 14 16 14 18

GFSSW_700_spd_081.txt.gz
Wind_Speed
26 25 25 24 24 23 22 20 20 20 20 19 19 19 20 20 17 18 19 16 12 9 8 5 3 2 3 3 4 3 17 21 19 20 13 17 20 19 14 21 20 18 18 24 14
27 26 25 26 24 25 24 23 22 23 23 22 22 21 21 22 19 17 16 10 5 8 8 7 6 4 8 1 9 15 18 24 18 18 22 21 18 18 19 17 21 21 20 25 17
30 29 29 27 26 26 25 25 25 25 24 24 24 24 24 22 21 20 11 8 9 10 10 9 9 9 14 10 9 16 21 21 22 19 15 18 11 14 14 20 13 21 20 23 20
30 32 31 30 29 29 27 27 26 27 26 26 26 25 24 22 15 10 14 14 14 13 12 10 10 7 6 6 7 17 24 20 21 18 22 23 12 20 16 17 20 24 25 23 24
29 29 30 30 30 30 29 28 28 27 27 28 28 27 25 24 19 17 20 16 13 15 12 12 13 3 4 10 19 25 16 14 18 24 14 11 15 17 20 24 21 18 18 21 20
31 30 29 28 29 29 29 28 28 28 27 28 30 29 28 25 18 16 21 14 13 15 14 13 12 4 14 23 20 15 20 20 21 22 21 18 20 20 19 23 21 14 18 20 21
33 33 31 30 29 27 28 27 27 27 27 27 31 33 31 21 21 24 21 17 14 15 15 12 5 9 15 17 14 16 17 18 18 18 24 15 17 22 14 19 12 15 17 19 26
34 35 34 33 31 31 28 26 26 28 27 28 29 36 34 24 26 22 22 20 16 17 16 12 9 20 23 18 17 15 15 22 21 20 12 15 24 11 11 9 10 10 16 22 21
34 36 37 35 34 33 29 27 25 29 27 30 28 35 32 26 18 18 20 23 17 17 16 14 16 23 20 11 16 14 25 18 23 24 18 17 21 20 13 16 16 13 13 15 24
32 34 36 36 35 33 32 29 24 30 30 32 30 34 23 18 21 18 14 20 20 17 19 20 20 23 19 13 17 12 16 20 22 10 13 9 19 11 6 5 12 11 15 11 15
32 33 32 32 32 33 32 28 26 30 36 35 29 31 20 21 17 15 14 15 20 20 23 20 22 27 21 16 12 17 26 23 19 8 16 13 17 16 11 11 13 12 14 8 6
31 30 31 30 29 28 30 25 24 27 41 37 36 37 30 21 29 21 17 18 24 27 24 21 36 25 15 15 19 24 22 15 16 15 17 13 17 16 10 14 14 14 13 5 5
27 27 28 26 25 21 22 27 29 29 40 47 39 39 31 30 38 27 26 25 27 28 30 34 26 23 16 18 19 17 16 17 16 17 17 16 16 9 19 20 17 17 12 4 1
27 26 26 24 24 15 18 21 23 25 22 46 37 39 31 28 43 29 31 28 33 29 32 34 32 25 28 31 21 13 15 16 16 12 13 12 10 22 12 23 23 18 16 6 4
29 28 27 25 18 10 14 12 10 13 5 14 14 16 8 27 21 17 29 35 35 33 30 40 31 33 28 24 18 17 16 16 12 13 17 20 9 18 8 28 24 19 17 15 3
31 29 29 26 19 16 9 12 15 10 11 9 15 21 20 19 25 10 10 39 34 34 35 35 28 30 32 25 21 16 17 17 9 14 14 23 10 20 15 20 20 24 22 18 10
31 30 30 29 18 18 12 14 18 15 18 26 17 18 18 21 22 25 17 37 41 32 39 38 42 34 29 28 21 19 16 6 4 2 5 6 7 23 16 16 17 19 26 19 12
32 32 33 30 22 21 15 21 15 24 49 12 13 20 22 20 21 22 28 25 47 33 15 32 31 37 28 32 25 23 28 15 6 3 3 11 9 5 5 11 13 10 7 16 20
35 35 36 33 26 23 20 25 34 45 25 34 24 27 25 23 18 21 28 35 33 50 31 22 30 24 31 25 28 21 23 26 20 2 1 10 18 5 6 12 11 11 6 12 19
38 39 41 32 26 24 28 44 49 44 40 28 29 21 26 11 22 26 23 21 31 34 45 33 19 33 26 30 26 28 19 20 20 7 6 6 15 6 9 9 6 6 10 9 9
33 35 45 28 22 29 49 54 36 44 39 37 41 39 38 32 26 17 17 24 24 31 39 42 28 28 18 32 33 26 27 16 21 21 6 3 6 2 16 9 15 5 7 10 15
34 39 40 24 35 46 55 49 48 37 27 31 41 39 37 32 31 37 35 27 19 28 41 38 24 29 39 21 26 37 31 29 23 16 11 9 10 13 6 7 7 5 13 11 10
38 42 40 33 47 52 47 44 43 43 37 37 34 33 43 36 28 30 19 28 16 24 37 34 32 19 27 27 26 44 36 32 27 30 21 8 13 20 13 13 14 14 12 15 12
39 38 44 41 52 44 45 48 47 37 35 35 38 30 35 38 26 30 15 21 32 18 21 32 31 36 26 26 23 18 34 31 26 29 25 24 19 16 14 13 15 16 14 14 19
46 52 45 36 54 48 47 43 36 40 34 30 39 36 35 30 31 30 30 18 24 28 28 30 24 35 29 30 28 31 29 29 30 29 29 32 28 20 18 18 15 11 13 16 8
54 59 46 52 37 48 52 50 38 22 23 27 38 33 35 33 31 33 33 22 18 28 32 21 25 28 31 31 28 25 31 30 35 33 30 30 25 17 17 18 19 19 15 10 8
56 59 50 38 49 41 49 52 44 30 28 28 27 29 36 39 17 29 28 27 24 24 33 23 12 22 25 34 29 27 34 31 23 27 28 24 22 18 15 18 16 17 11 14 19

GFSSW_700_spd_084.txt.gz
Wind_Speed
26 26 25 24 23 23 23 24 23 23 22 22 20 18 20 19 14 16 15 15 14 11 11 6 5 7 4 6 6 5 10 14 20 22 20 14 17 16 14 14 20 26 24 25 20
30 28 27 26 24 23 23 23 25 24 24 25 24 22 22 21 16 15 14 13 7 8 9 8 9 11 10 13 10 9 14 10 16 19 27 17 23 20 18 25 26 25 26 28 22
32 32 31 30 28 26 25 25 25 25 25 26 27 25 24 22 20 18 17 12 10 9 9 9 9 15 13 13 11 9 15 18 26 21 23 20 20 17 19 25 29 29 24 25 21
27 28 29 31 30 30 29 28 27 27 26 27 27 26 25 21 16 8 9 12 15 14 12 11 12 13 12 11 7 14 15 17 21 18 19 21 22 18 19 24 28 31 27 26 25
28 28 28 29 28 27 28 29 28 29 29 28 29 29 25 24 20 17 19 17 20 16 15 13 14 12 12 9 13 18 19 18 18 17 18 19 23 20 23 26 27 23 18 19 24
30 30 30 29 29 28 26 26 26 27 29 30 31 30 30 25 19 16 17 17 17 20 16 16 10 11 14 11 15 22 22 17 18 17 19 21 26 22 22 24 23 18 19 22 24
39 37 34 33 32 30 28 27 24 25 29 29 32 32 33 23 24 24 21 19 18 20 18 14 11 17 14 17 18 22 21 19 20 15 19 21 23 27 21 24 21 12 16 20 27
37 38 38 36 35 33 32 28 26 26 28 28 31 34 36 26 29 24 24 19 20 21 17 16 17 20 18 19 24 22 20 17 2 8 15 17 19 15 19 17 19 14 16 18 24
32 33 34 33 34 34 33 31 27 30 30 32 32 34 30 27 24 24 24 21 22 22 19 20 26 21 16 20 23 16 17 13 11 8 10 16 19 19 21 20 17 12 14 13 17
29 30 31 30 31 32 33 31 27 33 36 34 36 32 22 20 22 14 17 19 25 23 23 26 28 24 22 21 26 13 15 13 18 22 12 10 14 19 21 16 11 12 12 12 12
29 29 28 27 27 29 29 26 28 36 39 39 35 32 25 17 23 17 22 15 23 27 30 27 28 35 26 24 23 24 21 21 21 16 17 14 21 17 18 19 14 14 13 13 9
28 29 27 23 23 23 24 22 27 33 43 41 42 44 34 25 34 25 25 22 22 29 30 24 37 27 18 18 22 24 25 28 24 15 12 16 16 18 15 17 15 15 12 13 8
28 28 27 21 19 21 21 13 20 28 39 42 41 45 37 33 39 30 28 26 26 30 34 37 28 21 21 18 24 25 29 28 22 14 20 10 13 11 12 18 18 18 13 10 5
29 27 28 22 20 18 19 11 15 23 22 40 36 40 33 31 47 34 37 32 35 33 30 37 31 20 13 21 22 28 17 19 15 11 9 11 10 19 16 23 23 21 17 13 7
29 28 28 23 17 17 11 6 10 8 6 11 11 13 10 17 24 18 29 43 42 38 35 38 34 34 33 28 20 28 23 17 16 16 17 17 10 22 17 17 25 22 16 13 10
30 28 29 23 17 18 8 5 8 7 11 7 7 13 18 16 16 8 23 40 46 38 38 35 32 24 29 23 23 22 21 18 16 10 7 8 5 23 18 23 22 24 21 15 15
30 28 29 26 15 18 10 10 12 11 12 13 7 10 17 16 16 21 9 32 37 34 43 37 41 35 29 26 28 25 24 7 4 3 6 8 9 21 17 15 16 19 19 20 17
29 29 28 25 20 21 16 18 18 19 36 12 7 12 7 9 16 22 27 22 31 30 11 33 24 41 36 37 30 25 28 14 6 4 4 6 8 12 13 14 23 18 21 15 18
31 32 29 24 23 25 23 27 31 35 9 11 26 21 19 10 7 14 27 30 35 35 30 17 32 31 40 33 28 26 31 26 20 6 2 6 15 17 12 8 10 10 14 18 18
33 34 33 26 24 24 28 42 40 39 37 31 19 8 14 16 14 14 9 10 33 34 43 31 9 20 34 29 34 30 27 19 14 7 4 6 16 11 10 18 13 14 11 11 11
28 32 37 23 20 25 41 46 40 36 36 29 35 32 38 24 11 14 12 19 9 11 37 40 33 17 14 36 32 32 35 21 21 18 6 3 9 18 14 19 16 13 12 13 10
26 34 35 28 30 39 48 41 39 21 21 21 31 37 38 32 34 27 22 27 7 21 24 41 28 39 38 23 16 31 37 35 20 11 9 18 15 9 13 15 15 10 11 12 13
31 34 36 35 41 47 43 39 42 37 34 28 27 28 24 11 14 24 31 29 26 23 12 31 34 22 31 40 36 28 20 35 37 32 28 11 12 19 19 15 16 16 15 16 15
38 41 44 39 50 39 42 42 39 26 23 20 33 36 36 30 25 25 34 31 28 16 12 20 35 45 29 20 26 26 25 25 37 34 28 31 27 22 18 18 17 16 20 15 18
48 53 47 36 56 49 46 36 36 39 35 30 34 33 31 35 27 29 32 36 32 21 19 16 31 38 37 38 27 21 21 17 40 38 33 35 31 27 21 18 19 18 14 20 18
54 54 52 55 44 44 48 44 45 32 28 29 29 30 25 19 27 27 13 22 28 31 9 22 21 20 31 34 31 25 31 30 20 31 31 30 27 24 27 22 21 20 18 18 19
52 55 51 48 51 47 47 45 40 34 37 35 26 21 24 16 16 25 25 19 19 27 33 11 21 24 24 21 28 23 39 33 29 23 14 22 26 27 23 21 21 21 16 19 17

GFSSW_700_spd_087.txt.gz
Wind_Speed
29 29 29 28 28 27 25 26 26 26 25 24 24 23 23 21 16 16 15 15 15 16 13 9 12 10 8 7 8 8 11 10 7 15 22 19 24 16 17 15 21 23 25 23 19
28 31 31 32 30 30 28 27 27 27 26 26 24 25 24 24 20 16 17 17 14 13 10 9 14 11 10 13 14 14 14 9 13 20 24 22 15 16 19 22 24 24 25 21 19
27 26 29 31 33 32 31 30 30 31 29 29 26 25 24 23 23 18 19 17 15 11 12 10 14 13 13 16 15 16 17 13 16 17 19 16 13 17 23 26 26 27 28 21 20
28 26 26 27 27 29 29 31 32 33 33 33 31 28 26 20 16 8 10 11 12 14 16 14 14 16 14 16 19 21 17 17 17 17 18 17 16 22 26 26 28 31 27 18 21
29 28 27 26 26 27 28 28 29 31 33 35 35 32 30 25 19 20 21 20 21 21 19 19 17 15 16 13 16 19 19 19 20 18 16 19 22 25 27 27 27 28 27 21 25
39 38 34 30 28 28 29 29 29 29 31 34 36 34 35 30 23 17 19 20 21 23 20 19 15 15 18 17 20 23 24 24 24 23 20 23 24 28 26 22 26 25 22 20 24
35 41 42 38 37 34 33 32 31 31 32 33 34 35 38 30 28 24 21 19 20 20 19 17 17 19 19 20 21 22 24 24 20 22 23 18 21 23 14 14 22 23 20 20 24
33 34 36 38 41 42 39 35 34 33 35 34 36 37 40 27 31 26 25 23 24 23 23 18 21 23 26 20 20 18 20 22 3 7 15 15 19 18 15 17 21 21 16 17 21
32 34 34 35 36 37 40 38 34 35 35 36 38 37 36 28 26 26 26 26 29 26 24 20 25 26 24 22 20 18 19 15 13 12 14 20 17 16 17 17 18 16 13 16 21
32 31 30 31 32 33 34 33 32 33 35 38 42 36 26 26 24 13 16 19 29 30 27 25 30 30 31 26 27 20 19 16 16 12 20 23 23 17 23 17 15 14 13 15 19
32 31 29 28 30 31 31 26 28 31 37 39 42 40 32 28 23 15 22 25 19 29 32 29 33 39 39 33 29 21 15 13 13 13 25 19 14 12 20 19 14 10 9 13 15
32 31 29 28 27 27 27 25 23 29 39 37 41 45 39 34 38 28 25 22 26 30 30 32 40 36 35 29 29 27 26 22 14 13 22 15 20 17 18 19 12 11 9 9 13
33 33 29 26 25 23 22 19 21 26 35 38 35 43 37 35 41 31 33 28 28 28 33 40 38 32 38 34 29 29 27 19 17 17 19 18 21 18 16 13 14 17 14 6 8
33 33 30 25 25 20 17 15 16 21 23 32 30 25 22 32 44 32 35 36 35 35 30 31 35 23 19 33 28 30 23 21 18 19 16 11 10 18 20 14 11 17 18 12 8
34 33 30 27 22 18 12 10 8 9 6 9 8 11 8 9 12 5 24 41 45 36 30 33 29 38 36 23 25 29 19 21 21 24 23 18 15 18 17 21 15 14 17 13 9
34 32 30 26 21 19 11 10 9 4 10 2 2 7 7 10 7 8 11 29 41 45 37 35 31 23 31 31 29 18 21 21 23 19 8 16 12 19 14 17 15 14 13 16 12
33 32 31 26 20 18 12 13 9 11 7 4 5 1 3 2 6 13 13 13 27 27 47 43 37 33 26 22 26 26 24 5 6 6 6 14 11 27 19 14 15 11 10 10 14
29 29 30 26 21 20 16 19 16 14 26 15 15 4 9 9 8 10 15 21 19 23 9 32 25 37 35 37 27 31 30 13 6 4 5 10 8 13 6 10 16 17 11 13 12
25 28 30 23 23 24 22 27 23 21 15 12 12 16 9 5 7 11 8 19 19 22 22 9 18 21 31 35 37 37 31 25 29 5 2 7 12 22 16 14 10 12 18 16 14
25 27 30 25 26 27 28 39 34 30 20 15 20 9 11 18 15 11 10 4 5 13 15 31 32 18 14 18 36 41 22 19 18 7 5 5 11 16 8 5 9 11 11 10 9
22 26 30 21 26 26 37 43 41 40 31 25 23 24 33 33 29 26 18 13 11 6 7 12 26 29 16 23 27 38 42 29 21 26 8 2 8 23 13 7 14 14 12 10 9
25 29 26 18 27 35 42 38 38 32 30 23 26 31 34 30 25 22 26 26 13 23 22 10 12 24 41 26 12 29 41 41 27 8 12 20 20 4 10 13 17 12 14 13 11
29 30 29 27 33 39 36 34 34 36 30 23 22 14 7 9 12 11 19 24 24 30 16 17 5 13 25 30 43 43 25 23 36 27 32 14 17 27 12 13 16 14 12 15 15
31 31 35 35 39 35 36 35 32 29 29 29 36 29 28 28 22 18 18 14 18 24 29 35 27 25 19 17 19 29 30 26 24 27 23 33 32 31 22 24 21 16 15 13 14
38 43 38 23 42 41 37 38 33 34 32 23 25 25 23 26 27 31 34 28 24 25 30 36 23 21 26 34 26 19 27 27 28 24 28 32 36 34 29 24 20 17 17 17 19
48 49 45 45 40 37 42 45 38 29 26 31 32 28 22 23 20 21 17 17 16 12 18 26 25 19 20 20 37 42 36 28 27 18 19 32 39 35 28 31 23 24 21 21 20
53 54 49 41 43 47 50 44 45 34 33 34 31 25 25 17 12 14 16 19 22 23 18 15 21 14 20 11 17 24 42 41 39 37 17 22 35 30 28 26 22 22 25 22 19

GFSSW_700_spd_090.txt.gz
Wind_Speed
32 32 33 33 31 29 28 27 27 28 28 27 27 27 26 24 20 20 18 16 16 16 17 13 14 14 13 13 12 14 14 13 13 10 19 17 19 15 15 16 15 20 23 28 27
30 30 31 33 34 34 32 31 30 30 30 29 29 27 28 25 22 20 20 18 17 16 15 12 14 16 14 15 16 18 17 13 9 13 19 16 16 16 16 16 20 23 25 27 25
26 27 28 29 30 30 31 32 33 33 33 33 33 29 28 26 23 21 19 18 18 16 14 12 15 16 16 16 18 20 19 12 14 15 17 18 17 16 17 19 22 25 25 26 26
28 27 28 28 29 29 29 29 30 32 33 35 36 33 32 26 17 9 10 10 13 15 14 13 15 19 18 19 19 26 23 20 21 20 18 18 19 21 21 23 28 27 23 25 22
33 33 34 33 31 30 30 29 28 31 32 33 34 34 35 32 25 26 21 21 19 17 18 19 19 20 20 20 18 23 22 25 26 25 22 20 22 26 29 26 23 21 23 22 22
32 33 33 35 37 36 34 32 30 31 34 34 33 31 35 37 28 29 24 25 25 24 25 23 21 20 21 21 21 21 21 27 30 29 26 26 26 29 22 20 15 18 20 21 21
34 34 35 35 34 37 40 39 39 39 35 37 37 35 37 27 29 28 24 24 23 21 22 21 21 21 23 22 22 24 28 30 29 28 24 19 23 25 22 15 18 20 20 17 19
33 33 34 36 36 36 37 37 40 41 40 40 39 39 42 26 29 26 29 31 30 27 22 20 21 24 28 24 20 22 25 26 6 9 8 12 19 16 15 14 18 19 17 16 18
34 32 32 33 36 37 36 37 40 39 39 39 40 39 39 27 24 25 26 29 32 32 28 24 23 26 27 28 26 26 27 24 16 13 11 11 18 12 19 22 21 20 15 14 17
34 33 33 32 32 34 35 33 35 38 42 42 40 35 33 27 28 20 22 20 31 34 33 31 27 30 31 32 31 24 23 25 23 15 12 18 19 14 13 18 20 20 14 10 14
34 33 32 32 31 33 32 30 29 34 35 36 37 39 29 27 21 23 16 19 20 23 29 36 36 38 36 37 35 26 20 16 15 16 21 18 21 13 14 19 21 17 9 9 11
34 33 32 31 31 31 31 28 29 31 39 30 35 40 36 29 37 30 21 22 24 26 20 30 43 36 36 33 34 31 28 28 23 16 22 19 22 17 15 16 17 17 13 9 9
34 33 32 31 30 29 28 25 27 30 36 38 34 33 29 32 38 34 31 24 25 26 27 32 29 32 37 37 32 34 33 30 26 20 23 23 22 18 13 17 20 17 14 12 6
35 34 33 31 29 25 23 20 22 25 25 28 18 9 8 18 28 26 31 40 42 37 29 28 31 32 18 34 37 34 33 27 24 26 21 19 9 25 20 21 24 16 10 10 8
34 34 33 32 27 23 20 17 15 15 6 9 7 6 7 7 3 7 12 31 42 39 30 28 23 27 37 19 28 36 35 23 23 21 25 28 16 27 22 26 25 14 10 10 9
33 34 33 31 27 22 16 14 12 6 9 3 4 1 3 4 4 8 7 8 23 35 31 32 27 19 18 30 29 12 19 19 19 23 11 23 18 15 15 21 7 10 12 12 12
31 32 33 31 24 21 14 14 8 10 5 4 5 3 4 2 3 8 13 10 8 16 34 34 32 32 22 19 18 31 25 2 3 5 6 9 14 26 23 23 21 12 6 11 15
29 30 31 29 23 21 16 18 15 13 23 13 9 6 7 6 6 7 6 5 7 15 11 19 22 44 33 32 20 23 34 12 6 4 4 9 9 13 11 10 11 13 12 12 18
25 28 29 21 22 23 22 26 20 22 16 15 10 14 8 5 7 7 8 3 3 17 9 5 10 8 24 34 32 28 23 31 23 8 5 9 12 15 20 15 20 17 15 16 14
22 23 25 18 24 26 27 39 29 26 17 7 4 7 9 13 17 17 12 4 1 1 1 11 15 15 12 15 26 36 26 18 14 5 5 5 8 11 6 6 10 9 12 18 15
22 23 24 15 21 27 35 40 36 37 15 21 24 24 27 31 29 24 10 13 13 7 9 8 9 12 16 15 17 26 34 29 15 24 5 2 8 21 19 13 11 8 10 11 10
22 21 23 14 22 31 35 34 38 35 30 28 31 27 29 30 32 29 21 17 13 22 22 23 10 8 24 29 11 13 28 36 27 11 8 17 22 9 16 12 16 11 16 13 11
23 24 23 22 29 30 32 34 34 34 31 28 24 17 20 20 15 15 15 16 8 10 4 11 5 8 7 14 28 31 27 18 29 29 33 15 11 16 23 12 10 15 11 13 13
25 24 28 30 34 30 31 32 31 29 29 26 30 24 19 21 19 13 12 9 9 10 16 19 19 16 10 19 23 27 27 37 31 26 30 41 25 24 24 23 16 14 11 14 18
33 35 30 21 37 38 32 32 29 31 25 18 19 23 26 32 28 30 32 31 26 18 18 15 23 26 30 31 30 35 33 29 41 43 28 29 35 35 30 27 24 27 16 17 17
39 40 37 39 33 24 31 42 39 31 25 25 26 23 19 22 21 21 17 12 9 8 12 22 23 17 37 37 28 27 37 34 34 36 37 29 26 24 21 27 30 25 26 20 19
37 41 39 40 38 43 44 37 33 28 32 32 23 21 22 17 19 19 17 21 19 16 19 24 14 13 13 19 27 20 40 41 37 34 30 28 19 17 26 30 27 24 25 26 25

GFSSW_700_spd_093.txt.gz
Wind_Speed
29 28 29 31 32 33 32 32 32 32 32 30 29 28 27 23 20 21 21 19 17 18 17 15 16 15 15 14 13 13 15 15 16 14 9 10 12 11 14 16 16 20 20 22 23
26 27 26 27 29 30 31 32 32 33 34 33 32 30 29 27 23 21 20 22 19 20 19 16 16 15 15 15 17 19 19 15 14 12 11 11 13 15 16 17 20 21 20 23 22
27 26 26 26 27 28 29 29 31 33 33 32 32 31 31 28 27 25 20 20 20 20 20 17 16 16 16 17 20 22 23 14 13 16 17 16 17 16 17 21 23 24 24 22 23
28 29 30 32 33 32 30 29 30 31 32 32 30 29 29 29 22 14 9 9 12 13 16 15 17 17 17 19 21 24 23 20 18 19 23 22 23 24 22 23 27 25 21 19 22
31 31 32 33 33 32 34 36 36 34 31 29 29 28 28 31 24 27 25 20 20 21 15 17 17 17 20 20 22 26 24 24 24 26 29 26 26 26 25 21 24 22 17 18 21
31 32 33 33 34 34 34 33 35 39 35 34 32 30 30 35 22 27 27 27 28 26 26 26 25 21 24 24 23 26 25 22 24 25 28 29 29 29 11 21 17 17 18 18 19
32 32 34 34 34 34 34 34 36 34 37 39 40 38 37 25 25 26 24 21 25 24 25 27 30 27 24 26 23 26 28 26 26 22 27 23 23 20 14 12 12 15 18 18 18
33 33 34 34 34 35 35 34 37 36 36 36 38 39 41 30 26 27 30 27 30 28 25 22 24 26 26 26 21 19 22 24 18 11 12 9 18 11 12 13 11 16 19 18 16
33 33 33 34 34 34 33 33 36 35 35 35 37 37 37 30 25 22 20 22 30 32 32 29 26 25 27 27 27 27 22 22 20 17 12 13 19 11 15 14 14 16 19 15 13
34 33 33 32 32 33 33 32 32 35 34 33 35 33 23 16 22 28 24 16 16 28 33 35 31 33 32 29 30 22 26 25 21 15 15 16 17 16 15 14 12 15 16 13 11
33 32 31 31 31 32 33 31 30 34 31 31 31 33 27 22 22 24 19 14 18 19 26 32 37 43 35 33 34 19 20 20 17 12 18 21 20 18 15 15 13 15 15 12 10
33 32 31 30 31 31 32 32 31 33 39 30 29 33 30 25 30 28 30 23 22 23 20 26 42 40 32 35 32 31 29 33 29 25 20 20 22 17 16 18 15 15 14 12 14
33 32 31 29 29 28 28 29 29 32 37 38 31 28 21 23 30 27 33 33 28 28 29 32 28 19 32 36 32 31 32 34 33 26 28 24 25 17 15 13 17 18 18 16 13
33 33 32 29 28 26 24 24 25 28 28 24 11 4 8 11 8 14 28 35 36 32 27 23 27 22 18 27 34 36 35 33 31 23 15 11 11 22 24 22 16 15 15 12 12
32 33 31 29 26 24 21 20 20 19 7 9 7 5 9 5 4 6 7 17 39 35 26 26 21 17 32 31 20 28 26 26 23 23 24 17 10 15 10 23 14 15 14 9 12
30 31 31 29 26 22 17 14 14 8 8 2 4 4 5 3 2 7 8 4 6 28 32 30 26 17 16 16 29 12 12 13 12 14 11 19 14 14 13 10 10 2 9 13 15
27 28 30 26 23 21 14 11 7 9 4 3 7 4 3 4 2 5 6 2 2 4 22 29 29 23 24 16 14 29 13 3 4 6 7 12 14 24 14 21 15 13 10 11 18
25 27 27 22 20 20 15 16 15 12 14 14 7 4 7 5 3 6 2 2 8 7 6 8 7 33 29 30 19 20 30 11 6 5 4 11 9 13 9 11 9 7 9 11 17
25 25 24 17 20 21 19 23 16 15 16 13 15 14 14 6 6 6 10 3 4 2 5 3 6 7 20 36 31 20 22 24 20 14 5 7 8 8 10 21 18 13 14 14 17
24 25 21 18 20 20 23 31 22 18 14 14 9 8 13 11 11 12 10 3 1 1 3 5 7 11 7 10 22 29 16 10 15 6 10 7 10 10 2 6 8 11 10 15 20
23 24 19 16 18 22 30 33 30 28 18 22 17 14 12 14 18 17 10 11 14 11 8 12 5 7 11 9 14 17 30 21 11 18 7 7 7 13 12 6 12 9 8 11 20
24 23 20 14 20 23 27 29 31 33 29 28 25 21 21 25 30 28 21 19 18 20 19 14 8 8 18 22 11 8 12 28 24 12 9 17 21 9 9 5 14 11 11 11 10
28 24 21 16 26 27 24 23 24 24 27 27 25 18 20 21 16 14 15 12 10 8 4 9 5 4 5 8 13 16 14 15 19 26 32 14 8 13 23 16 14 9 10 14 13
29 25 25 28 29 25 24 25 25 21 20 23 24 21 17 19 19 12 13 10 10 11 9 17 14 13 10 7 17 20 17 15 16 18 22 37 28 17 26 25 20 15 12 13 15
33 32 29 17 31 29 26 25 25 23 19 12 14 19 20 26 20 26 24 26 25 20 21 14 16 17 18 20 24 29 27 24 28 36 25 27 27 24 28 32 24 19 15 15 13
36 37 32 33 29 20 24 32 33 25 21 19 20 16 16 19 18 13 11 13 13 6 9 12 11 14 18 18 18 28 30 32 39 38 37 32 37 29 16 17 26 27 25 22 32
37 34 25 32 35 34 32 27 33 26 25 23 24 22 21 16 18 11 15 17 14 16 16 16 12 8 6 4 11 19 33 24 34 42 37 30 32 27 26 24 24 24 26 26 22

GFSSW_700_spd_096.txt.gz
Wind_Speed
27 26 27 27 27 27 28 28 29 29 29 29 30 29 29 26 22 21 21 21 20 20 17 20 17 17 16 17 16 15 13 14 14 14 16 15 16 13 15 16 21 18 19 23 23
25 26 26 26 26 27 27 28 29 29 29 29 29 29 30 30 26 22 23 21 21 21 21 21 19 18 18 18 19 19 16 14 14 14 15 17 16 14 17 18 21 21 25 23 23
26 28 29 29 29 29 30 31 32 31 30 29 29 28 29 29 27 24 26 22 20 22 21 20 21 19 19 19 20 17 22 15 16 13 15 20 19 18 18 22 16 20 22 25 18
28 29 29 29 30 30 31 30 31 31 32 34 32 29 28 26 15 12 14 12 15 14 16 15 19 21 20 21 17 22 21 21 18 18 21 22 22 23 22 24 21 22 22 17 17
30 30 30 29 29 29 30 30 31 31 30 31 32 33 30 29 19 24 25 19 17 16 15 15 19 20 19 16 19 25 21 22 21 22 25 25 27 25 27 21 22 22 16 15 17
30 31 30 30 30 30 30 31 32 31 31 30 31 31 32 32 27 22 23 26 29 29 28 25 22 21 22 21 21 14 18 21 20 21 21 23 25 22 18 20 20 17 15 14 17
31 31 31 31 31 31 31 32 33 32 33 33 34 33 32 26 28 26 25 25 22 26 29 27 28 29 19 26 25 25 24 22 23 23 21 19 26 25 12 14 15 15 14 15 17
32 32 32 32 31 31 30 32 32 32 31 31 32 33 36 31 24 25 30 27 27 28 27 25 26 31 29 23 24 17 18 21 16 13 15 14 17 8 11 13 14 16 16 18 15
31 31 31 31 31 31 29 30 30 30 30 29 30 30 32 23 17 19 23 25 22 30 33 33 31 27 24 27 23 22 23 20 16 15 14 17 18 14 14 15 14 17 16 16 15
30 30 29 30 30 30 29 31 31 31 31 29 28 19 4 6 9 17 20 22 21 17 26 35 34 30 25 24 30 24 25 21 21 12 12 17 22 21 16 18 17 15 14 15 15
30 30 29 29 30 30 30 30 30 33 28 27 27 33 24 25 22 21 20 19 26 24 21 23 31 35 31 30 30 24 19 19 17 12 13 16 22 23 20 18 17 17 15 11 13
30 30 29 29 29 28 29 28 28 29 35 29 28 27 26 25 26 25 30 25 23 22 18 18 30 28 26 30 28 30 26 24 22 19 20 23 24 20 23 22 21 20 19 15 13
30 30 29 28 28 27 26 27 27 29 32 34 26 22 17 20 21 22 31 32 31 25 29 29 16 11 24 28 29 31 31 27 26 19 21 23 28 26 22 22 22 21 22 19 17
30 29 29 27 27 25 23 24 24 25 22 20 10 6 9 9 8 11 15 28 26 22 19 26 28 23 19 24 27 30 24 26 23 20 19 10 17 17 18 23 22 22 22 15 14
30 29 29 29 26 23 21 19 19 17 6 8 7 9 7 6 9 9 10 9 25 25 21 21 21 27 26 26 21 23 17 22 20 21 23 25 17 18 16 17 14 16 18 16 11
30 29 30 28 25 21 19 15 14 6 8 4 5 5 3 5 4 8 9 6 5 21 28 27 16 19 20 19 21 14 13 11 10 13 18 24 20 16 20 14 6 7 5 12 15
30 29 29 25 22 20 15 13 6 10 4 3 7 7 3 4 3 6 5 4 3 4 12 23 32 22 21 15 17 17 13 8 9 9 8 10 17 25 9 13 14 12 14 16 16
28 28 28 21 20 19 15 15 13 4 11 10 8 4 3 5 4 3 1 4 3 6 8 6 5 28 23 28 17 22 25 12 9 10 8 14 11 18 11 11 12 9 7 12 15
28 26 24 19 20 19 18 19 10 11 12 13 11 13 13 8 7 3 3 2 0 1 4 4 6 7 19 25 24 18 27 26 25 19 9 12 10 13 13 12 11 15 11 14 16
24 25 19 20 19 18 21 22 16 17 16 15 11 9 11 10 5 5 3 3 3 3 1 4 7 4 5 7 23 27 10 14 20 9 15 15 18 12 11 11 7 9 10 14 17
16 20 19 19 17 19 22 17 17 17 20 16 14 14 11 9 7 8 8 9 7 11 8 7 5 7 8 8 9 20 27 19 14 22 11 11 12 12 18 15 8 10 12 14 18
18 20 19 17 20 20 19 15 21 21 23 23 15 14 15 15 17 19 20 15 9 15 12 6 6 9 13 10 11 10 11 24 27 22 19 23 22 3 11 9 8 5 7 9 12
23 19 17 17 20 21 14 13 15 14 12 13 16 16 17 20 19 19 19 16 14 8 4 6 6 8 6 9 17 11 9 11 12 15 29 18 6 5 16 19 16 13 5 8 10
28 19 23 25 25 18 16 19 17 14 14 14 13 15 17 18 18 15 14 10 13 13 12 10 9 12 13 5 4 7 8 11 7 11 20 28 26 27 22 16 19 13 13 10 11
31 31 21 15 29 28 18 12 17 19 14 8 11 19 19 20 21 24 23 21 18 17 15 13 17 15 19 23 23 22 22 21 21 20 22 23 24 19 20 25 24 18 17 13 14
35 29 24 20 15 16 28 25 22 15 16 10 15 12 12 19 20 14 11 13 12 8 10 14 15 13 18 19 22 26 29 30 30 26 29 34 42 30 25 20 26 24 28 23 18
33 32 29 21 23 20 22 21 18 17 22 19 14 16 18 19 23 18 19 20 22 14 11 11 9 9 15 9 15 22 33 33 35 31 27 31 32 25 30 29 25 22 18 25 26

GFSSW_700_spd_099.txt.gz
Wind_Speed
23 23 23 23 24 25 25 25 25 25 26 26 26 25 27 26 24 25 24 22 23 20 21 20 19 17 17 16 17 14 19 23 19 17 17 14 16 14 16 17 17 18 20 18 23
25 25 25 25 26 27 28 29 28 28 28 29 29 27 27 27 25 22 26 25 24 22 21 22 21 20 19 16 19 20 20 21 17 17 16 15 17 17 17 20 19 19 19 18 24
27 27 27 26 26 27 28 29 29 28 27 26 26 26 29 27 25 17 22 24 26 24 22 22 18 18 20 19 20 21 28 21 20 19 17 18 19 19 20 23 19 19 19 19 21
27 27 27 27 26 27 29 29 29 27 27 27 26 27 26 24 12 22 19 18 16 20 20 16 18 19 21 22 22 27 26 23 23 21 21 22 21 23 23 25 22 22 20 22 18
27 28 29 28 27 27 29 30 29 28 28 28 28 25 25 25 22 28 22 22 22 18 16 14 16 18 24 22 23 27 26 25 23 24 24 24 26 26 27 24 23 23 22 23 19
28 28 28 28 28 27 28 30 29 28 27 27 27 27 27 28 24 21 22 22 20 25 28 23 18 17 23 23 27 23 23 25 23 25 25 26 25 24 27 21 22 22 22 21 17
29 29 29 29 28 28 28 29 29 28 27 26 27 27 28 22 24 20 19 25 24 22 22 24 21 24 17 22 24 27 28 28 29 26 26 24 28 28 25 21 22 18 18 20 19
29 30 29 29 29 28 27 28 28 28 26 26 25 26 27 23 23 22 24 24 27 27 24 26 30 32 25 23 25 22 24 30 25 24 23 23 28 18 14 13 16 15 17 19 21
29 30 29 28 28 27 26 27 27 27 27 26 25 23 20 12 10 13 16 21 25 29 27 29 30 29 21 25 30 30 33 28 24 20 16 19 20 13 14 15 17 17 16 18 19
29 29 29 28 28 28 26 27 28 29 27 25 24 13 9 8 15 9 14 15 18 19 18 23 33 28 28 28 34 32 30 29 29 23 21 22 26 23 20 20 19 18 18 17 18
28 29 29 29 28 28 26 25 27 32 26 23 20 26 22 21 24 19 22 21 24 27 17 19 21 32 32 31 33 31 32 31 23 19 20 23 24 22 22 23 24 21 19 18 18
29 27 27 28 27 26 27 25 25 27 33 27 26 26 22 21 25 20 23 25 20 23 19 22 32 26 25 29 32 33 36 36 29 26 22 23 26 27 26 25 24 23 21 20 18
29 27 26 26 25 26 25 25 24 26 30 31 24 22 17 14 15 15 19 25 25 22 24 29 26 18 18 25 31 35 36 33 32 28 28 25 31 29 28 28 27 24 21 19 19
28 27 25 25 26 23 25 22 22 22 18 14 10 7 8 6 9 10 13 15 22 28 29 33 30 29 24 23 26 33 28 29 30 29 31 25 27 26 20 17 20 21 21 20 18
27 27 26 24 24 22 24 21 18 14 7 5 7 12 6 7 10 9 13 14 14 22 20 30 22 24 33 30 31 29 21 23 24 27 27 31 28 24 21 24 23 20 19 21 20
27 27 27 24 24 24 20 16 13 7 13 6 6 6 5 8 6 8 9 15 13 14 24 34 27 19 20 23 28 23 19 22 20 23 23 28 29 28 26 20 13 13 14 15 19
29 28 28 25 21 21 17 13 7 11 6 11 8 7 8 10 9 8 9 12 11 13 17 19 30 34 23 18 20 23 21 15 15 16 14 22 24 26 18 17 13 13 10 13 14
31 30 28 26 23 21 17 13 16 10 17 8 5 6 9 9 11 10 12 15 14 13 19 20 17 18 32 32 23 24 27 19 14 10 12 22 15 24 17 22 18 16 13 15 15
30 28 28 26 25 21 21 23 17 18 22 17 12 14 19 17 13 9 11 14 8 7 12 9 14 5 15 29 27 27 30 29 31 26 16 10 15 17 10 12 11 11 11 13 15
20 17 22 19 23 22 21 31 18 21 11 8 13 12 15 16 16 16 15 7 9 8 4 6 11 7 4 14 21 29 21 23 29 17 20 21 24 16 11 12 13 10 10 13 15
18 20 19 18 20 18 28 26 18 18 14 12 14 17 14 16 14 16 13 9 10 9 7 10 12 11 6 12 14 21 31 24 22 26 15 12 15 11 16 10 9 5 8 13 14
26 24 19 17 22 22 26 18 16 16 16 14 13 17 17 17 19 20 22 21 10 13 15 9 8 16 19 13 9 7 22 30 24 22 21 25 22 3 4 7 9 5 5 7 9
29 27 22 18 21 22 16 17 20 13 14 14 16 15 19 19 20 22 25 25 25 18 9 6 11 15 18 18 20 16 16 17 22 27 31 18 15 16 18 12 10 13 6 5 8
29 25 25 23 25 18 18 19 18 15 18 18 16 14 18 21 22 24 20 16 16 16 19 14 16 16 17 7 7 10 14 13 16 19 21 27 27 27 17 15 14 12 12 8 10
35 28 16 13 26 26 18 11 18 21 17 10 15 17 18 19 22 24 22 23 23 21 20 17 21 21 24 31 22 19 18 19 21 22 22 21 21 19 17 18 20 20 19 13 10
29 26 21 20 16 17 23 25 19 16 19 15 17 13 14 21 22 21 19 22 25 21 23 20 25 21 26 27 28 30 31 29 28 26 27 26 29 25 27 28 28 21 19 21 17
32 28 28 20 20 18 19 20 23 20 19 17 15 12 14 15 19 23 25 23 23 15 15 17 15 16 21 20 24 29 31 33 36 33 32 30 27 22 24 25 29 33 27 22 20

GFSSW_700_spd_102.txt.gz
Wind_Speed
23 23 22 22 23 24 24 24 25 24 23 25 24 25 27 25 21 22 22 22 24 20 20 20 18 17 16 17 17 17 25 29 24 21 18 10 10 19 16 16 16 13 16 20 25
23 24 24 25 24 25 25 25 25 24 24 24 24 23 24 25 22 20 22 19 20 23 22 21 21 17 18 18 19 23 30 28 23 21 22 17 16 16 18 18 17 18 16 17 20
24 24 24 24 25 26 25 24 24 25 24 23 23 23 24 24 19 14 11 12 12 17 21 22 20 17 19 20 20 24 36 27 26 25 22 19 21 18 21 22 20 20 17 17 21
25 26 26 26 26 26 27 26 25 25 25 24 24 24 24 21 6 16 19 18 17 14 12 17 20 19 22 23 22 30 29 31 30 26 27 27 23 23 23 25 22 22 22 19 23
25 26 27 26 26 27 27 27 25 25 24 24 24 24 23 22 19 25 19 16 16 15 15 13 14 17 24 23 24 28 30 31 30 30 29 27 29 28 30 25 25 24 22 23 26
26 26 26 26 26 26 27 27 25 24 23 23 23 23 22 21 15 17 18 15 14 16 17 20 15 16 20 23 26 27 30 30 31 32 32 31 32 29 30 25 24 23 23 23 28
28 28 29 27 26 26 26 26 26 24 23 23 22 23 21 17 18 19 21 17 16 20 19 17 17 22 22 25 22 27 31 32 33 31 32 29 34 33 29 25 22 23 20 23 26
28 28 29 28 26 26 25 25 25 24 23 22 22 23 21 19 18 17 18 19 21 23 23 23 24 29 31 28 26 26 28 31 27 28 33 29 41 30 24 22 16 17 20 16 24
28 28 28 28 27 26 26 25 26 25 24 22 22 21 20 10 9 7 10 13 16 19 21 25 27 31 28 20 26 28 38 35 34 30 33 29 32 26 24 17 17 17 18 17 21
26 27 27 27 27 27 25 25 26 26 25 22 21 14 7 7 11 16 16 16 15 16 18 18 25 32 23 22 33 27 30 31 34 32 28 33 31 25 22 22 22 21 15 16 16
27 26 26 25 25 26 26 24 26 28 25 18 19 25 20 21 25 17 15 17 17 20 22 17 19 24 23 26 31 30 32 31 34 35 40 39 36 28 23 23 23 23 24 20 18
26 26 24 22 24 24 24 24 23 25 33 24 26 28 25 23 26 19 18 19 19 23 18 17 31 21 21 25 27 31 32 36 36 42 37 40 33 27 26 26 25 24 24 22 19
25 25 24 21 23 22 21 24 22 23 31 32 24 25 21 20 20 15 14 16 20 20 23 27 29 21 24 24 28 30 34 33 32 36 43 42 37 34 29 31 29 29 27 23 22
28 25 23 20 24 17 19 22 18 19 19 24 17 18 18 12 13 11 12 12 17 25 23 29 25 26 28 27 22 28 29 28 29 32 33 32 25 35 32 32 31 31 26 24 23
31 29 25 21 22 19 23 20 17 11 6 2 9 9 9 14 5 11 11 11 16 17 17 28 20 27 31 32 30 31 22 24 25 31 30 37 29 33 28 22 22 20 21 22 21
33 31 28 23 23 20 23 17 12 6 10 10 12 11 13 16 12 10 11 14 15 16 19 28 25 25 25 23 24 29 24 27 26 30 22 32 34 33 30 30 27 20 22 20 19
35 35 32 28 24 25 18 12 6 12 9 14 17 14 13 14 15 16 15 18 14 14 18 21 26 26 28 28 21 19 19 16 17 18 15 26 32 28 24 28 29 19 16 16 17
34 37 35 31 26 23 17 11 17 17 23 15 8 10 15 15 20 18 18 19 21 24 23 22 24 18 22 32 28 25 26 14 10 12 8 21 11 27 27 21 20 12 11 11 15
27 32 35 33 27 21 15 25 21 23 23 24 18 18 18 19 18 15 18 21 19 11 7 15 23 2 5 13 24 32 31 29 29 31 19 14 23 24 12 13 20 14 15 16 16
23 25 30 24 19 18 22 35 25 27 23 18 16 11 15 17 22 22 21 14 13 6 4 11 15 17 13 8 14 31 26 21 25 10 10 16 24 14 7 5 16 13 13 15 16
22 25 19 20 20 25 32 34 24 25 17 13 16 19 20 18 21 19 17 16 9 6 5 9 10 20 19 15 14 20 29 27 22 29 12 9 11 6 15 19 12 9 2 7 14
20 25 19 17 22 30 31 27 25 24 17 18 17 18 17 16 17 19 19 18 3 7 13 12 16 20 26 22 20 7 19 28 24 22 21 27 27 21 3 6 7 4 3 2 10
24 27 27 19 27 24 20 24 25 20 20 18 18 14 16 18 20 20 21 19 24 19 14 10 12 20 25 27 21 21 16 16 30 32 31 16 15 7 14 8 8 11 2 9 3
25 31 26 28 29 22 22 23 22 20 20 18 18 16 16 19 19 22 22 18 15 15 18 18 20 20 17 14 11 13 14 18 25 18 28 29 28 25 21 4 9 13 11 7 5
23 34 27 14 30 26 28 24 13 21 20 14 16 22 20 19 19 21 21 22 21 20 19 20 26 27 30 32 22 22 23 22 22 21 14 16 20 18 13 13 10 9 8 13 11
28 23 24 27 16 13 17 26 21 16 16 20 18 16 15 20 20 22 21 21 22 19 21 23 27 26 32 31 34 31 29 27 27 26 24 22 26 24 20 24 22 20 19 17 12
24 24 22 14 16 16 19 19 18 20 21 13 14 17 18 16 20 23 22 23 20 18 21 24 25 28 30 26 30 35 31 29 30 28 27 28 27 26 26 21 22 27 21 19 25

GFSSW_700_spd_105.txt.gz
Wind_Speed
23 24 23 24 23 22 22 22 22 22 22 23 21 22 22 20 19 21 19 18 15 16 18 19 15 15 17 16 17 12 25 31 27 22 19 16 20 11 16 18 17 17 18 18 24
24 23 24 23 23 22 22 23 22 21 21 21 21 21 21 19 19 19 16 18 19 16 17 18 16 17 20 18 18 20 29 33 25 25 27 29 24 19 15 16 19 17 18 18 26
22 22 23 23 23 23 22 23 23 22 22 21 21 21 22 20 18 20 15 10 9 10 12 16 16 19 21 18 18 21 33 26 28 26 29 30 26 23 22 24 17 18 18 21 21
23 24 24 25 24 24 22 23 23 22 22 23 21 21 21 19 13 13 15 16 16 17 13 11 13 19 21 22 18 26 27 30 30 27 30 34 33 30 26 24 25 25 23 20 26
22 24 24 25 24 24 23 22 22 22 21 21 21 20 20 19 16 23 21 19 19 17 15 13 14 12 19 18 17 27 28 28 28 30 34 34 34 36 33 28 30 30 29 28 26
23 23 25 24 24 24 24 23 22 22 22 21 21 21 20 18 19 22 20 13 15 15 15 14 16 13 19 18 22 24 30 34 36 36 33 27 34 33 36 30 31 28 27 24 25
25 24 24 23 24 24 23 23 22 21 21 21 21 23 22 14 19 21 17 14 13 16 16 14 12 21 25 22 25 26 32 37 38 36 37 28 38 35 33 30 32 29 27 27 28
26 26 26 24 25 25 24 23 22 22 21 21 22 24 22 19 18 17 19 17 16 17 19 17 20 25 26 29 31 29 30 37 32 26 27 23 41 36 32 29 28 24 25 26 28
24 25 25 25 26 26 26 25 24 23 23 21 23 24 23 18 17 12 10 10 11 12 17 18 22 27 28 28 32 31 39 40 45 36 32 28 39 37 32 30 30 28 24 22 24
25 24 24 23 25 26 26 25 25 25 25 22 24 23 17 13 17 14 10 13 15 15 15 16 22 29 30 30 34 33 28 33 31 24 23 30 39 37 31 26 31 22 25 24 19
28 26 24 22 25 25 26 25 23 25 26 23 21 24 20 21 24 18 16 18 18 21 21 18 21 26 24 27 30 34 32 33 34 30 28 29 38 43 37 24 29 30 28 28 27
26 26 25 22 25 24 24 24 23 26 32 23 26 32 23 23 31 20 21 23 23 23 17 19 32 24 19 17 24 30 34 37 37 27 31 36 47 49 37 24 25 31 26 22 23
30 27 25 22 24 22 22 22 20 22 32 30 26 32 28 27 30 20 21 23 26 21 21 26 29 11 23 25 25 30 34 30 32 28 31 33 44 41 35 27 31 30 32 28 27
32 31 28 23 24 20 23 22 15 17 22 37 16 22 23 24 25 16 22 20 21 25 20 27 28 27 25 32 29 33 29 30 32 31 24 18 28 38 35 31 25 29 30 25 32
34 33 31 26 24 19 24 18 12 8 6 3 7 7 10 13 11 10 15 18 20 19 12 26 20 19 30 36 28 32 25 25 22 25 25 27 29 32 27 31 35 29 24 22 33
32 33 33 29 25 26 25 19 9 5 9 6 13 11 15 17 17 2 12 13 13 16 20 31 27 28 32 27 25 27 31 28 29 24 17 23 25 26 33 35 31 27 19 21 21
28 28 28 29 25 26 26 15 7 11 5 11 19 15 14 15 14 12 19 17 18 10 19 20 23 18 24 31 27 24 20 5 4 7 12 18 24 30 32 27 26 25 25 24 30
26 25 24 23 24 21 21 13 12 10 26 16 21 16 20 16 19 19 23 25 23 22 26 27 24 26 17 31 28 33 25 13 7 4 10 18 11 14 24 29 33 33 23 22 25
26 25 24 19 19 19 20 19 19 18 18 19 26 20 16 19 15 16 18 21 21 21 21 12 20 22 22 13 28 30 25 30 25 24 13 11 24 32 22 23 17 19 21 17 16
26 26 24 16 12 10 22 33 33 36 30 19 15 12 18 13 18 19 23 24 16 16 15 7 8 17 11 12 10 22 27 21 19 4 6 9 20 20 25 14 8 11 14 3 20
24 27 19 13 11 22 34 38 31 34 29 22 22 21 18 16 14 18 13 13 17 4 6 6 3 16 15 8 13 9 17 23 16 15 4 3 6 2 7 18 16 9 16 8 8
23 26 10 10 18 27 34 34 33 33 26 20 17 27 21 16 20 17 15 14 16 7 4 6 6 14 23 19 15 17 19 13 21 15 17 20 22 25 25 16 10 8 14 3 4
21 26 14 17 23 25 32 26 27 28 24 16 22 14 10 15 16 19 21 21 16 14 8 10 3 10 15 28 24 12 16 23 22 29 32 13 18 7 12 24 15 7 7 5 11
21 21 17 21 25 25 20 20 24 19 24 21 19 17 15 17 19 21 22 23 17 10 11 11 12 15 11 20 22 27 23 17 15 10 12 19 34 14 16 15 19 1 14 14 8
22 23 21 22 13 19 27 31 25 24 18 18 21 22 22 18 17 18 17 19 18 17 17 18 21 23 29 36 37 33 34 29 25 12 8 19 28 26 15 13 14 8 15 17 14
24 22 20 27 26 29 15 21 19 17 21 18 20 15 11 19 21 21 20 20 18 16 8 23 23 21 27 28 34 36 35 34 29 26 21 24 26 15 19 20 11 15 18 19 13
19 18 23 26 17 19 17 12 18 15 10 11 12 7 15 15 16 20 21 20 23 21 20 18 17 18 31 27 31 33 33 31 33 29 23 28 20 20 26 17 19 18 16 17 17

GFSSW_700_spd_108.txt.gz
Wind_Speed
25 25 24 24 24 24 24 23 23 23 24 24 24 24 26 25 23 24 19 17 19 19 19 19 18 19 19 19 20 21 28 31 29 24 16 12 13 7 11 20 18 18 21 18 15
25 24 25 24 23 23 23 24 23 23 23 23 24 24 26 25 23 21 20 18 18 18 19 20 20 22 23 21 24 29 36 37 26 22 22 20 20 20 20 18 19 19 21 22 21
25 25 24 24 23 23 22 22 23 24 25 25 24 24 25 24 23 21 19 16 16 15 14 16 20 26 26 23 26 32 39 32 28 23 22 24 26 21 26 27 21 21 18 23 20
24 25 26 24 24 23 23 23 23 23 24 24 24 22 23 21 13 11 12 16 14 14 15 15 16 24 27 29 25 34 33 29 27 22 23 26 26 34 31 29 26 25 23 26 28
24 25 25 24 23 24 23 23 23 22 22 23 24 22 22 21 15 23 20 24 20 20 18 19 20 19 24 25 25 31 30 27 23 23 26 33 37 35 38 35 28 31 31 32 32
24 24 25 24 23 24 24 22 23 23 23 23 23 23 23 19 18 19 17 18 19 20 18 20 18 17 23 21 23 25 27 30 30 29 30 37 39 35 35 31 33 32 34 32 30
23 24 25 26 24 25 25 22 21 23 22 23 23 24 26 12 20 22 19 18 17 20 18 18 22 26 25 24 27 29 33 34 34 32 33 34 46 42 36 33 33 34 30 31 28
22 22 23 23 25 26 24 24 23 23 21 24 25 27 27 19 23 20 23 20 20 22 22 21 23 27 27 28 28 28 32 39 32 27 27 27 53 38 38 39 41 34 31 26 25
22 22 22 23 24 26 25 24 23 24 23 23 26 28 27 23 21 23 23 23 21 18 21 22 26 28 28 26 29 29 38 36 37 27 24 24 45 41 36 35 39 34 31 24 27
26 25 25 23 25 27 27 25 24 25 24 23 28 27 23 21 19 18 20 19 16 15 14 20 28 33 30 31 32 30 32 33 35 27 19 22 32 32 33 35 41 37 31 22 18
25 27 26 25 28 32 32 27 24 27 27 25 27 28 19 16 15 16 17 20 17 20 22 21 25 30 26 27 27 31 35 38 34 20 22 27 36 39 40 41 42 44 35 30 23
31 31 29 25 27 29 31 28 28 27 35 27 29 34 28 25 35 25 25 29 27 28 23 27 35 27 23 22 22 22 26 31 31 24 27 31 39 40 43 41 37 47 35 33 24
31 31 30 26 26 30 30 27 25 28 36 35 30 36 31 31 36 29 31 34 33 32 29 32 17 11 18 22 23 24 28 29 33 30 26 32 44 41 41 37 41 38 27 31 25
31 31 31 28 26 29 30 26 23 25 26 40 25 25 24 31 38 29 28 33 36 33 30 28 29 29 28 28 19 32 25 30 35 32 30 27 24 39 42 39 35 32 32 30 25
29 29 28 27 24 27 30 23 20 19 6 6 4 8 10 12 15 11 23 31 34 27 24 28 20 17 22 27 23 36 28 26 24 27 33 32 15 51 34 43 39 30 30 32 24
27 26 25 23 21 25 26 21 16 10 8 6 4 9 13 13 15 7 12 21 18 23 22 29 27 22 24 21 24 25 25 27 30 26 15 25 17 47 35 34 32 26 34 31 28
26 25 24 22 19 22 22 17 8 10 5 4 7 6 10 20 19 16 13 24 21 15 19 21 25 22 23 27 22 28 28 6 6 5 14 26 24 40 31 34 33 32 33 33 30
26 24 22 20 20 20 17 14 11 6 16 34 32 31 17 13 23 17 17 23 27 23 20 21 17 20 13 16 16 19 26 17 5 8 14 22 12 21 7 21 30 27 31 36 33
26 25 22 17 20 18 15 13 14 17 20 19 36 24 15 12 6 12 12 11 20 25 29 9 17 21 16 22 23 18 23 27 29 26 10 20 33 38 35 30 21 17 12 11 19
24 23 21 19 19 19 16 24 29 24 27 19 18 12 17 22 19 10 3 11 5 7 11 8 11 25 21 16 14 7 8 8 9 4 12 9 19 21 22 20 21 17 3 4 15
25 24 19 14 17 17 22 29 30 23 15 18 18 25 23 26 17 16 3 1 10 4 3 2 8 16 13 6 7 11 8 10 9 15 7 6 6 7 11 22 24 18 11 5 9
25 23 11 8 12 18 28 24 23 25 20 25 28 26 22 21 25 17 9 14 10 9 5 4 3 7 17 21 15 9 10 13 8 8 7 17 23 26 23 19 23 15 12 9 6
23 25 13 19 21 16 25 21 26 25 24 22 19 16 11 16 12 12 14 15 15 6 7 6 3 6 11 10 9 7 1 13 18 8 11 6 11 8 14 19 21 34 10 4 4
19 15 11 12 14 20 26 28 25 22 23 23 23 24 15 18 15 16 27 13 14 11 6 5 8 11 10 11 14 24 25 26 17 11 10 22 23 20 24 21 23 23 8 12 7
19 19 16 13 12 15 16 19 24 25 26 19 17 18 17 20 19 20 23 26 16 10 9 11 16 19 21 20 21 25 32 37 27 25 20 26 24 26 27 11 16 21 5 19 11
22 20 17 19 19 18 16 23 21 7 15 13 21 14 14 16 15 19 24 20 20 17 14 10 16 18 26 24 26 31 32 32 31 34 31 28 28 22 18 7 16 18 13 11 11
19 18 19 17 14 16 20 19 8 14 13 5 13 6 20 12 14 15 20 23 22 20 19 22 20 16 22 22 21 25 33 24 29 34 32 28 23 27 23 16 13 17 15 12 13

GFSSW_700_spd_111.txt.gz
Wind_Speed
24 24 25 26 27 29 28 27 27 28 30 29 30 30 31 29 27 27 24 23 23 25 23 22 23 26 26 25 25 25 30 33 30 27 19 15 12 9 8 7 9 15 21 21 22
26 26 26 26 27 28 29 30 29 28 29 29 29 29 31 30 27 25 25 24 23 22 24 23 23 28 28 26 30 30 37 36 31 27 23 27 27 22 21 17 13 13 16 20 22
27 27 27 27 26 27 28 29 30 30 30 30 30 29 30 30 29 26 26 23 24 24 25 25 25 29 31 31 32 35 41 34 32 28 28 30 31 21 24 25 18 17 18 24 25
27 27 28 29 28 29 28 28 29 29 30 31 32 31 29 28 19 18 18 20 23 21 19 20 22 27 32 35 31 39 37 35 34 29 29 30 30 31 28 28 22 20 21 26 28
27 27 27 27 28 29 29 28 28 29 29 29 30 30 30 29 21 25 21 19 21 22 22 23 24 24 28 29 30 38 34 33 32 29 29 30 33 34 36 31 27 24 26 28 27
26 27 27 27 26 27 27 28 28 29 29 29 31 30 30 29 24 27 24 24 25 25 25 26 22 25 27 26 30 33 31 31 33 32 31 32 36 36 37 33 34 31 29 27 32
24 25 25 26 27 28 27 26 27 28 28 28 31 31 33 20 23 24 23 23 23 21 21 22 23 28 26 26 27 29 31 32 32 30 33 31 45 42 36 37 38 39 36 34 35
18 18 19 22 25 25 25 23 25 28 28 29 30 33 36 23 28 22 24 24 26 25 23 21 23 28 32 29 25 22 26 33 29 27 27 27 53 36 29 30 34 36 41 40 36
20 21 21 22 27 26 23 21 24 26 28 28 30 32 34 26 27 27 27 28 27 27 26 24 26 31 29 28 28 28 36 35 30 28 26 26 46 35 25 28 36 39 40 35 39
23 23 21 23 28 31 26 30 33 30 27 28 31 29 24 21 21 18 24 26 28 26 22 25 28 35 36 29 32 30 34 32 29 22 21 28 40 34 31 31 34 36 36 38 40
28 28 28 28 32 33 30 27 30 32 31 26 28 29 18 13 17 21 23 21 24 24 23 20 28 39 39 32 33 33 34 36 33 29 28 33 35 33 28 28 34 38 38 39 39
30 30 29 27 30 33 32 29 31 30 38 31 32 37 33 25 34 27 22 25 25 30 21 24 36 33 26 26 26 27 30 35 33 21 18 28 41 38 32 33 34 37 35 30 39
28 29 28 26 28 31 31 28 28 28 39 42 31 33 31 31 38 31 32 33 35 35 33 32 28 11 31 31 27 27 29 28 28 24 26 31 46 42 34 34 32 33 31 35 31
26 27 26 24 25 28 28 25 24 25 29 34 11 8 9 14 33 31 31 35 43 41 37 33 34 30 26 21 18 27 25 23 25 27 25 26 25 49 37 35 33 32 34 26 20
25 26 25 23 23 26 25 21 19 16 7 10 6 8 11 10 6 6 11 26 37 42 31 32 25 21 25 32 27 37 25 24 26 29 30 32 13 49 29 43 43 37 33 29 25
27 27 24 22 24 24 23 18 13 7 8 6 16 11 10 9 14 15 14 13 17 29 26 28 24 20 20 16 14 17 16 18 22 20 13 31 17 50 31 33 37 39 26 28 28
28 27 24 21 22 21 20 16 7 7 6 8 12 14 14 21 19 16 15 16 10 15 26 27 29 27 24 24 20 22 23 3 4 4 11 21 20 35 33 33 27 22 30 36 28
30 29 23 23 22 19 18 14 8 8 15 24 32 35 25 26 20 17 15 18 19 20 16 12 8 14 15 12 9 11 11 11 6 5 8 19 8 14 26 26 30 37 40 30 30
29 25 23 21 21 18 17 13 10 12 8 17 25 22 5 11 15 16 9 11 4 17 30 6 12 11 11 11 10 12 17 14 24 24 7 16 22 30 26 21 24 24 25 23 22
27 20 21 20 18 17 17 21 17 16 15 21 21 13 14 17 19 15 10 13 3 3 8 17 20 23 18 12 10 5 5 4 5 3 6 7 7 16 22 16 21 29 30 22 19
25 20 19 15 14 15 17 21 22 19 14 8 10 18 26 25 21 16 7 10 7 7 5 8 12 7 6 5 5 11 6 1 2 6 3 4 6 4 11 21 23 28 28 31 18
22 17 16 14 12 13 16 18 17 20 18 22 21 23 25 24 22 16 19 13 14 11 7 5 3 6 8 6 7 5 2 3 4 6 9 7 8 16 17 20 26 31 35 34 7
20 16 15 14 14 17 20 21 18 17 16 15 19 21 18 20 16 5 8 12 10 8 6 6 2 4 3 2 6 2 3 5 5 2 9 7 8 14 20 25 27 24 32 36 26
17 10 4 9 13 12 14 18 18 19 20 16 23 22 19 26 20 13 13 9 14 18 14 8 8 8 8 4 11 15 12 17 8 8 11 17 33 26 20 22 23 19 25 32 11
16 12 10 7 9 10 13 17 19 19 18 12 20 15 16 20 22 21 19 20 16 11 8 7 12 14 17 15 14 19 25 21 20 23 16 38 38 31 20 23 23 18 20 26 18
17 16 15 14 10 12 13 17 18 17 14 12 17 19 18 14 4 10 17 19 17 17 14 10 9 11 17 15 17 24 28 30 29 30 32 36 37 26 21 18 21 16 20 23 14
14 14 16 15 11 13 11 10 16 14 9 15 12 12 18 13 12 13 16 16 14 16 16 17 13 8 11 11 13 20 32 21 24 22 24 30 30 27 28 25 16 21 20 28 26

GFSSW_700_spd_114.txt.gz
Wind_Speed
24 25 26 27 27 27 28 29 29 29 29 31 32 32 31 31 29 28 28 27 25 24 24 23 25 27 29 27 27 27 30 35 29 28 25 22 15 16 15 15 13 11 11 15 14
26 25 25 26 27 28 29 30 30 31 32 32 33 33 32 33 32 27 28 27 28 24 25 24 27 28 31 30 31 31 38 39 31 28 27 27 26 22 25 22 21 18 13 14 14
27 27 27 27 27 28 29 30 30 32 34 34 34 34 33 33 32 31 32 28 26 27 27 28 28 31 33 33 34 36 44 37 33 30 29 30 32 27 29 31 24 23 21 21 20
26 26 28 29 29 29 30 31 31 32 33 34 35 34 33 32 23 18 20 17 19 25 24 27 29 31 33 34 34 39 41 36 35 31 33 33 33 35 32 31 27 27 25 25 24
27 27 27 28 30 31 31 31 31 33 34 34 35 34 32 34 25 28 28 22 19 22 19 21 24 25 28 29 30 39 41 37 36 33 34 33 34 35 37 31 28 29 28 26 23
26 27 28 29 31 32 31 31 31 32 34 33 35 35 34 36 26 29 27 27 28 26 25 26 24 28 31 31 29 32 30 32 35 34 33 35 36 35 35 30 33 32 30 29 30
26 25 24 25 28 27 27 27 30 32 32 33 34 36 37 28 31 28 25 22 25 29 32 31 31 30 29 29 29 30 32 34 34 31 32 29 40 37 32 31 32 32 30 26 29
20 21 22 24 27 27 25 25 27 28 28 28 31 35 41 28 30 28 30 28 27 28 25 23 25 30 30 29 21 21 27 32 27 26 26 25 43 33 25 26 28 28 31 32 33
23 24 25 29 33 32 29 26 30 31 31 29 30 31 37 26 28 29 30 31 29 29 28 27 28 28 29 28 28 28 31 31 30 25 23 25 38 30 23 25 28 28 27 30 33
24 24 26 29 33 34 30 28 28 36 38 39 35 30 19 18 23 24 20 19 27 29 27 28 30 34 33 30 29 30 33 34 30 22 19 22 36 32 28 29 30 30 30 32 35
27 27 28 30 33 35 34 31 32 35 30 28 30 36 28 21 20 9 14 19 21 24 26 25 31 40 36 35 36 33 29 27 25 26 27 31 38 31 28 28 28 28 27 32 31
29 26 26 28 29 31 33 31 30 35 45 32 30 33 30 31 39 28 27 28 26 28 22 27 37 31 28 27 30 34 35 38 35 25 20 22 37 33 30 30 28 25 26 27 28
24 22 22 24 25 27 27 27 26 30 39 41 25 17 11 16 28 29 28 32 35 32 26 30 31 5 14 23 31 34 32 30 27 24 22 28 43 33 29 25 22 18 26 28 26
20 21 23 24 24 25 26 24 25 25 25 15 8 9 15 14 5 6 10 26 37 39 34 32 37 36 33 33 20 33 33 29 25 16 11 14 15 33 24 12 18 31 23 27 29
22 23 25 24 24 24 25 24 21 19 6 10 7 8 14 14 19 7 14 14 25 34 27 34 27 25 25 32 29 31 23 20 20 17 18 20 9 10 8 35 18 22 30 26 20
23 24 24 26 27 26 25 22 19 6 7 7 18 18 16 18 17 18 12 12 14 14 31 32 25 17 15 13 12 13 6 7 11 15 7 15 12 40 19 8 23 24 20 21 28
23 25 28 27 26 25 22 20 9 5 7 10 15 24 31 34 28 15 14 9 13 7 16 23 28 25 22 15 14 16 12 1 2 3 5 1 10 31 25 13 22 30 26 28 25
25 26 27 27 27 24 20 16 6 8 13 22 30 31 24 24 16 19 13 12 8 10 17 10 4 13 18 24 18 17 24 10 5 4 3 9 8 5 18 24 26 23 23 21 25
26 27 27 25 23 20 17 9 6 10 12 20 27 23 17 13 19 22 12 11 11 20 13 7 7 5 5 8 10 10 11 9 12 11 1 7 17 19 18 13 23 20 20 20 21
26 26 25 22 19 18 15 15 12 13 16 20 16 9 14 24 23 22 15 7 8 13 15 9 7 12 9 11 3 9 7 5 5 3 5 3 5 4 8 12 16 20 25 28 26
25 24 20 18 17 16 13 13 15 14 13 10 13 19 21 23 22 19 13 15 12 12 13 17 9 2 7 9 10 8 8 5 2 1 1 2 3 8 5 16 21 24 25 31 34
22 18 18 15 14 13 10 10 13 18 14 16 18 15 13 17 17 17 16 13 17 13 8 13 8 6 5 8 3 4 4 8 5 4 4 1 8 15 13 19 25 27 30 35 40
17 15 16 15 10 13 16 19 20 19 12 12 15 17 18 22 16 7 8 7 11 14 5 9 4 9 2 7 9 8 10 8 4 4 7 4 9 17 20 29 30 26 25 32 36
15 10 10 11 12 12 12 15 11 9 18 19 22 18 16 20 16 21 21 9 12 13 9 11 12 15 9 6 11 10 7 9 3 5 6 16 31 32 38 38 31 26 22 30 34
15 13 11 7 7 8 14 17 19 18 17 15 17 13 13 22 19 21 21 12 14 18 13 11 18 20 21 18 16 17 21 21 17 18 12 34 34 41 45 39 27 22 24 29 32
15 12 12 10 9 10 10 14 15 12 17 17 12 15 14 16 19 8 18 11 13 12 14 17 14 15 24 19 14 17 22 28 28 31 32 38 41 46 40 27 23 21 29 29 31
12 10 11 11 8 9 9 9 12 15 14 9 10 15 8 15 7 8 8 13 15 16 12 14 16 10 14 12 11 15 31 26 22 21 24 30 40 31 26 24 22 26 23 25 25

GFSSW_700_spd_117.txt.gz
Wind_Speed
27 26 27 26 26 26 27 27 27 28 29 30 29 28 28 29 29 27 28 26 24 24 24 23 25 25 25 27 28 27 33 34 33 27 29 22 10 8 15 21 16 13 14 18 20
26 27 27 27 27 28 28 29 30 30 30 30 31 30 30 30 29 28 30 27 26 25 24 24 25 27 28 29 31 31 39 41 36 27 29 29 25 25 22 24 20 16 13 16 20
27 27 27 27 28 28 29 30 30 31 32 33 32 31 32 32 30 28 29 25 22 22 24 26 27 29 30 32 34 37 45 39 37 28 29 33 32 29 28 27 25 22 23 22 20
27 26 26 28 28 28 29 29 30 32 33 32 33 33 32 31 22 17 21 21 19 16 19 23 28 29 33 35 35 40 42 39 36 30 31 33 33 35 31 30 25 28 27 30 29
25 25 25 27 28 29 30 31 33 34 34 35 34 34 33 34 24 28 28 28 24 22 20 18 24 27 31 32 32 38 39 38 36 33 34 33 35 33 35 29 25 25 26 28 31
24 25 27 28 30 30 28 29 31 32 32 34 35 35 34 37 26 26 24 24 26 26 25 23 21 23 28 28 29 32 30 25 27 32 34 35 34 32 35 26 28 28 27 28 28
23 25 25 24 25 25 26 26 29 29 30 31 33 33 36 32 30 29 29 27 22 24 33 30 29 31 31 31 30 31 33 32 32 29 29 26 36 36 28 26 26 28 27 27 27
20 22 24 27 28 29 30 31 34 34 33 33 33 35 38 31 29 31 32 28 26 28 25 25 32 34 34 31 24 21 24 23 23 24 26 26 35 13 19 21 21 22 23 26 27
22 25 27 28 29 30 28 29 31 32 32 34 35 38 38 22 12 18 22 25 28 29 29 28 27 30 29 27 26 26 23 28 21 14 18 22 26 20 20 16 18 22 24 25 27
21 24 25 27 29 30 29 31 32 32 33 31 30 23 7 12 15 15 19 19 14 22 29 31 32 35 34 29 24 24 32 24 22 15 20 25 29 23 20 23 26 24 23 22 25
23 26 28 29 29 28 24 23 24 26 20 26 25 31 28 27 31 23 18 13 13 19 20 26 34 43 38 37 34 32 28 26 12 10 17 27 35 32 26 24 22 19 19 22 23
24 23 22 20 20 23 24 24 25 29 33 21 15 11 15 18 22 21 28 32 27 26 21 24 36 34 31 30 30 30 33 36 34 31 29 30 36 27 22 21 18 15 15 16 20
17 16 18 18 21 24 26 27 28 31 33 8 8 11 16 12 12 4 10 21 28 30 30 31 30 13 26 28 26 29 33 32 28 20 23 27 34 20 10 6 9 5 15 18 19
15 17 18 20 21 23 25 25 27 29 15 8 7 6 17 15 8 15 16 17 15 26 28 27 30 30 24 21 20 25 25 28 26 17 11 8 9 10 9 7 3 12 12 19 20
16 18 20 19 20 22 23 24 25 25 6 8 6 6 14 18 23 19 17 15 13 13 17 31 29 27 29 36 35 40 26 10 10 17 15 17 10 9 13 9 5 7 15 20 20
18 19 19 21 21 22 23 24 21 7 5 5 10 15 20 23 23 21 18 8 12 11 17 29 28 20 20 18 21 22 16 12 11 12 8 18 16 7 11 3 11 9 18 23 22
17 18 19 21 23 23 23 21 7 4 6 8 12 24 30 31 25 14 11 12 14 9 10 13 20 32 21 13 13 25 15 5 5 6 6 11 15 6 10 7 7 14 14 13 20
17 19 22 23 25 25 22 17 4 7 11 19 24 27 18 21 13 16 11 7 10 16 10 7 9 7 23 31 24 21 25 9 8 7 4 12 8 7 7 3 4 5 7 16 18
17 20 23 25 24 21 18 6 4 8 12 19 24 18 10 16 21 20 13 9 8 15 12 12 5 4 3 18 28 22 23 27 15 4 3 7 7 7 6 7 6 11 8 15 19
19 22 24 23 21 17 12 5 7 9 15 18 13 8 14 23 18 18 12 4 10 11 11 10 8 8 9 1 6 12 17 9 8 7 8 7 6 7 7 6 7 10 15 17 22
21 23 21 20 16 12 7 5 7 9 11 10 11 17 17 15 14 15 7 17 7 13 11 9 3 10 6 5 10 9 9 6 9 4 5 4 4 13 4 6 11 20 21 25 27
21 20 19 16 14 11 7 8 13 15 11 12 12 10 11 13 14 13 13 9 10 12 16 9 5 6 14 7 2 11 16 11 8 6 4 1 6 9 10 10 15 23 25 25 29
19 18 14 12 10 12 13 12 12 12 8 8 12 17 16 18 11 10 15 7 5 6 6 9 4 4 4 6 2 4 2 5 3 6 4 4 5 9 12 19 19 27 31 27 27
16 11 14 14 11 10 12 11 9 9 16 13 16 15 16 16 13 14 22 16 12 10 7 10 12 8 7 12 11 8 10 11 8 4 2 12 19 23 24 26 26 31 34 27 24
14 11 11 11 12 10 12 13 12 14 10 13 16 8 12 19 19 21 18 19 14 15 16 14 14 18 19 17 18 19 22 22 19 17 12 23 25 28 26 33 37 37 35 24 24
13 12 11 9 8 8 7 9 8 11 16 17 20 10 14 17 17 22 16 8 11 10 11 14 16 15 15 16 21 20 25 28 28 27 29 31 33 29 30 32 34 35 29 24 22
14 14 10 9 8 5 3 7 7 15 5 15 18 8 14 14 17 16 10 12 10 13 14 17 16 10 21 14 12 13 27 26 27 29 28 24 25 26 32 29 24 26 24 20 18

GFSSW_700_spd_120.txt.gz
Wind_Speed
25 25 25 26 27 28 28 29 29 29 29 28 28 28 29 27 25 26 25 21 22 23 25 24 24 25 23 27 29 28 26 29 26 22 21 20 20 16 22 22 22 20 19 25 27
27 26 27 28 29 28 29 29 30 31 32 31 30 30 31 30 27 25 28 25 25 23 24 25 26 25 28 28 30 32 30 31 25 24 19 18 19 15 18 17 21 21 20 21 26
29 30 30 29 29 28 29 30 30 31 31 31 31 31 32 30 28 27 26 23 18 18 21 26 28 27 29 30 32 32 38 25 24 29 23 24 23 25 23 25 21 22 21 22 24
31 31 29 28 27 27 28 29 31 32 32 32 32 32 33 31 17 17 22 23 22 19 16 19 27 30 32 32 33 36 31 32 26 23 29 31 28 27 25 25 22 24 33 32 28
30 28 26 26 26 27 28 30 32 31 31 32 31 31 31 31 25 28 27 27 28 26 22 21 21 23 27 23 28 35 32 28 28 31 32 30 32 33 30 23 25 26 30 35 33
25 25 26 26 28 29 29 30 29 30 28 28 29 28 30 30 25 23 25 22 21 24 25 24 21 20 20 23 25 18 20 24 24 25 29 33 35 34 27 30 30 27 28 29 31
24 24 25 25 25 26 28 30 32 33 33 34 34 34 34 31 28 25 25 26 26 23 23 29 27 27 19 20 24 23 26 25 25 25 26 25 28 32 29 27 26 28 27 27 27
22 22 23 24 24 25 25 25 24 25 25 25 26 26 27 28 27 29 28 28 28 28 28 25 31 37 28 21 20 18 23 26 22 23 25 23 31 18 15 14 16 22 19 19 20
20 20 21 20 20 21 25 26 25 24 23 25 26 26 22 11 11 12 14 17 18 24 28 29 30 29 25 26 27 28 30 25 20 18 17 22 19 15 19 19 21 23 20 21 23
18 17 19 21 22 21 20 18 19 18 15 19 15 16 12 15 18 17 19 17 18 17 17 29 28 28 26 25 35 27 26 26 27 23 21 23 24 21 17 18 18 22 21 22 21
18 20 21 19 16 15 15 18 19 14 20 17 15 15 17 16 17 20 26 25 17 12 12 17 28 38 31 29 29 27 27 26 23 18 22 26 24 21 21 22 25 23 18 16 19
18 17 14 14 16 18 18 20 19 20 16 12 6 5 10 10 4 5 12 13 19 23 17 18 31 28 27 28 27 28 30 33 27 21 20 25 30 28 24 24 19 17 17 14 19
12 10 11 13 16 18 19 19 19 20 15 3 3 7 8 6 10 16 16 13 11 14 23 30 22 14 23 24 26 28 31 28 26 20 23 22 29 26 20 20 19 16 15 16 16
9 9 11 13 16 17 18 19 20 21 2 1 5 7 8 8 5 14 17 16 8 8 14 27 26 27 17 18 21 27 23 22 21 17 24 15 14 9 11 10 13 11 12 11 11
8 10 11 13 14 15 18 19 20 17 4 5 5 7 12 12 15 14 18 14 11 11 10 19 14 19 27 31 23 24 14 16 16 23 22 23 13 18 11 19 12 10 12 8 10
9 11 11 11 13 15 16 19 18 5 1 4 6 11 14 17 21 21 13 12 13 15 16 20 20 19 17 19 22 24 18 13 13 16 20 24 21 15 18 21 11 9 11 8 10
10 10 10 12 14 15 16 16 4 2 4 5 9 23 25 20 18 17 14 11 7 11 13 16 17 19 24 20 19 18 17 11 11 12 17 17 16 20 11 12 12 13 10 9 10
8 9 11 13 17 17 15 11 2 4 6 17 19 19 11 14 12 18 16 12 10 9 14 12 11 4 7 26 21 19 25 17 12 14 17 15 12 10 11 11 14 11 10 10 12
7 10 12 16 17 16 13 4 1 3 9 15 19 9 7 13 14 13 14 14 8 6 10 11 12 6 1 5 24 25 28 30 21 14 10 13 6 9 11 10 8 7 8 11 14
7 10 14 16 16 14 10 1 4 9 13 13 7 7 11 14 13 12 10 6 10 6 9 9 14 9 13 10 9 27 23 24 22 17 21 24 22 14 18 12 7 2 6 10 13
7 10 14 16 15 11 6 2 6 9 12 7 7 12 12 13 10 13 8 15 5 12 10 12 13 16 11 8 9 9 18 17 17 29 16 16 19 14 21 13 5 4 9 12 14
8 10 13 14 13 9 5 7 10 10 10 10 9 10 10 11 14 13 14 12 14 12 13 9 12 15 14 9 3 6 14 7 7 17 21 13 7 15 17 11 8 9 17 19 20
8 10 12 14 8 9 8 9 8 7 4 4 7 10 13 16 14 11 14 15 15 15 5 8 8 12 15 11 8 2 3 2 6 8 12 12 13 12 11 9 11 18 22 23 24
8 8 11 10 11 10 9 5 6 8 5 5 10 11 10 13 13 15 17 15 18 19 13 9 11 13 16 12 9 9 9 7 5 5 7 15 13 6 10 14 16 20 23 27 27
7 7 8 8 11 10 8 5 5 5 3 8 6 10 14 13 15 17 16 20 16 9 14 13 17 17 18 22 18 18 17 15 13 13 15 18 17 18 17 20 22 26 26 29 29
7 7 7 6 8 8 5 3 3 6 7 7 11 15 11 17 18 19 18 17 8 6 8 11 14 14 19 20 18 21 21 21 18 19 21 23 25 20 21 20 20 22 21 25 20
6 4 4 6 7 3 1 1 1 7 2 8 11 15 13 15 18 16 17 17 14 12 12 13 10 13 18 14 17 19 25 23 24 22 21 23 25 25 23 22 24 24 21 19 18